[[{"header":{"parameterUnit":"m.s-1","parameterCategory":2,"la1":30.8641,"la2":29.7642,"lo1":-88.4676,"lo2":-86.9344,"dy":0.0333,"dx":0.0333,"nx":47,"ny":34,"refTime":"2024-12-21T00:00:00:Z","depth":"0","parameterNumber":2,"parameterNumberName":"U-component_of_CURRENTS"},"data":[0,0,0,0,0,0,0,0,0,0,0,0,0,0,0,0,0,0,0,0,0,0,0,0,0,0,0,0,0,0,0,0,0,0,0,0,0,0,0,0,0,0,0,0,0,0,0,0,0,0,0,0,0,0,0,0,0,0,0,0,0,0,0,0,0,0,0,0,0,0,0,0,0,0,0,0,0,0,0,0,0,0,0,0,0,0,0,0,0,0,0,0,0,0,0,0,0,0,0,0,0,0,0,0,0,0,0,0,0,0,0,0,0,0,0,0,0,0,0,0,0,0,0,0,0,0,0,0,0,0,0,0,0,0,0,0,0,0,0,0,0,0,0,0,0,0,0,0,0,0,0,0,0,0,0,0,0,0,0,0,0,0,0,0,0,0,0,0,0,0,0,0,0,0,0,0,0,0,0,0,0,0,0,0,0,0,0,0,0,0,0,0,0,0,0,0,0,0,0,0,0,0,0,0,0,0,0,0,0,0,0,0,0,0,0,0,0,0,0,0,0,0,0,0,0,0,0,0,0,0,0,0,0,0,0,0,0,0,0,0,0,0,0,0,0,0,0,0,0,0,0,0,0,0,0,0,0,0,0,0,0,0,0,0,0,0,0,0,0,0,0,0,0,0,0,0,0,0,0,0,0,0,0,0,0,0,0,0,0,0,0,0,0,0,0,0,0.0426,0.0849,0,0,0,0,0,0,0,0,0,0,0,0,0,0,0,0,0,0,0,0,0,0,0,0,0,0,0,0,0,0,0,0,0,0,0,0,0,0,0,0,0,0,0,0,0.017,0.0648,0.0931,0.0906,0,0,0,0,0,0,0,0,0,0,0,0,0,0,0,0,0,0,0,0,0,0,0,0,0,0,0,0,0,0,0,0,0,0,0,0,0,0,0,0,0,0,0,-0.0681,-0.0904,-0.0203,0.0041,0,0,0,0,0,0,0,0,0,0,0,0,0,0,0,0,0,0,0,0,0,0,0,0,0,0,0,0,0,0,0,0,0,0,0,0,0,0,0,0,0,0,0.008,-0.0272,-0.0753,-0.0505,-0.0209,0,0,0,0,0,0,0,0,0,0,0,0,0,0,0,0,0,0,0,0,0,0,0,0,0,0,0,0,0,0,0,0,0,0,0,0,0,0,0,0,0,0,-0.0209,-0.0582,-0.0761,-0.0497,-0.0225,0,0,0,0,0,0,0,0,0,0,0,0,0,0,0,0,0,0,0,0,0,0,0,0,0,0,0,0,0,0,0,0,0,0,0,0,0,0,0,0,0,0,-0.0058,-0.0519,-0.0865,-0.0552,-0.0302,0,0,0,0,0,0,0,0,0,0,0,0,0,0,0,0,0,0,0,0,0,0,0,0,0,0,0,0,0,0,0,0,0,0,0,0,0,0,0,0,0,0,0.0107,-0.028,-0.0709,-0.0629,-0.05,0,0,0,0,0,0,0,0,0,0,0,0,0,0,0,0,0,0,0,0,0,0,0,0,0,0,0.0022,0.0044,0,0,0,0,0,0,0,0,0,0,0,0,0,-0.0379,-0.0912,-0.1176,-0.122,-0.1022,-0.089,0,0,0,0,0,0,0,0,0,0,0,0,0,0,0,0,0,0,0,0,0,0,-0.0453,-0.1516,-0.2261,-0.1041,-0.0126,-0.0569,0,0,0,0,0,0,0,0,0,0,0,0,0,-0.0376,-0.1167,-0.1667,-0.1752,-0.1384,-0.0214,0.0588,0,0,0,0,0,0,0,0,0,0,0,0,0,0,0,0,0,0,0,0,-0.0956,-0.1225,-0.0522,-0.0508,0,0,0,0,0,0,0,0,0.0008,0.0228,0.0439,0,0,0,0,0,-0.067,-0.1739,-0.2131,-0.2126,-0.175,-0.0516,0.0376,0.0349,0,0,0,0,0,0,0,0,0,0,0,0,0,0,0,0,0,0,-0.2362,-0.2785,0,0,0,0,0,0,0,0.0052,0,-0.0343,-0.0648,-0.0618,-0.0505,-0.0382,0,0,0,0,0,-0.0994,-0.2497,-0.2953,-0.2692,-0.2071,-0.109,-0.0442,-0.0338,-0.0305,0,0,0,0,0,0,0,0,0,0,0,0,0,0,0,0,-0.1027,-0.0964,0,0,-0.0242,-0.0266,-0.0225,-0.0143,-0.0027,0.0107,0.017,-0.1412,-0.1442,-0.1623,-0.1994,-0.2321,-0.2623,-0.2664,-0.2626,-0.2922,-0.3041,-0.2832,-0.1607,-0.1192,-0.223,-0.2274,-0.1796,-0.1571,-0.1478,-0.1296,-0.1008,-0.0829,0,0,0,0,0,0,0,0,0,0,0,0,-0.0401,-0.111,-0.1346,-0.1176,-0.0538,0.0129,0.0201,0.0121,0.0099,0.0102,0.0115,0.0126,0.0132,0.0126,-0.1667,-0.195,-0.2365,-0.245,-0.2326,-0.1942,-0.1653,-0.1909,-0.2093,0,0,0,-0.1502,-0.3222,-0.2928,-0.2258,-0.1961,-0.1851,-0.1728,-0.1376,-0.1173,0,0,0,0,0,0,0,-0.0148,-0.036,-0.05,-0.0623,-0.078,-0.0744,-0.0736,-0.0906,-0.0865,-0.0483,-0.0118,-0.003,0.0019,0.0063,0.0096,0.0113,0.0113,0.0091,0.0069,-0.064,-0.0519,-0.12,-0.1739,-0.1719,0,0,-0.1217,-0.1975,-0.156,-0.1983,-0.2651,-0.1533,-0.0126,0,0,0,0,0,0,0,0,-0.0058,-0.0124,-0.0129,-0.0151,-0.0214,-0.0335,-0.0398,-0.0407,-0.0464,-0.0489,-0.0434,-0.0297,-0.0107,0.0041,0.0044,-0.0041,-0.0121,-0.0126,-0.0069,-0.0025,-0.0008,-0.0016,-0.0047,-0.0074,-0.0049,0,0,-0.0714,-0.1802,-0.2159,-0.2134,-0.2016,-0.1722,-0.1582,-0.1324,-0.109,-0.1156,0,0.0354,0.0439,0.0099,-0.0019,-0.0091,-0.0146,-0.0198,-0.0233,-0.0247,-0.022,-0.0184,-0.0181,-0.0187,-0.0214,-0.0266,-0.0308,-0.0332,-0.0346,-0.0341,-0.0357,-0.0374,-0.0272,-0.0151,-0.014,-0.0184,-0.0225,-0.0228,-0.0228,-0.0236,-0.022,-0.0184,-0.0124,-0.0025,0.0129,-0.1085,-0.1145,-0.1123,-0.1343,-0.1832,-0.206,-0.209,-0.2033,-0.189,-0.1618,-0.1335,-0.0964,-0.1126,-0.1008,-0.0316,-0.0129,-0.014,-0.0201,-0.0239,-0.0272,-0.0299,-0.0305,-0.0291,-0.0277,-0.0275,-0.0275,-0.0266,-0.0239,-0.0195,-0.0176,-0.0258,-0.0335,-0.0283,-0.0233,-0.0198,-0.0168,-0.0209,-0.0261,-0.0291,-0.0313,-0.0316,-0.0286,-0.0242,-0.0162,-0.0011,0.0247,0.0585,-0.0937,-0.0945,-0.0868,-0.0736,-0.0626,-0.0569,-0.0876,-0.156,-0.1956,-0.1873,-0.1618,-0.131,-0.1057,-0.0755,-0.0412,-0.0269,-0.0264,-0.0286,-0.0299,-0.0313,-0.033,-0.0341,-0.0343,-0.0338,-0.0332,-0.0316,-0.0277,-0.0225,-0.017,-0.0151,-0.0253,-0.0346,-0.0286,-0.0222,-0.0206,-0.0195,-0.0214,-0.0247,-0.0286,-0.0313,-0.0297,-0.0244,-0.014,0.0063,0.0417,0.086,0.1288,-0.0753,-0.0827,-0.0926,-0.1057,-0.1068,-0.0794,-0.0266,-0.0099,-0.0744,-0.1307,-0.1338,-0.1187,-0.0868,-0.0519,-0.0346,-0.0341,-0.0354,-0.0352,-0.0352,-0.0346,-0.0343,-0.0343,-0.0332,-0.0299,-0.0244,-0.0184,-0.0124,-0.0077,-0.006,-0.0088,-0.0214,-0.0385,-0.0486,-0.0516,-0.042,-0.0244,-0.0162,-0.0135,-0.0115,-0.0124,-0.0096,0.0011,0.0269,0.0673,0.1134,0.1607,0.2,-0.07,-0.0775,-0.0917,-0.1206,-0.1524,-0.164,-0.1379,-0.0698,-0.0184,-0.0047,-0.0058,-0.019,-0.0299,-0.0365,-0.0407,-0.0423,-0.042,-0.0415,-0.0407,-0.039,-0.0371,-0.0349,-0.0313,-0.0255,-0.0179,-0.0104,-0.0049,-0.0014,0.0022,0.0074,0.0126,0.0025,-0.0338,-0.0618,-0.0536,-0.0275,-0.0005,0.0173,0.0209,0.0231,0.0437,0.0851,0.1299,0.1697,0.2057,0.228,0.2354,-0.0563,-0.0519,-0.0503,-0.0591,-0.0884,-0.1252,-0.1445,-0.1387,-0.1148,-0.0797,-0.0516,-0.0423,-0.0412,-0.0428,-0.0448,-0.0453,-0.0456,-0.0464,-0.0464,-0.045,-0.0428,-0.0407,-0.0382,-0.0338,-0.0269,-0.0192,-0.0126,-0.0063,0.0016,0.0115,0.0236,0.0376,0.0497,0.0533,0.0475,0.0456,0.058,0.0813,0.1187,0.1648,0.2033,0.2269,0.2436,0.2494,0.2436,0.2395,0.2343,-0.031,-0.0214,-0.0118,-0.003,0.0008,-0.0074,-0.0305,-0.0533,-0.0591,-0.0533,-0.0489,-0.047,-0.0448,-0.0428,-0.042,-0.0428,-0.045,-0.0478,-0.0494,-0.0497,-0.0486,-0.047,-0.0445,-0.0396,-0.0321,-0.0239,-0.0159,-0.0077,0.0003,0.0088,0.0187,0.0291,0.0385,0.0456,0.0538,0.072,0.1052,0.1494,0.1942,0.2277,0.2442,0.2486,0.2461,0.2431,0.2376,0.2247,0.209,-0.0025,-0.0022,0.0008,0.0058,0.0118,0.0222,0.0417,0.0321,-0.0027,-0.0201,-0.0269,-0.0316,-0.033,-0.0319,-0.0313,-0.0341,-0.039,-0.0442,-0.0481,-0.0489,-0.047,-0.0434,-0.039,-0.0338,-0.0283,-0.0228,-0.017,-0.0104,-0.0033,0.0044,0.0124,0.0206,0.0283,0.0368,0.0514,0.0777,0.1145,0.1513,0.1785,0.1997,0.214,0.2241,0.2307,0.2261,0.2151,0.2011,0.187,-0.0093,-0.0099,-0.0047,0.0082,0.0261,0.0423,0.061,0.0794,0.0736,0.0365,0.0022,-0.0082,-0.0104,-0.0126,-0.0135,-0.0173,-0.0255,-0.0352,-0.0426,-0.0445,-0.0415,-0.036,-0.0299,-0.0258,-0.0242,-0.0231,-0.0201,-0.0146,-0.0077,-0.0005,0.0066,0.0135,0.0206,0.0338,0.0536,0.0794,0.103,0.1252,0.1483,0.1711,0.1936,0.2068,0.2093,0.2027,0.1939,0.1859,0.1788,-0.019,-0.0176,-0.0038,0.0159,0.0335,0.0514,0.072,0.0945,0.1222,0.1497,0.1151,0.0343,0.0014,0.0025,0.0016,-0.0011,-0.0074,-0.0181,-0.0302,-0.0365,-0.0357,-0.0308,-0.025,-0.0217,-0.0228,-0.0242,-0.0225,-0.0181,-0.0126,-0.0069,-0.0005,0.006,0.0162,0.0349,0.0525,0.0629,0.0736,0.0956,0.1211,0.145,0.1689,0.1816,0.1838,0.1827,0.1807,0.1777,0.1747,-0.0412,-0.0277,-0.006,0.0091,0.0195,0.0299,0.045,0.0604,0.0794,0.1129,0.1489,0.1354,0.0651,0.017,0.0115,0.0099,0.0074,0.0016,-0.0082,-0.0173,-0.0214,-0.0214,-0.0203,-0.0201,-0.0214,-0.0244,-0.0264,-0.0255,-0.0209,-0.014,-0.0058,0.0041,0.0239,0.0374,0.0343,0.0412,0.0604,0.0843,0.1132,0.1395,0.1596,0.1697,0.1722,0.175,0.1794,0.1813,0.1799,-0.0459,-0.0154,0.0069,0.0192,0.0349,0.0461,0.0558,0.0665,0.0744,0.0816,0.1027,0.1189,0.0975,0.0514,0.0231,0.0184,0.0173,0.0168,0.0132,0.0066,-0.0005,-0.0066,-0.0124,-0.0173,-0.0203,-0.0242,-0.0308,-0.0338,-0.0277,-0.0157,-0.0011,0.0168,0.0302,0.0376,0.0437,0.0593,0.0851,0.109,0.1316,0.1522,0.1662,0.1708,0.1714,0.1733,0.1777,0.1827,0.1865,-0.0376,-0.0003,0.031,0.045,0.0522,0.0582,0.0607,0.0645,0.0725,0.0766,0.0865,0.1025,0.1044,0.0805,0.0456,0.0269,0.0228,0.0222,0.0214,0.0179,0.0124,0.008,0.0038,-0.0022,-0.0104,-0.0242,-0.0439,-0.0492,-0.0308,-0.0055,0.0168,0.0393,0.0571,0.0684,0.084,0.1057,0.1291,0.1489,0.1618,0.1689,0.1714,0.1697,0.1673,0.167,0.1714,0.1791,0.1876,-0.0198,0.0096,0.0319,0.0453,0.0467,0.0472,0.0492,0.0508,0.0544,0.056,0.058,0.0703,0.0865,0.0854,0.0593,0.0338,0.0258,0.0236,0.0211,0.017,0.014,0.0132,0.0135,0.0157,0.0184,0.0222,0.0181,0.0132,0.0228,0.0387,0.0555,0.0742,0.0915,0.1088,0.1307,0.153,0.1739,0.1873,0.1895,0.1821,0.1711,0.164,0.1588,0.1557,0.1599,0.17,0.1835]},{"header":{"parameterUnit":"m.s-1","parameterCategory":2,"la1":30.8641,"la2":29.7642,"lo1":-88.4676,"lo2":-86.9344,"dy":0.0333,"dx":0.0333,"nx":47,"ny":34,"refTime":"2024-12-21T00:00:00:Z","depth":"0","parameterNumber":3,"parameterNumberName":"V-component_of_CURRENTS"},"data":[0,0,0,0,0,0,0,0,0,0,0,0,0,0,0,0,0,0,0,0,0,0,0,0,0,0,0,0,0,0,0,0,0,0,0,0,0,0,0,0,0,0,0,0,0,0,0,0,0,0,0,0,0,0,0,0,0,0,0,0,0,0,0,0,0,0,0,0,0,0,0,0,0,0,0,0,0,0,0,0,0,0,0,0,0,0,0,0,0,0,0,0,0,0,0,0,0,0,0,0,0,0,0,0,0,0,0,0,0,0,0,0,0,0,0,0,0,0,0,0,0,0,0,0,0,0,0,0,0,0,0,0,0,0,0,0,0,0,0,0,0,0,0,0,0,0,0,0,0,0,0,0,0,0,0,0,0,0,0,0,0,0,0,0,0,0,0,0,0,0,0,0,0,0,0,0,0,0,0,0,0,0,0,0,0,0,0,0,0,0,0,0,0,0,0,0,0,0,0,0,0,0,0,0,0,0,0,0,0,0,0,0,0,0,0,0,0,0,0,0,0,0,0,0,0,0,0,0,0,0,0,0,0,0,0,0,0,0,0,0,0,0,0,0,0,0,0,0,0,0,0,0,0,0,0,0,0,0,0,0,0,0,0,0,0,0,0,0,0,0,0,0,0,0,0,0,0,0,0,0,0,0,0,0,0,0,0,0,0,0,0,0,0,0,0,0,0.1324,-0.1486,0,0,0,0,0,0,0,0,0,0,0,0,0,0,0,0,0,0,0,0,0,0,0,0,0,0,0,0,0,0,0,0,0,0,0,0,0,0,0,0,0,0,0,0,0.0558,0.0027,-0.1887,-0.1689,0,0,0,0,0,0,0,0,0,0,0,0,0,0,0,0,0,0,0,0,0,0,0,0,0,0,0,0,0,0,0,0,0,0,0,0,0,0,0,0,0,0,0,0.0165,-0.0832,-0.2313,-0.1958,0,0,0,0,0,0,0,0,0,0,0,0,0,0,0,0,0,0,0,0,0,0,0,0,0,0,0,0,0,0,0,0,0,0,0,0,0,0,0,0,0,0,0.0206,-0.0222,-0.0492,-0.2324,-0.2392,0,0,0,0,0,0,0,0,0,0,0,0,0,0,0,0,0,0,0,0,0,0,0,0,0,0,0,0,0,0,0,0,0,0,0,0,0,0,0,0,0,0,0.0047,0.003,-0.0706,-0.2348,-0.2675,0,0,0,0,0,0,0,0,0,0,0,0,0,0,0,0,0,0,0,0,0,0,0,0,0,0,0,0,0,0,0,0,0,0,0,0,0,0,0,0,0,0,-0.0113,0.0225,-0.0805,-0.2502,-0.295,0,0,0,0,0,0,0,0,0,0,0,0,0,0,0,0,0,0,0,0,0,0,0,0,0,0,0,0,0,0,0,0,0,0,0,0,0,0,0,0,0,0,-0.0173,-0.0074,-0.1066,-0.2851,-0.3398,0,0,0,0,0,0,0,0,0,0,0,0,0,0,0,0,0,0,0,0,0,0,0,0,0,0,-0.0033,-0.0201,0,0,0,0,0,0,0,0,0,0,0,0,0,0.0049,-0.0052,-0.0255,-0.1489,-0.3233,-0.3972,0,0,0,0,0,0,0,0,0,0,0,0,0,0,0,0,0,0,0,0,0,0,-0.1052,-0.0599,-0.061,0.0,-0.0016,-0.0099,0,0,0,0,0,0,0,0,0,0,0,0,0,-0.0201,-0.003,-0.0357,-0.1632,-0.3225,-0.3952,-0.0417,0,0,0,0,0,0,0,0,0,0,0,0,0,0,0,0,0,0,0,0,-0.2101,-0.0525,-0.0299,-0.0305,0,0,0,0,0,0,0,0,0.1211,0.095,0.0843,0,0,0,0,0,-0.0879,-0.0258,-0.0736,-0.1895,-0.2964,-0.3013,-0.0066,0.0368,0,0,0,0,0,0,0,0,0,0,0,0,0,0,0,0,0,0,-0.125,-0.1052,0,0,0,0,0,0,0,0.0107,0,0.0401,0.1365,0.1181,0.0901,0.0887,0,0,0,0,0,-0.1843,-0.011,-0.1025,-0.189,-0.1854,-0.1052,0.0239,0.0266,-0.0233,0,0,0,0,0,0,0,0,0,0,0,0,0,0,0,0,-0.1577,-0.1851,0,0,-0.0179,-0.0099,-0.0038,0.0008,0.0049,0.0038,0.0074,0.0113,0.0385,0.0788,0.0497,0.0277,0.0401,0.0179,-0.0192,-0.1431,0.0,0.0,-0.1145,-0.0637,-0.114,-0.0956,-0.036,0.017,0.0181,0.0195,0.0016,-0.017,0,0,0,0,0,0,0,0,0,0,0,0,-0.072,-0.0623,-0.0766,-0.1263,-0.1827,-0.0124,-0.0236,-0.0173,-0.0082,-0.0019,0.0019,0.0055,0.0047,0.0044,-0.0011,0.022,0.0253,-0.0368,-0.0632,-0.0066,0.0088,0.0247,-0.0978,0,0,0,-0.2365,-0.1486,-0.0148,0.0069,0.0033,0.0088,0.0113,0.006,-0.0085,0,0,0,0,0,0,0,-0.0214,-0.0184,-0.0261,-0.0217,-0.0143,-0.0423,-0.0324,-0.0269,-0.0461,-0.0615,-0.0107,-0.0236,-0.0162,-0.0077,-0.0027,0.0005,0.0038,0.0038,0.0038,-0.0069,0.0036,0.0327,-0.0135,-0.0239,0,0,-0.0058,-0.0363,-0.0906,-0.0775,-0.1093,-0.1675,-0.3227,0,0,0,0,0,0,0,0,-0.0132,-0.0085,-0.0088,-0.0151,-0.0181,-0.0236,-0.0341,-0.0297,-0.0286,-0.0228,-0.011,-0.0038,0.0066,0.0011,-0.0093,-0.0107,-0.0159,-0.0198,-0.0113,-0.0066,-0.0038,-0.0011,0.0016,0.0027,0.0066,0,0,-0.0195,0.0066,0.0154,-0.033,-0.0247,-0.0492,-0.0148,-0.0632,-0.0687,-0.1104,0,-0.4222,-0.1022,-0.0269,-0.0187,-0.0154,-0.0148,-0.0137,-0.011,-0.0096,-0.0124,-0.0104,-0.0115,-0.017,-0.0211,-0.0269,-0.033,-0.0321,-0.0308,-0.0222,-0.0096,0.0066,0.0206,-0.0027,-0.0211,-0.0244,-0.0242,-0.014,-0.0038,-0.0027,0.0,0.0027,0.006,0.0099,0.0195,-0.0195,-0.0264,-0.058,-0.0242,-0.0159,-0.0233,-0.0121,0.0132,0.0085,-0.0244,-0.0519,-0.0956,-0.1077,-0.2804,-0.0835,-0.028,-0.0233,-0.0184,-0.0179,-0.0165,-0.0135,-0.0115,-0.0126,-0.0135,-0.0159,-0.0203,-0.0244,-0.028,-0.0297,-0.0294,-0.0299,-0.0181,-0.0066,0.0102,0.0192,-0.0143,-0.031,-0.0308,-0.0225,-0.0069,-0.0022,-0.0005,0.0041,0.0102,0.0206,0.0316,0.0456,-0.0214,-0.0236,-0.0305,-0.0206,-0.0118,-0.0198,0.0049,0.0357,0.0211,-0.0091,-0.0365,-0.0689,-0.0934,-0.1263,-0.0511,-0.0294,-0.0283,-0.0225,-0.0217,-0.0198,-0.017,-0.0148,-0.0151,-0.0165,-0.0195,-0.022,-0.0236,-0.0233,-0.0231,-0.0261,-0.031,-0.014,0.0041,0.0058,0.0,-0.0294,-0.036,-0.0297,-0.0179,-0.0088,-0.0041,0.0019,0.0121,0.0291,0.0519,0.0728,0.0816,-0.0275,-0.0244,-0.0201,-0.0058,0.0005,-0.0195,-0.0151,-0.0052,0.0173,0.0047,-0.0154,-0.0357,-0.0516,-0.0508,-0.0335,-0.0305,-0.0277,-0.0239,-0.0225,-0.0203,-0.0184,-0.0168,-0.0162,-0.0168,-0.0176,-0.0179,-0.0173,-0.0162,-0.0179,-0.0253,-0.0357,-0.0225,0.0074,0.0005,-0.0192,-0.0396,-0.0368,-0.0231,-0.0146,-0.0115,-0.0016,0.014,0.0387,0.072,0.0953,0.1027,0.097,-0.033,-0.0313,-0.0247,-0.0055,0.0113,0.0005,-0.0198,-0.0341,-0.0096,-0.014,-0.0154,-0.0222,-0.0283,-0.0319,-0.0308,-0.0313,-0.0266,-0.0239,-0.0214,-0.019,-0.0168,-0.0148,-0.0124,-0.0093,-0.0069,-0.0063,-0.0066,-0.0074,-0.0107,-0.0192,-0.031,-0.0319,-0.0091,-0.0014,-0.0187,-0.0363,-0.0335,-0.0146,-0.0008,0.0217,0.0467,0.0747,0.1038,0.1214,0.1258,0.1181,0.0994,-0.0294,-0.0294,-0.0255,-0.0118,0.0052,0.011,0.003,-0.0146,-0.0206,-0.0272,-0.0242,-0.0288,-0.0316,-0.0327,-0.0319,-0.0302,-0.0261,-0.0233,-0.0198,-0.0159,-0.0132,-0.0104,-0.0058,0.0005,0.0049,0.0044,0.0022,0.0003,-0.0022,-0.0077,-0.0157,-0.0201,-0.0146,-0.0008,-0.0044,-0.0102,0.0044,0.0401,0.0725,0.1011,0.125,0.1447,0.1513,0.1458,0.1327,0.1176,0.0909,-0.0168,-0.0157,-0.0129,-0.0063,0.0003,0.0033,0.0019,-0.0008,0.0005,-0.0074,-0.0165,-0.0242,-0.0283,-0.0302,-0.031,-0.0299,-0.0269,-0.0239,-0.019,-0.0135,-0.0099,-0.0071,-0.0016,0.0063,0.0107,0.0096,0.0077,0.006,0.0038,0.0005,-0.0038,-0.006,-0.0027,0.0041,0.008,0.0269,0.0725,0.1156,0.1406,0.15,0.1566,0.1557,0.1445,0.1327,0.1137,0.0901,0.0618,-0.0071,-0.0047,0.0022,0.011,0.0132,0.0091,-0.0019,0.0027,0.0113,-0.0041,-0.0143,-0.0217,-0.0236,-0.0255,-0.0288,-0.0316,-0.0308,-0.0269,-0.0203,-0.0124,-0.0074,-0.0047,0.0008,0.0085,0.0126,0.0126,0.0124,0.0115,0.0093,0.0066,0.0033,0.0008,0.003,0.0102,0.0288,0.0662,0.1096,0.1296,0.1368,0.1437,0.1445,0.1332,0.1187,0.1022,0.0854,0.0673,0.0423,-0.0027,0.0058,0.0266,0.0412,0.0417,0.0341,0.0209,0.0242,0.0247,0.0008,-0.0069,-0.0159,-0.0225,-0.0233,-0.0277,-0.0343,-0.0374,-0.0343,-0.0247,-0.0129,-0.0058,-0.0011,0.0041,0.0099,0.0121,0.0137,0.0159,0.0162,0.0154,0.0126,0.0099,0.0071,0.011,0.0335,0.0599,0.0832,0.1019,0.1145,0.1252,0.1313,0.1255,0.1074,0.0901,0.0791,0.0687,0.0549,0.0299,0.0041,0.0286,0.0555,0.0599,0.053,0.0448,0.0385,0.0357,0.0258,0.0003,-0.0173,-0.0071,-0.0137,-0.0247,-0.0302,-0.0376,-0.0431,-0.0434,-0.0338,-0.0179,-0.006,0.0019,0.0074,0.0088,0.0082,0.0115,0.0157,0.0181,0.0195,0.0184,0.017,0.0154,0.0302,0.0527,0.0637,0.0728,0.0912,0.114,0.1316,0.1294,0.1126,0.0893,0.0731,0.0665,0.0588,0.0437,0.0184,0.0137,0.05,0.061,0.0527,0.0459,0.0426,0.0365,0.0335,0.0233,0.0104,-0.0299,-0.0428,-0.0247,-0.0253,-0.0343,-0.0407,-0.0456,-0.0481,-0.0426,-0.0266,-0.0091,0.0033,0.0088,0.006,0.0019,0.0052,0.0113,0.0165,0.0203,0.0228,0.0231,0.0266,0.0407,0.0459,0.05,0.0725,0.1016,0.1294,0.1447,0.1349,0.109,0.0835,0.0681,0.0593,0.0472,0.0291,0.0055,0.0321,0.0717,0.0662,0.0538,0.0483,0.0439,0.036,0.0294,0.0181,0.0148,-0.0209,-0.0772,-0.0621,-0.0327,-0.0385,-0.0434,-0.0456,-0.0467,-0.0442,-0.0321,-0.0121,0.0022,0.0069,0.0025,-0.0055,-0.0049,0.0027,0.0126,0.0222,0.0275,0.0313,0.0368,0.0393,0.0417,0.0574,0.0865,0.1206,0.1467,0.1555,0.1409,0.1118,0.0857,0.0687,0.0558,0.0382,0.0176,-0.0044,0.0731,0.0959,0.0862,0.0678,0.0588,0.0448,0.031,0.0187,0.0049,-0.0049,-0.0222,-0.064,-0.0786,-0.0547,-0.0459,-0.0467,-0.0459,-0.0437,-0.0409,-0.0319,-0.0124,0.0005,0.003,-0.0011,-0.0115,-0.017,-0.0148,0.0168,0.0409,0.0415,0.0467,0.0503,0.0525,0.058,0.0788,0.1074,0.139,0.1604,0.1629,0.1426,0.1121,0.0871,0.0731,0.0593,0.0423,0.0231,0.0019,0.0994,0.1123,0.0994,0.0769,0.0637,0.0459,0.0275,0.0129,0.0014,-0.0137,-0.0286,-0.0505,-0.0769,-0.0764,-0.0588,-0.0516,-0.0464,-0.042,-0.0385,-0.0283,-0.0096,0.0008,0.0022,-0.0011,-0.0077,-0.0058,0.0077,0.0596,0.0882,0.0813,0.0758,0.0725,0.0766,0.0846,0.1085,0.1387,0.1637,0.1763,0.1678,0.139,0.1066,0.0851,0.0753,0.064,0.0508,0.0363,0.0187]}],[{"header":{"parameterUnit":"m.s-1","parameterCategory":2,"la1":30.8641,"la2":29.7642,"lo1":-88.4676,"lo2":-86.9344,"dy":0.0333,"dx":0.0333,"nx":47,"ny":34,"refTime":"2024-12-21T00:00:00:Z","depth":"2","parameterNumber":2,"parameterNumberName":"U-component_of_CURRENTS"},"data":[0,0,0,0,0,0,0,0,0,0,0,0,0,0,0,0,0,0,0,0,0,0,0,0,0,0,0,0,0,0,0,0,0,0,0,0,0,0,0,0,0,0,0,0,0,0,0,0,0,0,0,0,0,0,0,0,0,0,0,0,0,0,0,0,0,0,0,0,0,0,0,0,0,0,0,0,0,0,0,0,0,0,0,0,0,0,0,0,0,0,0,0,0,0,0,0,0,0,0,0,0,0,0,0,0,0,0,0,0,0,0,0,0,0,0,0,0,0,0,0,0,0,0,0,0,0,0,0,0,0,0,0,0,0,0,0,0,0,0,0,0,0,0,0,0,0,0,0,0,0,0,0,0,0,0,0,0,0,0,0,0,0,0,0,0,0,0,0,0,0,0,0,0,0,0,0,0,0,0,0,0,0,0,0,0,0,0,0,0,0,0,0,0,0,0,0,0,0,0,0,0,0,0,0,0,0,0,0,0,0,0,0,0,0,0,0,0,0,0,0,0,0,0,0,0,0,0,0,0,0,0,0,0,0,0,0,0,0,0,0,0,0,0,0,0,0,0,0,0,0,0,0,0,0,0,0,0,0,0,0,0,0,0,0,0,0,0,0,0,0,0,0,0,0,0,0,0,0,0,0,0,0,0,0,0,0,0,0,0,0,0,0,0,0,0,0,0.0577,0.1151,0,0,0,0,0,0,0,0,0,0,0,0,0,0,0,0,0,0,0,0,0,0,0,0,0,0,0,0,0,0,0,0,0,0,0,0,0,0,0,0,0,0,0,0,0.0143,0.0643,0.0849,0.0692,0,0,0,0,0,0,0,0,0,0,0,0,0,0,0,0,0,0,0,0,0,0,0,0,0,0,0,0,0,0,0,0,0,0,0,0,0,0,0,0,0,0,0,0.019,0.0519,0.0527,0.0393,0,0,0,0,0,0,0,0,0,0,0,0,0,0,0,0,0,0,0,0,0,0,0,0,0,0,0,0,0,0,0,0,0,0,0,0,0,0,0,0,0,0,0.011,0.0225,0.0332,0.0393,0.0363,0,0,0,0,0,0,0,0,0,0,0,0,0,0,0,0,0,0,0,0,0,0,0,0,0,0,0,0,0,0,0,0,0,0,0,0,0,0,0,0,0,0,-0.0184,-0.0286,0.0038,0.0302,0.0327,0,0,0,0,0,0,0,0,0,0,0,0,0,0,0,0,0,0,0,0,0,0,0,0,0,0,0,0,0,0,0,0,0,0,0,0,0,0,0,0,0,0,0.0,-0.025,-0.0231,0.0143,0.0239,0,0,0,0,0,0,0,0,0,0,0,0,0,0,0,0,0,0,0,0,0,0,0,0,0,0,0,0,0,0,0,0,0,0,0,0,0,0,0,0,0,0,0.022,-0.0005,-0.0168,0.0124,0.0288,0,0,0,0,0,0,0,0,0,0,0,0,0,0,0,0,0,0,0,0,0,0,0,0,0,0,0.0036,0.0071,0,0,0,0,0,0,0,0,0,0,0,0,0,-0.0354,-0.0791,-0.0917,-0.0769,-0.0239,0.0102,0,0,0,0,0,0,0,0,0,0,0,0,0,0,0,0,0,0,0,0,0,0,-0.0423,-0.1222,-0.1387,-0.056,-0.0233,-0.0522,0,0,0,0,0,0,0,0,0,0,0,0,0,-0.0338,-0.1038,-0.1447,-0.1379,-0.0733,0.0222,0.0651,0,0,0,0,0,0,0,0,0,0,0,0,0,0,0,0,0,0,0,0,-0.0895,-0.1101,-0.0327,-0.0242,0,0,0,0,0,0,0,0,0.006,0.0516,0.0887,0,0,0,0,0,-0.061,-0.1546,-0.1832,-0.1728,-0.1244,-0.0129,0.0514,0.0385,0,0,0,0,0,0,0,0,0,0,0,0,0,0,0,0,0,0,-0.1813,-0.2239,0,0,0,0,0,0,0,0.0074,0,-0.0297,-0.0489,-0.0302,-0.0049,0.0121,0,0,0,0,0,-0.0942,-0.2326,-0.2714,-0.2442,-0.1813,-0.0865,-0.031,-0.0264,-0.0242,0,0,0,0,0,0,0,0,0,0,0,0,0,0,0,0,-0.0483,-0.0151,0,0,-0.0181,-0.0214,-0.0173,-0.0091,0.0025,0.0157,0.022,-0.1305,-0.1266,-0.1324,-0.1588,-0.1851,-0.206,-0.209,-0.2134,-0.2467,-0.273,-0.2683,-0.1505,-0.1099,-0.2046,-0.2033,-0.1541,-0.1307,-0.1209,-0.1038,-0.0816,-0.0662,0,0,0,0,0,0,0,0,0,0,0,0,-0.036,-0.1003,-0.1154,-0.0816,-0.0159,0.0286,0.0264,0.0181,0.0162,0.0162,0.0176,0.0184,0.019,0.0181,-0.1557,-0.1785,-0.2087,-0.2046,-0.1846,-0.15,-0.1247,-0.0981,-0.067,0,0,0,-0.1296,-0.2802,-0.2524,-0.1859,-0.1557,-0.1409,-0.1283,-0.1025,-0.0871,0,0,0,0,0,0,0,-0.0124,-0.0305,-0.0439,-0.056,-0.0711,-0.067,-0.0648,-0.0761,-0.0698,-0.0382,-0.0038,0.0038,0.0088,0.0132,0.0165,0.0179,0.0176,0.0157,0.0135,-0.0538,-0.0423,-0.1014,-0.1299,-0.1104,0,0,-0.0783,-0.1121,-0.0895,-0.1371,-0.1969,-0.0862,0.0582,0,0,0,0,0,0,0,0,-0.0036,-0.0077,-0.0082,-0.0107,-0.0168,-0.0286,-0.0341,-0.0349,-0.0398,-0.042,-0.0363,-0.0225,-0.0036,0.0113,0.0113,0.0027,-0.0052,-0.0055,0.0003,0.0049,0.0066,0.0058,0.0025,0.0,0.0025,0,0,-0.0626,-0.1522,-0.1774,-0.1917,-0.1862,-0.1439,-0.1272,-0.0978,-0.0467,-0.0266,0,0.0514,0.0637,0.0165,0.0041,-0.003,-0.0088,-0.0143,-0.0179,-0.0195,-0.0168,-0.0135,-0.0132,-0.0137,-0.0162,-0.0209,-0.0247,-0.0269,-0.0277,-0.0269,-0.0283,-0.0294,-0.0192,-0.0077,-0.0066,-0.011,-0.0154,-0.0151,-0.0148,-0.0157,-0.014,-0.0107,-0.0047,0.0052,0.0206,-0.0981,-0.1044,-0.1014,-0.122,-0.1697,-0.1928,-0.1956,-0.1879,-0.1722,-0.1437,-0.1041,-0.0538,-0.0805,-0.0728,-0.0168,-0.0055,-0.0077,-0.0135,-0.0173,-0.0209,-0.0236,-0.0244,-0.0233,-0.022,-0.022,-0.0217,-0.0209,-0.0179,-0.0132,-0.0107,-0.0184,-0.0253,-0.0203,-0.0148,-0.0115,-0.0091,-0.0132,-0.0187,-0.0211,-0.0228,-0.0231,-0.0203,-0.0159,-0.0082,0.0069,0.0327,0.0665,-0.084,-0.0846,-0.0764,-0.0629,-0.0519,-0.047,-0.0777,-0.1445,-0.1829,-0.1752,-0.1511,-0.1209,-0.0959,-0.0656,-0.0321,-0.0192,-0.0192,-0.0214,-0.0231,-0.0244,-0.0261,-0.0272,-0.0277,-0.0275,-0.0269,-0.025,-0.0214,-0.0159,-0.0099,-0.008,-0.0173,-0.0261,-0.0198,-0.0135,-0.0124,-0.0118,-0.014,-0.017,-0.0203,-0.0225,-0.0211,-0.0159,-0.0058,0.0143,0.0497,0.0939,0.1368,-0.0654,-0.0725,-0.0821,-0.0948,-0.0953,-0.0684,-0.0168,-0.0005,-0.0648,-0.1209,-0.1241,-0.1093,-0.0783,-0.0437,-0.0266,-0.0261,-0.0277,-0.0277,-0.0277,-0.0272,-0.0272,-0.0272,-0.0261,-0.0228,-0.0176,-0.0113,-0.0049,-0.0003,0.0016,-0.0008,-0.0129,-0.0297,-0.0396,-0.0426,-0.0332,-0.0162,-0.0082,-0.0055,-0.003,-0.0033,-0.0008,0.0099,0.0352,0.0755,0.1217,0.1686,0.2076,-0.0604,-0.0676,-0.0816,-0.1099,-0.1412,-0.1522,-0.1266,-0.0593,-0.0088,0.0044,0.0027,-0.0107,-0.0217,-0.0283,-0.0321,-0.0341,-0.0338,-0.0335,-0.033,-0.0313,-0.0294,-0.0272,-0.0236,-0.0179,-0.0102,-0.0027,0.003,0.0066,0.0102,0.0154,0.0206,0.011,-0.0244,-0.0525,-0.0445,-0.0187,0.008,0.0253,0.0291,0.0316,0.0522,0.0934,0.1384,0.1777,0.2137,0.2357,0.2425,-0.0464,-0.0423,-0.0404,-0.0492,-0.0783,-0.1145,-0.1335,-0.128,-0.1046,-0.0698,-0.0423,-0.0338,-0.0327,-0.0343,-0.036,-0.0368,-0.0374,-0.0379,-0.0382,-0.0368,-0.0346,-0.0324,-0.0299,-0.0253,-0.0184,-0.011,-0.0044,0.0022,0.0099,0.0198,0.0319,0.0459,0.058,0.0618,0.0563,0.0544,0.0665,0.0898,0.1272,0.1733,0.2118,0.2351,0.2516,0.2571,0.2513,0.2469,0.2414,-0.0211,-0.0118,-0.0022,0.0066,0.0104,0.0019,-0.0206,-0.0434,-0.0492,-0.0437,-0.0396,-0.0379,-0.0357,-0.0338,-0.0332,-0.0341,-0.0365,-0.039,-0.0409,-0.0409,-0.0398,-0.0382,-0.0357,-0.0305,-0.0231,-0.0151,-0.0071,0.0011,0.0091,0.0176,0.0272,0.0376,0.047,0.0538,0.0621,0.0805,0.1137,0.1579,0.2027,0.2362,0.2524,0.2565,0.2541,0.2508,0.245,0.2318,0.2159,0.0074,0.0077,0.0107,0.0154,0.0214,0.0316,0.0511,0.0415,0.0069,-0.0104,-0.0176,-0.0222,-0.0239,-0.0228,-0.0225,-0.0253,-0.0299,-0.0352,-0.039,-0.0398,-0.0376,-0.0341,-0.0297,-0.0244,-0.019,-0.0137,-0.0082,-0.0016,0.0058,0.0135,0.0211,0.0291,0.0371,0.0456,0.0599,0.0862,0.1233,0.1599,0.1868,0.2079,0.2219,0.2321,0.2384,0.2335,0.2219,0.2079,0.1939,0.0008,0.0003,0.0052,0.0181,0.0357,0.0519,0.0706,0.089,0.0829,0.0461,0.0118,0.0011,-0.0011,-0.0036,-0.0047,-0.0085,-0.0162,-0.0258,-0.033,-0.0349,-0.0319,-0.0264,-0.0206,-0.0165,-0.0148,-0.0137,-0.0107,-0.0055,0.0011,0.0082,0.0154,0.0222,0.0294,0.0426,0.0623,0.0882,0.1112,0.1335,0.1563,0.1791,0.2013,0.2142,0.2167,0.2098,0.2011,0.1931,0.1857,-0.0088,-0.0074,0.0063,0.0258,0.0434,0.0613,0.0816,0.1041,0.1316,0.159,0.1241,0.0434,0.0104,0.0115,0.0107,0.0077,0.0016,-0.0088,-0.0203,-0.0266,-0.0261,-0.0209,-0.0154,-0.0121,-0.0129,-0.0146,-0.0132,-0.0091,-0.0036,0.0019,0.0082,0.0148,0.0253,0.0437,0.0613,0.0714,0.0819,0.1035,0.1291,0.1527,0.1763,0.1887,0.1906,0.1895,0.1876,0.1849,0.1818,-0.0308,-0.0176,0.0038,0.019,0.0294,0.0398,0.0547,0.0703,0.089,0.1222,0.1579,0.1442,0.0742,0.0261,0.0203,0.0187,0.0162,0.0107,0.0016,-0.0074,-0.0115,-0.0115,-0.0104,-0.0102,-0.0115,-0.0146,-0.0168,-0.0159,-0.0118,-0.0049,0.003,0.0132,0.0327,0.0461,0.0428,0.0494,0.0687,0.0926,0.1211,0.1472,0.1667,0.1763,0.1788,0.1818,0.1862,0.1881,0.1868,-0.0357,-0.0052,0.017,0.0294,0.0448,0.056,0.0656,0.0761,0.084,0.0909,0.1118,0.128,0.1063,0.0599,0.0319,0.0272,0.0261,0.0255,0.0225,0.0162,0.0093,0.0036,-0.0022,-0.0074,-0.0102,-0.014,-0.0209,-0.0242,-0.0184,-0.0063,0.008,0.0255,0.039,0.0461,0.0519,0.0673,0.0931,0.117,0.1393,0.1593,0.1728,0.1772,0.1777,0.1799,0.1843,0.1892,0.1934,-0.0272,0.0102,0.0412,0.0549,0.0621,0.0681,0.0703,0.0739,0.0819,0.086,0.0956,0.1112,0.1129,0.089,0.0541,0.0357,0.0316,0.031,0.0305,0.0272,0.0222,0.0179,0.0137,0.0077,-0.0003,-0.014,-0.0341,-0.0393,-0.0211,0.0041,0.0258,0.0481,0.0656,0.0769,0.0926,0.1137,0.1368,0.1563,0.1692,0.1761,0.1777,0.1761,0.1736,0.1736,0.178,0.1857,0.1942,-0.0088,0.0203,0.042,0.0552,0.0566,0.0569,0.0588,0.0604,0.0637,0.0654,0.067,0.0791,0.095,0.0937,0.0676,0.0426,0.0346,0.0324,0.0302,0.0264,0.0236,0.0228,0.0233,0.0253,0.0277,0.0316,0.0275,0.0228,0.0321,0.0481,0.0645,0.0829,0.1,0.1173,0.1387,0.161,0.1813,0.1945,0.1964,0.1887,0.1774,0.17,0.1651,0.1621,0.1664,0.1766,0.1901]},{"header":{"parameterUnit":"m.s-1","parameterCategory":2,"la1":30.8641,"la2":29.7642,"lo1":-88.4676,"lo2":-86.9344,"dy":0.0333,"dx":0.0333,"nx":47,"ny":34,"refTime":"2024-12-21T00:00:00:Z","depth":"2","parameterNumber":3,"parameterNumberName":"V-component_of_CURRENTS"},"data":[0,0,0,0,0,0,0,0,0,0,0,0,0,0,0,0,0,0,0,0,0,0,0,0,0,0,0,0,0,0,0,0,0,0,0,0,0,0,0,0,0,0,0,0,0,0,0,0,0,0,0,0,0,0,0,0,0,0,0,0,0,0,0,0,0,0,0,0,0,0,0,0,0,0,0,0,0,0,0,0,0,0,0,0,0,0,0,0,0,0,0,0,0,0,0,0,0,0,0,0,0,0,0,0,0,0,0,0,0,0,0,0,0,0,0,0,0,0,0,0,0,0,0,0,0,0,0,0,0,0,0,0,0,0,0,0,0,0,0,0,0,0,0,0,0,0,0,0,0,0,0,0,0,0,0,0,0,0,0,0,0,0,0,0,0,0,0,0,0,0,0,0,0,0,0,0,0,0,0,0,0,0,0,0,0,0,0,0,0,0,0,0,0,0,0,0,0,0,0,0,0,0,0,0,0,0,0,0,0,0,0,0,0,0,0,0,0,0,0,0,0,0,0,0,0,0,0,0,0,0,0,0,0,0,0,0,0,0,0,0,0,0,0,0,0,0,0,0,0,0,0,0,0,0,0,0,0,0,0,0,0,0,0,0,0,0,0,0,0,0,0,0,0,0,0,0,0,0,0,0,0,0,0,0,0,0,0,0,0,0,0,0,0,0,0,0,0.1101,-0.145,0,0,0,0,0,0,0,0,0,0,0,0,0,0,0,0,0,0,0,0,0,0,0,0,0,0,0,0,0,0,0,0,0,0,0,0,0,0,0,0,0,0,0,0,0.0247,0.0201,-0.1607,-0.0956,0,0,0,0,0,0,0,0,0,0,0,0,0,0,0,0,0,0,0,0,0,0,0,0,0,0,0,0,0,0,0,0,0,0,0,0,0,0,0,0,0,0,0,0.0082,-0.058,-0.1747,-0.1239,0,0,0,0,0,0,0,0,0,0,0,0,0,0,0,0,0,0,0,0,0,0,0,0,0,0,0,0,0,0,0,0,0,0,0,0,0,0,0,0,0,0,0.0209,-0.0115,-0.0588,-0.1835,-0.1739,0,0,0,0,0,0,0,0,0,0,0,0,0,0,0,0,0,0,0,0,0,0,0,0,0,0,0,0,0,0,0,0,0,0,0,0,0,0,0,0,0,0,0.0052,0.008,-0.0797,-0.2112,-0.212,0,0,0,0,0,0,0,0,0,0,0,0,0,0,0,0,0,0,0,0,0,0,0,0,0,0,0,0,0,0,0,0,0,0,0,0,0,0,0,0,0,0,-0.006,0.0244,-0.084,-0.2423,-0.242,0,0,0,0,0,0,0,0,0,0,0,0,0,0,0,0,0,0,0,0,0,0,0,0,0,0,0,0,0,0,0,0,0,0,0,0,0,0,0,0,0,0,-0.0047,-0.0049,-0.1066,-0.276,-0.2697,0,0,0,0,0,0,0,0,0,0,0,0,0,0,0,0,0,0,0,0,0,0,0,0,0,0,-0.0008,-0.0181,0,0,0,0,0,0,0,0,0,0,0,0,0,0.0066,0.0044,-0.022,-0.1445,-0.3054,-0.3063,0,0,0,0,0,0,0,0,0,0,0,0,0,0,0,0,0,0,0,0,0,0,-0.1025,-0.0505,-0.0264,0.0,-0.0003,-0.0091,0,0,0,0,0,0,0,0,0,0,0,0,0,-0.0176,0.0011,-0.0327,-0.1549,-0.2898,-0.3054,-0.0264,0,0,0,0,0,0,0,0,0,0,0,0,0,0,0,0,0,0,0,0,-0.1958,-0.0514,-0.0253,-0.0132,0,0,0,0,0,0,0,0,0.1192,0.0799,0.0651,0,0,0,0,0,-0.0821,-0.0203,-0.0667,-0.1752,-0.2587,-0.2469,0.0025,0.0374,0,0,0,0,0,0,0,0,0,0,0,0,0,0,0,0,0,0,-0.0802,-0.0981,0,0,0,0,0,0,0,0.0137,0,0.0401,0.1338,0.1121,0.0753,0.0742,0,0,0,0,0,-0.1783,-0.0063,-0.0915,-0.1728,-0.1634,-0.0898,0.0255,0.0277,-0.0222,0,0,0,0,0,0,0,0,0,0,0,0,0,0,0,0,-0.1351,-0.1335,0,0,-0.0148,-0.0063,-0.0003,0.0044,0.0085,0.0074,0.011,0.0132,0.0401,0.0799,0.0467,0.0233,0.0382,0.028,-0.0036,-0.1046,0.0,0.0,-0.1123,-0.0607,-0.106,-0.0868,-0.0297,0.0192,0.0195,0.0231,0.0019,0.0088,0,0,0,0,0,0,0,0,0,0,0,0,-0.0676,-0.0563,-0.0632,-0.1033,-0.1491,-0.008,-0.0206,-0.0143,-0.0049,0.0011,0.0052,0.0088,0.0082,0.008,0.0008,0.025,0.0308,-0.0305,-0.0492,-0.0036,0.014,0.0371,-0.0739,0,0,0,-0.2354,-0.1467,-0.0129,0.0077,0.0036,0.0096,0.014,0.0055,0.0044,0,0,0,0,0,0,0,-0.0187,-0.0154,-0.0225,-0.0179,-0.0104,-0.0382,-0.028,-0.0203,-0.0382,-0.0552,-0.0069,-0.0203,-0.0126,-0.0041,0.0008,0.0041,0.0071,0.0071,0.0071,-0.0058,0.0049,0.0363,-0.0077,-0.0124,0,0,0.0049,-0.0277,-0.0791,-0.0665,-0.0607,-0.1684,-0.2876,0,0,0,0,0,0,0,0,-0.011,-0.0063,-0.0063,-0.0124,-0.0151,-0.0206,-0.031,-0.0264,-0.0253,-0.0192,-0.0074,0.0,0.0099,0.0047,-0.0058,-0.0069,-0.0118,-0.0157,-0.0071,-0.0027,0.0,0.0025,0.0049,0.0058,0.0096,0,0,-0.0173,0.0096,0.0184,-0.0283,-0.0209,-0.0404,-0.0077,-0.0536,-0.0569,-0.0777,0,-0.359,-0.0937,-0.0247,-0.0157,-0.0126,-0.0121,-0.011,-0.0082,-0.0069,-0.0099,-0.0077,-0.0088,-0.0143,-0.0184,-0.0239,-0.0299,-0.0288,-0.0272,-0.0187,-0.0063,0.0099,0.0242,0.0011,-0.017,-0.0203,-0.0198,-0.0099,-0.0003,0.0005,0.0033,0.0058,0.0088,0.0129,0.0225,-0.0179,-0.0242,-0.0558,-0.022,-0.0137,-0.0206,-0.0093,0.0165,0.0126,-0.0201,-0.0448,-0.0857,-0.1027,-0.2552,-0.078,-0.0258,-0.0203,-0.0157,-0.0151,-0.0137,-0.0107,-0.0088,-0.0099,-0.0107,-0.0132,-0.0173,-0.0214,-0.025,-0.0264,-0.0264,-0.0266,-0.0148,-0.0033,0.0132,0.0228,-0.0107,-0.0272,-0.0269,-0.0187,-0.0038,0.0005,0.0025,0.0069,0.0132,0.0233,0.0346,0.0483,-0.0195,-0.0217,-0.0283,-0.019,-0.0102,-0.0181,0.0063,0.0376,0.0236,-0.0058,-0.033,-0.0654,-0.0898,-0.122,-0.0486,-0.0269,-0.0255,-0.0201,-0.0192,-0.0173,-0.0143,-0.0118,-0.0121,-0.0137,-0.0165,-0.019,-0.0203,-0.0203,-0.0201,-0.0231,-0.0283,-0.011,0.0074,0.0091,0.0033,-0.0261,-0.0324,-0.0261,-0.0146,-0.0058,-0.0011,0.0049,0.0148,0.0321,0.0547,0.0755,0.0843,-0.0255,-0.0225,-0.0181,-0.0041,0.0022,-0.0179,-0.0137,-0.0041,0.019,0.0066,-0.0132,-0.0332,-0.0492,-0.0483,-0.031,-0.0283,-0.0255,-0.0214,-0.0201,-0.0179,-0.0157,-0.0137,-0.0132,-0.0137,-0.0146,-0.0151,-0.0146,-0.0137,-0.0151,-0.0225,-0.033,-0.0195,0.0107,0.0041,-0.0157,-0.036,-0.0335,-0.0201,-0.0115,-0.0085,0.0014,0.017,0.0417,0.0747,0.0978,0.1052,0.0994,-0.031,-0.0297,-0.0231,-0.0038,0.0132,0.0027,-0.0176,-0.0321,-0.008,-0.0124,-0.0132,-0.0201,-0.0261,-0.0297,-0.0286,-0.0291,-0.0244,-0.0214,-0.019,-0.0165,-0.0146,-0.0124,-0.0099,-0.0069,-0.0047,-0.0044,-0.0047,-0.0058,-0.0088,-0.017,-0.0288,-0.0291,-0.0063,0.0016,-0.0151,-0.033,-0.0302,-0.0118,0.0016,0.0242,0.0492,0.0769,0.106,0.1236,0.1283,0.1203,0.1019,-0.0283,-0.028,-0.0244,-0.0107,0.0066,0.0126,0.0049,-0.0124,-0.0184,-0.025,-0.022,-0.0266,-0.0297,-0.0308,-0.0299,-0.0283,-0.0242,-0.0211,-0.0176,-0.014,-0.0113,-0.0085,-0.0041,0.0022,0.0063,0.0058,0.0036,0.0016,-0.0008,-0.0063,-0.014,-0.0187,-0.0126,0.0011,-0.0019,-0.0077,0.0069,0.0423,0.0744,0.1027,0.1266,0.1467,0.1533,0.1478,0.1349,0.12,0.0934,-0.0162,-0.0154,-0.0124,-0.006,0.0008,0.0038,0.003,0.0008,0.0025,-0.0058,-0.0146,-0.0222,-0.0264,-0.0286,-0.0294,-0.0283,-0.0253,-0.022,-0.017,-0.0118,-0.0082,-0.0055,0.0,0.0077,0.0124,0.0113,0.0091,0.0074,0.0055,0.0019,-0.0022,-0.0047,-0.0014,0.0058,0.0093,0.0286,0.0739,0.117,0.142,0.1516,0.1585,0.1574,0.1464,0.1349,0.1159,0.0926,0.0643,-0.0071,-0.0047,0.0019,0.011,0.0132,0.0093,-0.0014,0.0036,0.0121,-0.003,-0.0129,-0.0203,-0.0222,-0.0242,-0.0275,-0.0299,-0.0291,-0.0253,-0.0187,-0.0107,-0.006,-0.003,0.0025,0.0102,0.0143,0.0143,0.014,0.0129,0.011,0.008,0.0049,0.0025,0.0047,0.0118,0.0302,0.0676,0.111,0.1313,0.1384,0.1456,0.1464,0.1351,0.1211,0.1046,0.0879,0.0698,0.0445,-0.003,0.0055,0.0264,0.0409,0.0417,0.0343,0.0211,0.0244,0.0253,0.0014,-0.006,-0.0151,-0.0214,-0.0222,-0.0266,-0.033,-0.0357,-0.0327,-0.0231,-0.0113,-0.0041,0.0003,0.0058,0.0115,0.0137,0.0154,0.0173,0.0176,0.017,0.0143,0.0115,0.0088,0.0124,0.0349,0.0613,0.0846,0.1035,0.1162,0.1272,0.1332,0.1277,0.1099,0.0926,0.0816,0.0711,0.0571,0.0321,0.0038,0.0283,0.0552,0.0599,0.053,0.0448,0.0385,0.036,0.0261,0.0008,-0.0168,-0.0066,-0.0129,-0.0239,-0.0291,-0.0365,-0.042,-0.0417,-0.0321,-0.0162,-0.0044,0.0038,0.0091,0.0104,0.0099,0.0132,0.0173,0.0195,0.0209,0.0198,0.0184,0.0168,0.0313,0.0541,0.0651,0.0744,0.0931,0.1159,0.1335,0.1313,0.1148,0.0915,0.0755,0.0687,0.061,0.0459,0.0206,0.0132,0.0497,0.061,0.053,0.0459,0.0428,0.0368,0.0338,0.0239,0.011,-0.0294,-0.042,-0.0242,-0.0244,-0.0335,-0.0398,-0.0448,-0.047,-0.0412,-0.025,-0.0071,0.0052,0.0107,0.0077,0.0036,0.0069,0.0129,0.0181,0.022,0.0242,0.0244,0.028,0.042,0.0475,0.0516,0.0744,0.1035,0.131,0.1467,0.1368,0.111,0.0854,0.07,0.061,0.0489,0.0308,0.0074,0.0319,0.0714,0.0662,0.0538,0.0486,0.0442,0.0363,0.0297,0.0187,0.0154,-0.0203,-0.0766,-0.0615,-0.0321,-0.0376,-0.0426,-0.045,-0.0459,-0.0431,-0.0308,-0.0107,0.0038,0.0085,0.0041,-0.0038,-0.003,0.0044,0.0146,0.0242,0.0291,0.0332,0.0387,0.0412,0.0437,0.0593,0.0884,0.1222,0.1483,0.1571,0.1428,0.1134,0.0873,0.0703,0.0571,0.0396,0.0192,-0.0027,0.0728,0.0956,0.0862,0.0681,0.0591,0.045,0.0316,0.0192,0.0055,-0.0044,-0.0217,-0.0634,-0.078,-0.0544,-0.0453,-0.0459,-0.045,-0.0431,-0.0401,-0.031,-0.0115,0.0016,0.0044,0.0003,-0.0099,-0.0151,-0.0129,0.0187,0.0428,0.0434,0.0486,0.0522,0.0544,0.0599,0.0808,0.109,0.1404,0.1618,0.1645,0.1442,0.1137,0.0884,0.0744,0.0607,0.0437,0.0244,0.0036,0.0989,0.1123,0.0997,0.0775,0.0643,0.0464,0.028,0.0137,0.0022,-0.0132,-0.0277,-0.05,-0.0764,-0.0758,-0.0582,-0.0511,-0.0459,-0.0415,-0.0376,-0.0277,-0.0091,0.0014,0.003,0.0,-0.0066,-0.0047,0.0091,0.0607,0.0895,0.0829,0.0772,0.0742,0.0783,0.0862,0.1099,0.1401,0.1648,0.1774,0.1692,0.1404,0.1082,0.0868,0.0766,0.0654,0.0522,0.0379,0.0203]}],[{"header":{"parameterUnit":"m.s-1","parameterCategory":2,"la1":30.8641,"la2":29.7642,"lo1":-88.4676,"lo2":-86.9344,"dy":0.0333,"dx":0.0333,"nx":47,"ny":34,"refTime":"2024-12-21T00:00:00:Z","depth":"4","parameterNumber":2,"parameterNumberName":"U-component_of_CURRENTS"},"data":[0,0,0,0,0,0,0,0,0,0,0,0,0,0,0,0,0,0,0,0,0,0,0,0,0,0,0,0,0,0,0,0,0,0,0,0,0,0,0,0,0,0,0,0,0,0,0,0,0,0,0,0,0,0,0,0,0,0,0,0,0,0,0,0,0,0,0,0,0,0,0,0,0,0,0,0,0,0,0,0,0,0,0,0,0,0,0,0,0,0,0,0,0,0,0,0,0,0,0,0,0,0,0,0,0,0,0,0,0,0,0,0,0,0,0,0,0,0,0,0,0,0,0,0,0,0,0,0,0,0,0,0,0,0,0,0,0,0,0,0,0,0,0,0,0,0,0,0,0,0,0,0,0,0,0,0,0,0,0,0,0,0,0,0,0,0,0,0,0,0,0,0,0,0,0,0,0,0,0,0,0,0,0,0,0,0,0,0,0,0,0,0,0,0,0,0,0,0,0,0,0,0,0,0,0,0,0,0,0,0,0,0,0,0,0,0,0,0,0,0,0,0,0,0,0,0,0,0,0,0,0,0,0,0,0,0,0,0,0,0,0,0,0,0,0,0,0,0,0,0,0,0,0,0,0,0,0,0,0,0,0,0,0,0,0,0,0,0,0,0,0,0,0,0,0,0,0,0,0,0,0,0,0,0,0,0,0,0,0,0,0,0,0,0,0,0,0.0124,0.0244,0,0,0,0,0,0,0,0,0,0,0,0,0,0,0,0,0,0,0,0,0,0,0,0,0,0,0,0,0,0,0,0,0,0,0,0,0,0,0,0,0,0,0,0,-0.0332,-0.0316,-0.017,-0.0379,0,0,0,0,0,0,0,0,0,0,0,0,0,0,0,0,0,0,0,0,0,0,0,0,0,0,0,0,0,0,0,0,0,0,0,0,0,0,0,0,0,0,0,0.0288,0.0431,0.0272,0.0258,0,0,0,0,0,0,0,0,0,0,0,0,0,0,0,0,0,0,0,0,0,0,0,0,0,0,0,0,0,0,0,0,0,0,0,0,0,0,0,0,0,0,0.0225,0.0816,0.0906,0.0341,0.0096,0,0,0,0,0,0,0,0,0,0,0,0,0,0,0,0,0,0,0,0,0,0,0,0,0,0,0,0,0,0,0,0,0,0,0,0,0,0,0,0,0,0,0.0069,0.0711,0.1104,0.056,0.0198,0,0,0,0,0,0,0,0,0,0,0,0,0,0,0,0,0,0,0,0,0,0,0,0,0,0,0,0,0,0,0,0,0,0,0,0,0,0,0,0,0,0,0.0154,0.07,0.097,0.0494,0.0129,0,0,0,0,0,0,0,0,0,0,0,0,0,0,0,0,0,0,0,0,0,0,0,0,0,0,0,0,0,0,0,0,0,0,0,0,0,0,0,0,0,0,0.0585,0.0882,0.0983,0.0574,0.0286,0,0,0,0,0,0,0,0,0,0,0,0,0,0,0,0,0,0,0,0,0,0,0,0,0,0,0.0044,0.0085,0,0,0,0,0,0,0,0,0,0,0,0,0,-0.0211,-0.0401,-0.003,0.0445,0.0368,0.0165,0,0,0,0,0,0,0,0,0,0,0,0,0,0,0,0,0,0,0,0,0,0,-0.0379,-0.0313,0.0003,-0.0478,-0.0651,-0.0492,0,0,0,0,0,0,0,0,0,0,0,0,0,-0.014,-0.0442,-0.0481,-0.0036,0.0206,0.0063,-0.0011,0,0,0,0,0,0,0,0,0,0,0,0,0,0,0,0,0,0,0,0,-0.0632,-0.0742,0.0165,0.0549,0,0,0,0,0,0,0,0,0.0321,0.0857,0.1085,0,0,0,0,0,-0.0346,-0.0838,-0.0843,-0.0428,-0.0069,0.0255,0.0626,0.0538,0,0,0,0,0,0,0,0,0,0,0,0,0,0,0,0,0,0,-0.0426,-0.0497,0,0,0,0,0,0,0,0.008,0,-0.019,-0.0052,0.0393,0.0577,0.0662,0,0,0,0,0,-0.0709,-0.1659,-0.1901,-0.1758,-0.1214,-0.0305,0.0074,-0.0036,-0.0008,0,0,0,0,0,0,0,0,0,0,0,0,0,0,0,0,0.0396,0.0873,0,0,-0.0165,-0.0198,-0.0157,-0.0077,0.0038,0.017,0.0233,-0.1123,-0.0827,-0.0519,-0.05,-0.0525,-0.0571,-0.0541,-0.0319,-0.0426,-0.0772,-0.1134,-0.0684,-0.0629,-0.1456,-0.142,-0.0868,-0.0574,-0.0569,-0.0503,-0.0269,-0.0033,0,0,0,0,0,0,0,0,0,0,0,0,-0.0305,-0.0596,-0.0431,-0.0124,0.0266,0.0415,0.0272,0.0192,0.0176,0.0181,0.0192,0.0198,0.0203,0.0198,-0.1335,-0.1417,-0.139,-0.0961,-0.0459,-0.0211,-0.0179,0.0365,0.0967,0,0,0,-0.0923,-0.1843,-0.1555,-0.0997,-0.0588,-0.0379,-0.0346,-0.033,-0.0275,0,0,0,0,0,0,0,-0.0113,-0.0286,-0.0415,-0.0533,-0.0676,-0.0604,-0.0459,-0.0464,-0.0415,-0.0148,0.0025,0.0052,0.0104,0.0151,0.0181,0.0195,0.0192,0.0173,0.0151,-0.0341,-0.0363,-0.0709,-0.0582,-0.0198,0,0,-0.0261,-0.0033,0.0195,-0.0417,-0.1154,-0.0102,0.1329,0,0,0,0,0,0,0,0,-0.0027,-0.006,-0.0066,-0.0093,-0.0157,-0.0266,-0.0321,-0.033,-0.0374,-0.0393,-0.0338,-0.0206,-0.0016,0.0126,0.0124,0.0038,-0.0038,-0.0041,0.0022,0.0069,0.0085,0.0077,0.0047,0.0022,0.0047,0,0,-0.0492,-0.1082,-0.1027,-0.125,-0.1338,-0.0912,-0.0538,-0.0168,0.0316,0.0604,0,0.0472,0.0615,0.0184,0.006,-0.0008,-0.0069,-0.0121,-0.0157,-0.0173,-0.0148,-0.0118,-0.0115,-0.0124,-0.0146,-0.0192,-0.0228,-0.0247,-0.0253,-0.0242,-0.0255,-0.0266,-0.0168,-0.0055,-0.0047,-0.0093,-0.0137,-0.0132,-0.0126,-0.0132,-0.0118,-0.0082,-0.0025,0.0074,0.0228,-0.0942,-0.0994,-0.0942,-0.1063,-0.1428,-0.1629,-0.1648,-0.1566,-0.1401,-0.1085,-0.0662,-0.0217,-0.0305,-0.0272,-0.0036,-0.0038,-0.0058,-0.011,-0.0151,-0.0187,-0.0211,-0.022,-0.0211,-0.0201,-0.0201,-0.0201,-0.019,-0.0162,-0.0113,-0.0088,-0.0154,-0.022,-0.017,-0.0118,-0.0091,-0.0071,-0.0118,-0.017,-0.019,-0.0203,-0.0203,-0.0179,-0.0135,-0.0058,0.0093,0.0349,0.0687,-0.0808,-0.0808,-0.072,-0.0585,-0.0475,-0.0428,-0.0728,-0.1332,-0.1653,-0.1579,-0.1368,-0.1046,-0.0755,-0.0478,-0.0236,-0.0165,-0.017,-0.0192,-0.0209,-0.0222,-0.0236,-0.0247,-0.0253,-0.0253,-0.0247,-0.0231,-0.0195,-0.0137,-0.008,-0.0055,-0.0143,-0.0225,-0.0162,-0.0099,-0.0096,-0.0099,-0.0124,-0.0154,-0.0176,-0.0195,-0.0184,-0.0135,-0.003,0.0168,0.0522,0.0964,0.139,-0.0621,-0.0689,-0.0777,-0.0887,-0.0882,-0.0613,-0.0115,0.003,-0.061,-0.1156,-0.1192,-0.1057,-0.0755,-0.0417,-0.0244,-0.0236,-0.0253,-0.0253,-0.0253,-0.0247,-0.0244,-0.0244,-0.0236,-0.0206,-0.0154,-0.0091,-0.0027,0.0019,0.0038,0.0019,-0.0096,-0.0261,-0.0357,-0.0387,-0.0299,-0.014,-0.0066,-0.0036,-0.0003,-0.0003,0.0022,0.0126,0.0379,0.078,0.1241,0.1711,0.2098,-0.0571,-0.064,-0.0777,-0.1046,-0.134,-0.1437,-0.1187,-0.0538,-0.0052,0.0074,0.0052,-0.0088,-0.0198,-0.0258,-0.0294,-0.0313,-0.0313,-0.031,-0.0305,-0.0288,-0.0269,-0.0247,-0.0214,-0.0157,-0.0077,-0.0003,0.0052,0.0091,0.0126,0.0179,0.0231,0.014,-0.0211,-0.0486,-0.0409,-0.0157,0.0102,0.0275,0.0316,0.0343,0.0549,0.0961,0.1409,0.1805,0.2162,0.2381,0.2447,-0.0434,-0.0393,-0.0374,-0.0459,-0.0742,-0.1099,-0.1283,-0.1228,-0.1,-0.0656,-0.0393,-0.0313,-0.0302,-0.0316,-0.0332,-0.0341,-0.0346,-0.0354,-0.0354,-0.0343,-0.0321,-0.0299,-0.0272,-0.0225,-0.0159,-0.0082,-0.0016,0.0047,0.0124,0.022,0.0338,0.0478,0.0602,0.0643,0.0588,0.0571,0.0692,0.0926,0.1302,0.1763,0.2145,0.2379,0.2543,0.2596,0.2535,0.2491,0.2434,-0.0179,-0.0088,0.0008,0.0096,0.0132,0.0047,-0.0179,-0.0401,-0.0459,-0.0407,-0.0365,-0.0352,-0.033,-0.031,-0.0305,-0.0313,-0.0338,-0.0363,-0.0379,-0.0382,-0.0368,-0.0352,-0.0327,-0.0277,-0.0203,-0.0124,-0.0044,0.0036,0.0115,0.0198,0.0294,0.0398,0.0492,0.056,0.0643,0.0827,0.1165,0.1607,0.2057,0.239,0.2552,0.259,0.2563,0.253,0.2469,0.2337,0.2178,0.011,0.011,0.0137,0.0184,0.0242,0.0346,0.0536,0.0442,0.0096,-0.0077,-0.0148,-0.0195,-0.0211,-0.0201,-0.0198,-0.0222,-0.0272,-0.0324,-0.036,-0.0368,-0.0346,-0.031,-0.0266,-0.0214,-0.0159,-0.011,-0.0055,0.0011,0.0082,0.0159,0.0236,0.0316,0.0393,0.0478,0.0623,0.089,0.1261,0.1626,0.1895,0.2104,0.2244,0.2343,0.2406,0.2357,0.2241,0.2098,0.1958,0.0044,0.0036,0.0085,0.0214,0.0387,0.0549,0.0736,0.0923,0.0865,0.0494,0.0148,0.0041,0.0016,-0.0008,-0.0022,-0.0058,-0.0135,-0.0228,-0.0297,-0.0316,-0.0288,-0.0233,-0.0173,-0.0135,-0.0118,-0.0107,-0.0077,-0.0027,0.0038,0.0107,0.0179,0.0247,0.0319,0.0453,0.0651,0.0909,0.114,0.136,0.1588,0.1816,0.2038,0.2164,0.2186,0.2118,0.203,0.1953,0.1881,-0.0049,-0.0038,0.0099,0.0291,0.0467,0.0645,0.0849,0.1077,0.1349,0.1621,0.1272,0.0467,0.0137,0.0143,0.0129,0.0099,0.0041,-0.0055,-0.0168,-0.0233,-0.0228,-0.0179,-0.0121,-0.0088,-0.0096,-0.0113,-0.0102,-0.0063,-0.0011,0.0044,0.0107,0.0173,0.028,0.0467,0.064,0.0739,0.0843,0.106,0.1316,0.1552,0.1783,0.1903,0.1925,0.1914,0.1898,0.187,0.1843,-0.0269,-0.014,0.0074,0.0225,0.0327,0.0428,0.058,0.0736,0.0923,0.1255,0.1607,0.1469,0.0769,0.0288,0.0231,0.0209,0.0184,0.0135,0.0049,-0.0036,-0.0082,-0.0082,-0.0069,-0.0066,-0.008,-0.011,-0.0135,-0.0129,-0.0088,-0.0025,0.0058,0.0157,0.0354,0.0489,0.0453,0.0522,0.0711,0.095,0.1236,0.1494,0.1686,0.1783,0.1807,0.1838,0.1884,0.1903,0.1892,-0.0319,-0.0014,0.0206,0.033,0.0481,0.0593,0.0687,0.0791,0.0871,0.0945,0.1151,0.1307,0.1088,0.0623,0.0343,0.0294,0.0283,0.0277,0.0253,0.0195,0.0129,0.0071,0.0014,-0.0036,-0.0063,-0.0104,-0.0176,-0.0209,-0.0151,-0.0036,0.0104,0.028,0.0415,0.0489,0.0547,0.0698,0.0956,0.1195,0.1417,0.1615,0.1747,0.1791,0.1796,0.1818,0.1865,0.1914,0.1956,-0.0225,0.0148,0.045,0.0585,0.0654,0.0711,0.0733,0.0769,0.0846,0.0887,0.0983,0.1137,0.1151,0.0912,0.0563,0.0379,0.0341,0.0335,0.033,0.0299,0.0255,0.0211,0.017,0.011,0.003,-0.0104,-0.0302,-0.0357,-0.0176,0.0071,0.0288,0.0508,0.0684,0.0797,0.095,0.1162,0.1393,0.1588,0.1717,0.178,0.1796,0.178,0.1755,0.1755,0.1802,0.1879,0.1964,-0.0027,0.0253,0.0459,0.0585,0.0596,0.0599,0.0618,0.0634,0.0667,0.0681,0.0698,0.0816,0.0972,0.0956,0.0695,0.0448,0.0371,0.0349,0.0327,0.0291,0.0266,0.0261,0.0264,0.0283,0.0308,0.0343,0.0305,0.0258,0.0352,0.0511,0.0676,0.0857,0.1027,0.12,0.1415,0.1634,0.1838,0.1969,0.1989,0.1909,0.1794,0.1719,0.167,0.1643,0.1686,0.1788,0.192]},{"header":{"parameterUnit":"m.s-1","parameterCategory":2,"la1":30.8641,"la2":29.7642,"lo1":-88.4676,"lo2":-86.9344,"dy":0.0333,"dx":0.0333,"nx":47,"ny":34,"refTime":"2024-12-21T00:00:00:Z","depth":"4","parameterNumber":3,"parameterNumberName":"V-component_of_CURRENTS"},"data":[0,0,0,0,0,0,0,0,0,0,0,0,0,0,0,0,0,0,0,0,0,0,0,0,0,0,0,0,0,0,0,0,0,0,0,0,0,0,0,0,0,0,0,0,0,0,0,0,0,0,0,0,0,0,0,0,0,0,0,0,0,0,0,0,0,0,0,0,0,0,0,0,0,0,0,0,0,0,0,0,0,0,0,0,0,0,0,0,0,0,0,0,0,0,0,0,0,0,0,0,0,0,0,0,0,0,0,0,0,0,0,0,0,0,0,0,0,0,0,0,0,0,0,0,0,0,0,0,0,0,0,0,0,0,0,0,0,0,0,0,0,0,0,0,0,0,0,0,0,0,0,0,0,0,0,0,0,0,0,0,0,0,0,0,0,0,0,0,0,0,0,0,0,0,0,0,0,0,0,0,0,0,0,0,0,0,0,0,0,0,0,0,0,0,0,0,0,0,0,0,0,0,0,0,0,0,0,0,0,0,0,0,0,0,0,0,0,0,0,0,0,0,0,0,0,0,0,0,0,0,0,0,0,0,0,0,0,0,0,0,0,0,0,0,0,0,0,0,0,0,0,0,0,0,0,0,0,0,0,0,0,0,0,0,0,0,0,0,0,0,0,0,0,0,0,0,0,0,0,0,0,0,0,0,0,0,0,0,0,0,0,0,0,0,0,0,0.0074,-0.0549,0,0,0,0,0,0,0,0,0,0,0,0,0,0,0,0,0,0,0,0,0,0,0,0,0,0,0,0,0,0,0,0,0,0,0,0,0,0,0,0,0,0,0,0,-0.0901,0.0005,-0.0489,0.053,0,0,0,0,0,0,0,0,0,0,0,0,0,0,0,0,0,0,0,0,0,0,0,0,0,0,0,0,0,0,0,0,0,0,0,0,0,0,0,0,0,0,0,-0.058,-0.0266,-0.0569,0.028,0,0,0,0,0,0,0,0,0,0,0,0,0,0,0,0,0,0,0,0,0,0,0,0,0,0,0,0,0,0,0,0,0,0,0,0,0,0,0,0,0,0,0.0181,-0.0236,-0.0829,-0.0953,-0.008,0,0,0,0,0,0,0,0,0,0,0,0,0,0,0,0,0,0,0,0,0,0,0,0,0,0,0,0,0,0,0,0,0,0,0,0,0,0,0,0,0,0,0.0055,-0.0038,-0.1214,-0.1417,-0.0393,0,0,0,0,0,0,0,0,0,0,0,0,0,0,0,0,0,0,0,0,0,0,0,0,0,0,0,0,0,0,0,0,0,0,0,0,0,0,0,0,0,0,0.0176,0.0099,-0.1285,-0.1766,-0.064,0,0,0,0,0,0,0,0,0,0,0,0,0,0,0,0,0,0,0,0,0,0,0,0,0,0,0,0,0,0,0,0,0,0,0,0,0,0,0,0,0,0,0.0357,-0.0066,-0.1489,-0.2011,-0.0821,0,0,0,0,0,0,0,0,0,0,0,0,0,0,0,0,0,0,0,0,0,0,0,0,0,0,0.0011,-0.0168,0,0,0,0,0,0,0,0,0,0,0,0,0,0.0308,0.0277,-0.0198,-0.1522,-0.2162,-0.0997,0,0,0,0,0,0,0,0,0,0,0,0,0,0,0,0,0,0,0,0,0,0,-0.0975,-0.0206,0.0379,0.0,0.0005,-0.0082,0,0,0,0,0,0,0,0,0,0,0,0,0,0.0236,0.0137,-0.0349,-0.139,-0.1851,-0.1003,0.0159,0,0,0,0,0,0,0,0,0,0,0,0,0,0,0,0,0,0,0,0,-0.1437,-0.0489,-0.0104,0.019,0,0,0,0,0,0,0,0,0.0689,-0.0486,-0.0571,0,0,0,0,0,-0.0027,0.0008,-0.047,-0.12,-0.1338,-0.0961,0.0113,0.014,0,0,0,0,0,0,0,0,0,0,0,0,0,0,0,0,0,0,-0.0558,-0.0717,0,0,0,0,0,0,0,0.0148,0,0.0288,0.1049,0.0396,-0.0547,-0.0574,0,0,0,0,0,-0.1148,0.0118,-0.0538,-0.0915,-0.0772,-0.0393,-0.0066,0.008,-0.0409,0,0,0,0,0,0,0,0,0,0,0,0,0,0,0,0,-0.0777,-0.0676,0,0,-0.014,-0.0049,0.0011,0.0058,0.0102,0.0091,0.0124,0.0168,0.0382,0.0709,-0.0082,-0.0574,-0.0503,0.0324,0.031,0.0162,0.0,0.0,-0.0981,-0.0456,-0.0895,-0.0813,-0.0363,-0.0055,-0.0222,-0.0071,-0.0302,-0.0135,0,0,0,0,0,0,0,0,0,0,0,0,-0.0615,-0.0179,-0.0214,-0.0357,-0.0733,-0.0005,-0.0203,-0.0137,-0.0041,0.0022,0.0063,0.0102,0.0096,0.0093,0.0055,0.0308,0.045,-0.0258,-0.0115,-0.0209,0.0162,0.053,-0.0242,0,0,0,-0.2337,-0.1549,-0.0407,-0.017,-0.0129,-0.0121,-0.0085,-0.0082,-0.0066,0,0,0,0,0,0,0,-0.0173,-0.0137,-0.0209,-0.0157,-0.0085,-0.0349,-0.0159,-0.0052,-0.0228,-0.0396,-0.0041,-0.0198,-0.0115,-0.0027,0.0019,0.0055,0.0082,0.008,0.0077,-0.0027,0.0071,0.0453,0.0038,0.0354,0,0,0.0198,-0.0341,-0.0481,-0.0687,-0.0508,-0.1769,-0.2206,0,0,0,0,0,0,0,0,-0.0102,-0.0052,-0.0049,-0.0107,-0.0137,-0.019,-0.0294,-0.0247,-0.0236,-0.0173,-0.0055,0.0022,0.0113,0.0058,-0.0047,-0.0058,-0.0104,-0.014,-0.0055,-0.0014,0.0011,0.0036,0.0058,0.0063,0.0099,0,0,-0.0148,0.0129,0.0225,-0.0036,-0.0011,-0.0173,0.0074,-0.0297,-0.0514,-0.0695,0,-0.2131,-0.0659,-0.0244,-0.014,-0.011,-0.0104,-0.0093,-0.0066,-0.0055,-0.0088,-0.0066,-0.0074,-0.0129,-0.017,-0.0225,-0.0283,-0.0272,-0.0255,-0.0173,-0.0047,0.0113,0.0255,0.0027,-0.0154,-0.0184,-0.0179,-0.0082,0.0005,0.0014,0.0038,0.006,0.0091,0.0132,0.0228,-0.0165,-0.022,-0.0527,-0.0181,-0.0077,-0.0113,-0.0003,0.0247,0.0211,-0.0099,-0.033,-0.0755,-0.0769,-0.1761,-0.067,-0.0253,-0.0187,-0.0143,-0.0137,-0.0121,-0.0091,-0.0071,-0.0082,-0.0093,-0.0115,-0.0159,-0.0203,-0.0236,-0.025,-0.025,-0.0253,-0.0137,-0.0022,0.0143,0.0239,-0.0093,-0.0255,-0.0253,-0.0173,-0.003,0.0011,0.003,0.0074,0.0135,0.0239,0.0349,0.0489,-0.0181,-0.0198,-0.0266,-0.0173,-0.0091,-0.0173,0.0069,0.0396,0.0275,-0.0003,-0.0269,-0.0582,-0.0786,-0.1096,-0.0461,-0.0261,-0.0242,-0.0187,-0.0179,-0.0159,-0.0129,-0.0102,-0.0104,-0.0121,-0.0148,-0.0173,-0.019,-0.019,-0.0187,-0.022,-0.0269,-0.0099,0.0088,0.0104,0.0047,-0.0247,-0.0313,-0.025,-0.0137,-0.0049,-0.0003,0.0058,0.0157,0.0327,0.0552,0.0761,0.0849,-0.0236,-0.0209,-0.0165,-0.0025,0.0041,-0.0159,-0.0129,-0.0036,0.0201,0.008,-0.0113,-0.031,-0.0472,-0.047,-0.0302,-0.0272,-0.0244,-0.0203,-0.019,-0.0168,-0.0146,-0.0124,-0.0118,-0.0121,-0.0132,-0.0137,-0.0132,-0.0126,-0.014,-0.0217,-0.0319,-0.0179,0.0121,0.0055,-0.014,-0.0346,-0.0324,-0.0192,-0.0107,-0.0074,0.0022,0.0176,0.042,0.075,0.0981,0.1055,0.0997,-0.0294,-0.028,-0.0217,-0.0025,0.0148,0.0047,-0.0157,-0.0308,-0.0069,-0.0113,-0.0121,-0.0187,-0.025,-0.0286,-0.0277,-0.0283,-0.0236,-0.0206,-0.0181,-0.0157,-0.0135,-0.0115,-0.0091,-0.006,-0.0038,-0.0038,-0.0044,-0.0055,-0.0088,-0.0168,-0.0283,-0.0283,-0.0052,0.0033,-0.0135,-0.0313,-0.0288,-0.011,0.0022,0.0244,0.0494,0.0772,0.1063,0.1236,0.1283,0.1209,0.1025,-0.0272,-0.0272,-0.0233,-0.0102,0.0071,0.0137,0.0066,-0.0104,-0.0168,-0.0233,-0.0206,-0.0255,-0.0288,-0.0299,-0.0291,-0.0275,-0.0233,-0.0206,-0.017,-0.0135,-0.0107,-0.0082,-0.0038,0.0022,0.0063,0.0055,0.0033,0.0014,-0.0011,-0.0066,-0.0143,-0.0187,-0.0126,0.0016,-0.0014,-0.0069,0.0077,0.0426,0.0742,0.1025,0.1263,0.1464,0.153,0.1475,0.1351,0.1203,0.0939,-0.0159,-0.0154,-0.0126,-0.006,0.0005,0.0038,0.0033,0.0016,0.0033,-0.0047,-0.0137,-0.0214,-0.0258,-0.028,-0.0286,-0.0277,-0.0247,-0.0214,-0.0168,-0.0115,-0.008,-0.0055,0.0,0.0077,0.0121,0.011,0.0091,0.0074,0.0052,0.0019,-0.0025,-0.0049,-0.0016,0.0055,0.0091,0.0283,0.0733,0.1165,0.1417,0.1513,0.1582,0.1574,0.1464,0.1351,0.1167,0.0934,0.0648,-0.0077,-0.0052,0.0014,0.0102,0.0126,0.0088,-0.0016,0.0033,0.0121,-0.0027,-0.0126,-0.0198,-0.022,-0.0239,-0.0272,-0.0294,-0.0286,-0.025,-0.0184,-0.0107,-0.006,-0.003,0.0025,0.0104,0.0146,0.0143,0.014,0.0132,0.011,0.0082,0.0049,0.0025,0.0047,0.0115,0.0297,0.067,0.1104,0.131,0.1384,0.1456,0.1467,0.1354,0.1217,0.1055,0.0887,0.0706,0.0453,-0.0036,0.0049,0.0255,0.0401,0.0409,0.0335,0.0203,0.0236,0.0244,0.0008,-0.0063,-0.0151,-0.0214,-0.0222,-0.0266,-0.0327,-0.0352,-0.0321,-0.0228,-0.011,-0.0041,0.0005,0.006,0.0118,0.014,0.0154,0.0176,0.0176,0.017,0.0143,0.0118,0.0088,0.0124,0.0349,0.061,0.0843,0.1033,0.1162,0.1274,0.1335,0.1283,0.1107,0.0937,0.0827,0.072,0.058,0.033,0.003,0.0275,0.0544,0.0591,0.0525,0.0442,0.0379,0.0354,0.0255,0.0,-0.017,-0.0069,-0.0132,-0.0239,-0.0291,-0.0365,-0.0417,-0.0412,-0.0316,-0.0157,-0.0038,0.0044,0.0096,0.011,0.0102,0.0135,0.0173,0.0198,0.0209,0.0201,0.0184,0.0168,0.0313,0.0541,0.0651,0.0747,0.0934,0.1162,0.1338,0.1318,0.1156,0.0926,0.0766,0.0698,0.0618,0.0464,0.0211,0.0124,0.0486,0.0602,0.0522,0.0456,0.0423,0.0363,0.0335,0.0233,0.0107,-0.0297,-0.0423,-0.0244,-0.0247,-0.0335,-0.0398,-0.0448,-0.0467,-0.0407,-0.0242,-0.0066,0.0058,0.0113,0.0082,0.0041,0.0074,0.0135,0.0187,0.0222,0.0244,0.0247,0.028,0.0423,0.0478,0.0519,0.0747,0.1041,0.1316,0.1469,0.1373,0.1115,0.086,0.0706,0.0615,0.0494,0.0313,0.008,0.0308,0.0703,0.0656,0.0533,0.0481,0.0437,0.036,0.0294,0.0184,0.0151,-0.0206,-0.0766,-0.0618,-0.0324,-0.0376,-0.0426,-0.045,-0.0459,-0.0428,-0.0305,-0.0102,0.0044,0.0091,0.0049,-0.003,-0.0022,0.0052,0.0154,0.0247,0.0297,0.0335,0.039,0.0417,0.0439,0.0599,0.0887,0.1228,0.1489,0.1577,0.1434,0.114,0.0879,0.0706,0.0574,0.0401,0.0195,-0.0022,0.0714,0.0945,0.0857,0.0676,0.0588,0.0448,0.0313,0.0192,0.0055,-0.0044,-0.0217,-0.0637,-0.0783,-0.0547,-0.0453,-0.0461,-0.0453,-0.0434,-0.0404,-0.031,-0.0115,0.0016,0.0044,0.0008,-0.0091,-0.0143,-0.0121,0.0195,0.0434,0.0442,0.0492,0.0527,0.0549,0.0604,0.081,0.1096,0.1409,0.1623,0.1648,0.1445,0.1143,0.089,0.0747,0.061,0.0439,0.0247,0.0038,0.0967,0.111,0.0992,0.0772,0.064,0.0464,0.028,0.0137,0.0025,-0.0132,-0.0277,-0.05,-0.0766,-0.0758,-0.0585,-0.0514,-0.0461,-0.0417,-0.0382,-0.028,-0.0096,0.0011,0.003,-0.0003,-0.0066,-0.0044,0.0093,0.0607,0.0895,0.0829,0.0775,0.0744,0.0786,0.0865,0.1101,0.1401,0.1651,0.1777,0.1695,0.1409,0.1085,0.0871,0.0772,0.0656,0.0525,0.0382,0.0206]}],[{"header":{"parameterUnit":"m.s-1","parameterCategory":2,"la1":30.8641,"la2":29.7642,"lo1":-88.4676,"lo2":-86.9344,"dy":0.0333,"dx":0.0333,"nx":47,"ny":34,"refTime":"2024-12-21T00:00:00:Z","depth":"6","parameterNumber":2,"parameterNumberName":"U-component_of_CURRENTS"},"data":[0,0,0,0,0,0,0,0,0,0,0,0,0,0,0,0,0,0,0,0,0,0,0,0,0,0,0,0,0,0,0,0,0,0,0,0,0,0,0,0,0,0,0,0,0,0,0,0,0,0,0,0,0,0,0,0,0,0,0,0,0,0,0,0,0,0,0,0,0,0,0,0,0,0,0,0,0,0,0,0,0,0,0,0,0,0,0,0,0,0,0,0,0,0,0,0,0,0,0,0,0,0,0,0,0,0,0,0,0,0,0,0,0,0,0,0,0,0,0,0,0,0,0,0,0,0,0,0,0,0,0,0,0,0,0,0,0,0,0,0,0,0,0,0,0,0,0,0,0,0,0,0,0,0,0,0,0,0,0,0,0,0,0,0,0,0,0,0,0,0,0,0,0,0,0,0,0,0,0,0,0,0,0,0,0,0,0,0,0,0,0,0,0,0,0,0,0,0,0,0,0,0,0,0,0,0,0,0,0,0,0,0,0,0,0,0,0,0,0,0,0,0,0,0,0,0,0,0,0,0,0,0,0,0,0,0,0,0,0,0,0,0,0,0,0,0,0,0,0,0,0,0,0,0,0,0,0,0,0,0,0,0,0,0,0,0,0,0,0,0,0,0,0,0,0,0,0,0,0,0,0,0,0,0,0,0,0,0,0,0,0,0,0,0,0,0,-0.008,-0.0162,0,0,0,0,0,0,0,0,0,0,0,0,0,0,0,0,0,0,0,0,0,0,0,0,0,0,0,0,0,0,0,0,0,0,0,0,0,0,0,0,0,0,0,0,-0.0206,-0.0445,-0.0552,-0.0651,0,0,0,0,0,0,0,0,0,0,0,0,0,0,0,0,0,0,0,0,0,0,0,0,0,0,0,0,0,0,0,0,0,0,0,0,0,0,0,0,0,0,0,0.0368,0.0569,0.0319,0.022,0,0,0,0,0,0,0,0,0,0,0,0,0,0,0,0,0,0,0,0,0,0,0,0,0,0,0,0,0,0,0,0,0,0,0,0,0,0,0,0,0,0,0.0146,0.039,0.0365,0.0261,0.0272,0,0,0,0,0,0,0,0,0,0,0,0,0,0,0,0,0,0,0,0,0,0,0,0,0,0,0,0,0,0,0,0,0,0,0,0,0,0,0,0,0,0,0.0096,0.0368,0.0445,0.0321,0.028,0,0,0,0,0,0,0,0,0,0,0,0,0,0,0,0,0,0,0,0,0,0,0,0,0,0,0,0,0,0,0,0,0,0,0,0,0,0,0,0,0,0,0.0272,0.0613,0.042,0.0181,0.0198,0,0,0,0,0,0,0,0,0,0,0,0,0,0,0,0,0,0,0,0,0,0,0,0,0,0,0,0,0,0,0,0,0,0,0,0,0,0,0,0,0,0,0.1535,0.1629,0.1079,0.0538,0.0481,0,0,0,0,0,0,0,0,0,0,0,0,0,0,0,0,0,0,0,0,0,0,0,0,0,0,0.0049,0.0102,0,0,0,0,0,0,0,0,0,0,0,0,0,0.0247,0.0838,0.1143,0.0824,0.0453,0.0387,0,0,0,0,0,0,0,0,0,0,0,0,0,0,0,0,0,0,0,0,0,0,0.0074,0.0203,0.0291,-0.0132,-0.0343,-0.0069,0,0,0,0,0,0,0,0,0,0,0,0,0,0.0228,0.0769,0.103,0.0566,0.0027,-0.0283,-0.0475,0,0,0,0,0,0,0,0,0,0,0,0,0,0,0,0,0,0,0,0,0.0442,0.0571,0.0335,0.0467,0,0,0,0,0,0,0,0,0.0393,0.0269,-0.0247,0,0,0,0,0,-0.0085,0.036,0.0928,0.0912,0.0937,0.0571,0.0179,0.028,0,0,0,0,0,0,0,0,0,0,0,0,0,0,0,0,0,0,0.0835,0.0926,0,0,0,0,0,0,0,0.0085,0,0.0148,0.0692,0.0678,-0.0209,-0.072,0,0,0,0,0,-0.0382,-0.0508,-0.0319,-0.0555,-0.0547,-0.0066,-0.0124,-0.0341,-0.0211,0,0,0,0,0,0,0,0,0,0,0,0,0,0,0,0,0.1096,0.0981,0,0,-0.0157,-0.019,-0.0148,-0.0069,0.0047,0.0176,0.0239,-0.0558,-0.0044,0.0376,0.006,-0.0297,0.0217,0.0634,0.0656,0.0695,0.0851,0.092,0.1044,0.0681,-0.0005,0.0019,-0.017,-0.0654,-0.0747,-0.0494,0.0014,0.0335,0,0,0,0,0,0,0,0,0,0,0,0,-0.0209,-0.0102,0.0272,0.0448,0.0514,0.0472,0.0275,0.0198,0.0184,0.019,0.0201,0.0206,0.0211,0.0206,-0.0994,-0.0813,-0.0275,0.0258,0.053,0.0755,0.0868,0.1151,0.1426,0,0,0,-0.008,-0.0135,-0.0005,0.003,0.006,0.036,0.0632,0.0577,0.045,0,0,0,0,0,0,0,-0.0107,-0.0272,-0.0396,-0.0508,-0.0643,-0.0503,-0.0203,-0.0113,-0.0074,0.0016,0.0088,0.0058,0.0113,0.0159,0.019,0.0201,0.0201,0.0181,0.0162,-0.0264,-0.0286,-0.0286,0.0214,0.0659,0,0,0.0426,0.111,0.1217,0.0832,0.0489,0.1115,0.192,0,0,0,0,0,0,0,0,-0.0022,-0.0049,-0.0058,-0.0085,-0.0148,-0.0255,-0.0308,-0.0316,-0.0357,-0.0376,-0.0327,-0.0198,-0.0008,0.0135,0.0126,0.0041,-0.0036,-0.0036,0.003,0.008,0.0096,0.0085,0.0058,0.0033,0.0058,0,0,-0.0346,-0.0739,-0.0582,-0.0536,-0.0651,-0.0104,0.0404,0.1003,0.1049,0.1057,0,0.0341,0.0525,0.0217,0.0077,0.0003,-0.0055,-0.0107,-0.0143,-0.0159,-0.0137,-0.0107,-0.0107,-0.0115,-0.0137,-0.0181,-0.0217,-0.0233,-0.0236,-0.0225,-0.0236,-0.0247,-0.0151,-0.0047,-0.0041,-0.0088,-0.0132,-0.0124,-0.0113,-0.0118,-0.0104,-0.0071,-0.0011,0.0088,0.0239,-0.0912,-0.0953,-0.0876,-0.0898,-0.106,-0.1189,-0.1283,-0.1162,-0.086,-0.0514,-0.0192,0.0211,0.0176,0.0157,0.0077,-0.0025,-0.0047,-0.0096,-0.0137,-0.017,-0.0195,-0.0203,-0.0198,-0.019,-0.0192,-0.0192,-0.0181,-0.0151,-0.0102,-0.0074,-0.0135,-0.0198,-0.0151,-0.0099,-0.0074,-0.0063,-0.0113,-0.0165,-0.0181,-0.0187,-0.0187,-0.0165,-0.0124,-0.0044,0.0104,0.0363,0.0698,-0.0786,-0.0777,-0.0681,-0.0544,-0.0439,-0.0379,-0.0634,-0.114,-0.1368,-0.1291,-0.1129,-0.0862,-0.0577,-0.0332,-0.0181,-0.0157,-0.0159,-0.0176,-0.0192,-0.0206,-0.0217,-0.0231,-0.0236,-0.0239,-0.0236,-0.022,-0.0184,-0.0126,-0.0069,-0.0041,-0.0121,-0.0198,-0.0137,-0.0077,-0.008,-0.0091,-0.0121,-0.0146,-0.0162,-0.0179,-0.0168,-0.0118,-0.0016,0.0181,0.0536,0.0978,0.1404,-0.0602,-0.0667,-0.0744,-0.0824,-0.078,-0.0464,0.0019,0.0096,-0.0566,-0.1082,-0.1115,-0.1011,-0.0733,-0.0407,-0.0233,-0.0225,-0.0236,-0.0239,-0.0239,-0.0233,-0.0231,-0.0231,-0.0222,-0.0192,-0.0143,-0.008,-0.0016,0.0033,0.0052,0.0033,-0.0074,-0.0233,-0.033,-0.0357,-0.0277,-0.0126,-0.006,-0.0027,0.0011,0.0014,0.0038,0.0143,0.0393,0.0797,0.1258,0.1725,0.2112,-0.0549,-0.0621,-0.0747,-0.1,-0.1252,-0.1299,-0.1049,-0.0467,-0.0022,0.0093,0.0066,-0.008,-0.0187,-0.0244,-0.0277,-0.0297,-0.0297,-0.0297,-0.0288,-0.0275,-0.0255,-0.0231,-0.0201,-0.0143,-0.0066,0.0011,0.0066,0.0104,0.014,0.019,0.0244,0.0157,-0.0187,-0.0461,-0.0387,-0.014,0.0113,0.0283,0.0327,0.036,0.0569,0.0978,0.1426,0.1818,0.2175,0.2392,0.2458,-0.0417,-0.0374,-0.0357,-0.0437,-0.0711,-0.1052,-0.1225,-0.117,-0.095,-0.0623,-0.0376,-0.0299,-0.0288,-0.0302,-0.0316,-0.0324,-0.033,-0.0338,-0.0341,-0.0327,-0.0308,-0.0283,-0.0255,-0.0211,-0.0143,-0.0069,-0.0003,0.006,0.0137,0.0231,0.0349,0.0489,0.0613,0.0654,0.0602,0.0585,0.0706,0.0945,0.1321,0.1783,0.2162,0.2395,0.2557,0.2609,0.2549,0.2502,0.2445,-0.0162,-0.0069,0.0025,0.0113,0.0146,0.006,-0.0162,-0.0382,-0.0439,-0.0387,-0.0352,-0.0335,-0.0316,-0.0297,-0.0288,-0.0297,-0.0321,-0.0346,-0.0365,-0.0365,-0.0352,-0.0335,-0.0308,-0.0258,-0.0187,-0.0107,-0.003,0.0049,0.0129,0.0211,0.0305,0.0407,0.05,0.0571,0.0654,0.0838,0.1181,0.1626,0.2076,0.2409,0.2568,0.2607,0.2576,0.2543,0.2483,0.2348,0.2186,0.0129,0.0129,0.0154,0.0201,0.0258,0.036,0.0549,0.0456,0.0113,-0.0063,-0.0132,-0.0179,-0.0198,-0.0187,-0.0184,-0.0209,-0.0255,-0.0305,-0.0341,-0.0349,-0.033,-0.0294,-0.0247,-0.0195,-0.0143,-0.0093,-0.0038,0.0025,0.0096,0.017,0.025,0.0327,0.0404,0.0492,0.0637,0.0904,0.1277,0.1645,0.1912,0.212,0.2258,0.2357,0.2417,0.2365,0.225,0.2109,0.1969,0.0066,0.0055,0.0104,0.0233,0.0407,0.0569,0.0758,0.0948,0.0893,0.0519,0.0165,0.0055,0.003,0.0005,-0.0008,-0.0044,-0.0118,-0.0209,-0.0277,-0.0297,-0.0269,-0.0217,-0.0157,-0.0115,-0.0099,-0.0088,-0.006,-0.0011,0.0052,0.0121,0.0192,0.0261,0.0332,0.0467,0.0667,0.0923,0.1154,0.1373,0.1599,0.1827,0.2049,0.2175,0.2195,0.2129,0.2041,0.1964,0.1892,-0.0027,-0.0016,0.0118,0.0313,0.0489,0.0665,0.0871,0.1099,0.1371,0.1637,0.1291,0.0489,0.0157,0.0159,0.0143,0.011,0.0055,-0.0038,-0.0146,-0.0211,-0.0206,-0.0159,-0.0102,-0.0069,-0.0077,-0.0093,-0.0082,-0.0047,0.0003,0.0058,0.0118,0.0187,0.0297,0.0481,0.0654,0.0753,0.0857,0.1074,0.1329,0.1563,0.1794,0.1914,0.1934,0.1925,0.1909,0.1884,0.1857,-0.0244,-0.0118,0.0093,0.0244,0.0346,0.0448,0.0596,0.0755,0.0945,0.1274,0.1623,0.1483,0.0783,0.0305,0.0242,0.022,0.0195,0.0148,0.0071,-0.0014,-0.006,-0.006,-0.0049,-0.0044,-0.0058,-0.0091,-0.0115,-0.0113,-0.0074,-0.0011,0.0069,0.0173,0.0368,0.0503,0.047,0.0536,0.0725,0.0964,0.1247,0.1505,0.1695,0.1791,0.1816,0.1849,0.1895,0.1914,0.1906,-0.0297,0.0011,0.0231,0.0352,0.05,0.0613,0.0706,0.081,0.089,0.0967,0.1173,0.1324,0.1099,0.0634,0.0354,0.0305,0.0294,0.0291,0.0269,0.0214,0.0148,0.0093,0.0036,-0.0014,-0.0041,-0.0085,-0.0154,-0.019,-0.0135,-0.0019,0.0118,0.0297,0.0431,0.0503,0.056,0.0711,0.097,0.1209,0.1431,0.1626,0.1755,0.1796,0.1805,0.1829,0.1876,0.1925,0.1967,-0.0179,0.0192,0.0481,0.0607,0.0673,0.0731,0.075,0.0786,0.0862,0.0904,0.0997,0.1148,0.1162,0.092,0.0571,0.039,0.0349,0.0343,0.0341,0.0316,0.0275,0.0233,0.019,0.0132,0.0052,-0.008,-0.028,-0.0335,-0.0157,0.0091,0.0305,0.0522,0.0698,0.081,0.0964,0.1176,0.1406,0.1601,0.1728,0.1791,0.1805,0.1785,0.1763,0.1766,0.1813,0.189,0.1975,0.0058,0.0313,0.0489,0.0607,0.0615,0.0618,0.0634,0.0651,0.0684,0.0698,0.0711,0.0827,0.0981,0.0964,0.0703,0.0456,0.0382,0.036,0.0338,0.0308,0.0286,0.028,0.0283,0.0299,0.0324,0.036,0.0321,0.0277,0.0371,0.0527,0.0689,0.0871,0.1041,0.1214,0.1428,0.1645,0.1851,0.1983,0.2,0.192,0.1802,0.1728,0.1678,0.1653,0.1697,0.1799,0.1931]},{"header":{"parameterUnit":"m.s-1","parameterCategory":2,"la1":30.8641,"la2":29.7642,"lo1":-88.4676,"lo2":-86.9344,"dy":0.0333,"dx":0.0333,"nx":47,"ny":34,"refTime":"2024-12-21T00:00:00:Z","depth":"6","parameterNumber":3,"parameterNumberName":"V-component_of_CURRENTS"},"data":[0,0,0,0,0,0,0,0,0,0,0,0,0,0,0,0,0,0,0,0,0,0,0,0,0,0,0,0,0,0,0,0,0,0,0,0,0,0,0,0,0,0,0,0,0,0,0,0,0,0,0,0,0,0,0,0,0,0,0,0,0,0,0,0,0,0,0,0,0,0,0,0,0,0,0,0,0,0,0,0,0,0,0,0,0,0,0,0,0,0,0,0,0,0,0,0,0,0,0,0,0,0,0,0,0,0,0,0,0,0,0,0,0,0,0,0,0,0,0,0,0,0,0,0,0,0,0,0,0,0,0,0,0,0,0,0,0,0,0,0,0,0,0,0,0,0,0,0,0,0,0,0,0,0,0,0,0,0,0,0,0,0,0,0,0,0,0,0,0,0,0,0,0,0,0,0,0,0,0,0,0,0,0,0,0,0,0,0,0,0,0,0,0,0,0,0,0,0,0,0,0,0,0,0,0,0,0,0,0,0,0,0,0,0,0,0,0,0,0,0,0,0,0,0,0,0,0,0,0,0,0,0,0,0,0,0,0,0,0,0,0,0,0,0,0,0,0,0,0,0,0,0,0,0,0,0,0,0,0,0,0,0,0,0,0,0,0,0,0,0,0,0,0,0,0,0,0,0,0,0,0,0,0,0,0,0,0,0,0,0,0,0,0,0,0,0,-0.0379,0.0516,0,0,0,0,0,0,0,0,0,0,0,0,0,0,0,0,0,0,0,0,0,0,0,0,0,0,0,0,0,0,0,0,0,0,0,0,0,0,0,0,0,0,0,0,-0.1082,0.006,0.0492,0.086,0,0,0,0,0,0,0,0,0,0,0,0,0,0,0,0,0,0,0,0,0,0,0,0,0,0,0,0,0,0,0,0,0,0,0,0,0,0,0,0,0,0,0,-0.0786,0.0352,0.0253,0.0945,0,0,0,0,0,0,0,0,0,0,0,0,0,0,0,0,0,0,0,0,0,0,0,0,0,0,0,0,0,0,0,0,0,0,0,0,0,0,0,0,0,0,0.0242,-0.0341,0.0044,0.0038,0.1022,0,0,0,0,0,0,0,0,0,0,0,0,0,0,0,0,0,0,0,0,0,0,0,0,0,0,0,0,0,0,0,0,0,0,0,0,0,0,0,0,0,0,0.0324,-0.0036,-0.0195,-0.0066,0.0975,0,0,0,0,0,0,0,0,0,0,0,0,0,0,0,0,0,0,0,0,0,0,0,0,0,0,0,0,0,0,0,0,0,0,0,0,0,0,0,0,0,0,0.0503,0.0085,-0.0415,-0.0255,0.0882,0,0,0,0,0,0,0,0,0,0,0,0,0,0,0,0,0,0,0,0,0,0,0,0,0,0,0,0,0,0,0,0,0,0,0,0,0,0,0,0,0,0,0.0772,-0.0052,-0.0725,-0.0376,0.0766,0,0,0,0,0,0,0,0,0,0,0,0,0,0,0,0,0,0,0,0,0,0,0,0,0,0,0.0025,-0.0148,0,0,0,0,0,0,0,0,0,0,0,0,0,0.1203,0.0731,-0.0385,-0.0893,-0.0217,0.0821,0,0,0,0,0,0,0,0,0,0,0,0,0,0,0,0,0,0,0,0,0,0,-0.0467,-0.0041,0.061,0.0,0.0014,-0.0074,0,0,0,0,0,0,0,0,0,0,0,0,0,0.0972,0.042,-0.0596,-0.0972,-0.0146,0.0706,0.0206,0,0,0,0,0,0,0,0,0,0,0,0,0,0,0,0,0,0,0,0,0.0632,-0.0233,-0.0022,0.0305,0,0,0,0,0,0,0,0,-0.0206,-0.1123,-0.1489,0,0,0,0,0,0.0794,0.047,-0.0324,-0.053,0.0168,0.0363,-0.0154,-0.0761,0,0,0,0,0,0,0,0,0,0,0,0,0,0,0,0,0,0,0.0305,0.0316,0,0,0,0,0,0,0,0.0159,0,-0.0335,-0.0288,-0.067,-0.1217,-0.1648,0,0,0,0,0,-0.0634,0.028,-0.0233,-0.022,0.0071,-0.0255,-0.0645,-0.0742,-0.0681,0,0,0,0,0,0,0,0,0,0,0,0,0,0,0,0,0.0316,0.0338,0,0,-0.0137,-0.0036,0.0022,0.0069,0.0113,0.0104,0.0135,0.0159,0.0047,0.0058,-0.1104,-0.0997,-0.1376,-0.089,-0.0956,-0.0423,0.0,0.0,-0.0934,-0.0538,-0.0835,-0.084,-0.0805,-0.0733,-0.0656,-0.0662,-0.0761,-0.0093,0,0,0,0,0,0,0,0,0,0,0,0,-0.0497,0.033,0.0349,0.042,0.0066,0.0011,-0.0201,-0.0135,-0.0036,0.0027,0.0071,0.011,0.0104,0.0102,0.0074,0.0332,0.0577,-0.0566,-0.0217,-0.047,-0.0445,-0.0475,-0.0912,0,0,0,-0.153,-0.1357,-0.0602,-0.0577,-0.0365,-0.0266,-0.0302,-0.0269,-0.0047,0,0,0,0,0,0,0,-0.0162,-0.0121,-0.0192,-0.014,-0.0074,-0.0305,0.0041,0.0096,-0.0022,-0.0201,-0.0019,-0.0195,-0.0107,-0.0019,0.0027,0.006,0.0091,0.0085,0.008,-0.0005,0.0118,0.0549,0.0099,0.0209,0,0,0.0102,-0.081,-0.0599,-0.145,-0.0882,-0.0986,-0.1557,0,0,0,0,0,0,0,0,-0.0096,-0.0044,-0.0038,-0.0093,-0.0124,-0.0176,-0.0277,-0.0233,-0.0222,-0.0159,-0.0041,0.0033,0.0121,0.0063,-0.0041,-0.0049,-0.0096,-0.0132,-0.0041,-0.0003,0.0019,0.0041,0.006,0.0066,0.0099,0,0,-0.0129,0.014,0.0203,0.0239,0.0173,0.0137,0.008,-0.0434,-0.1099,-0.1101,0,-0.1066,-0.0233,-0.0231,-0.0126,-0.0096,-0.0091,-0.008,-0.0052,-0.0041,-0.0077,-0.0055,-0.0063,-0.0115,-0.0159,-0.0211,-0.0269,-0.0258,-0.0242,-0.0159,-0.0036,0.0121,0.0264,0.0038,-0.0143,-0.0173,-0.0168,-0.0074,0.0011,0.0016,0.0041,0.006,0.0091,0.0129,0.0228,-0.0154,-0.0192,-0.0489,-0.0132,0.0005,0.006,0.0107,0.0343,0.0319,0.0025,-0.0203,-0.086,-0.0412,-0.0775,-0.0481,-0.0247,-0.0173,-0.0129,-0.0124,-0.011,-0.008,-0.0058,-0.0069,-0.008,-0.0104,-0.0148,-0.0192,-0.0228,-0.0239,-0.0239,-0.0242,-0.0129,-0.0014,0.0148,0.0247,-0.0082,-0.0244,-0.0242,-0.0165,-0.0027,0.0011,0.003,0.0074,0.0135,0.0236,0.0349,0.0486,-0.0168,-0.0176,-0.0244,-0.0151,-0.008,-0.0146,0.0022,0.0409,0.0324,0.0088,-0.0154,-0.0511,-0.064,-0.0873,-0.0437,-0.0255,-0.0231,-0.0176,-0.0168,-0.0148,-0.0118,-0.0091,-0.0091,-0.0107,-0.0135,-0.0162,-0.0179,-0.0179,-0.0176,-0.0211,-0.0264,-0.0091,0.0096,0.0113,0.0055,-0.0236,-0.0302,-0.0244,-0.0135,-0.0047,0.0,0.006,0.0157,0.0327,0.0549,0.0758,0.0846,-0.022,-0.019,-0.0148,-0.0003,0.0063,-0.0124,-0.0135,-0.0041,0.0211,0.0102,-0.008,-0.0283,-0.045,-0.0459,-0.0297,-0.0266,-0.0236,-0.0195,-0.0181,-0.0159,-0.0135,-0.0113,-0.0104,-0.011,-0.0118,-0.0126,-0.0124,-0.0118,-0.0135,-0.0209,-0.031,-0.017,0.0135,0.0069,-0.0129,-0.0335,-0.0316,-0.0187,-0.0104,-0.0071,0.0025,0.0179,0.042,0.0747,0.0978,0.1055,0.0997,-0.028,-0.0266,-0.0203,-0.0008,0.0168,0.0088,-0.0113,-0.0283,-0.006,-0.0102,-0.0115,-0.0179,-0.0239,-0.0277,-0.0272,-0.0275,-0.0228,-0.0201,-0.0176,-0.0151,-0.0129,-0.0107,-0.0082,-0.0055,-0.0036,-0.0038,-0.0044,-0.0058,-0.0088,-0.017,-0.0283,-0.0275,-0.0044,0.0041,-0.0121,-0.0302,-0.028,-0.0104,0.0022,0.0242,0.0492,0.0769,0.1057,0.1231,0.128,0.1206,0.1025,-0.0261,-0.0264,-0.0228,-0.0093,0.008,0.0151,0.0085,-0.008,-0.0151,-0.0214,-0.0195,-0.0247,-0.028,-0.0294,-0.0286,-0.0269,-0.0228,-0.0201,-0.0168,-0.0132,-0.0104,-0.008,-0.0038,0.0019,0.0058,0.0049,0.0027,0.0008,-0.0016,-0.0069,-0.0148,-0.019,-0.0129,0.0016,-0.0011,-0.0066,0.008,0.0423,0.0731,0.1014,0.1255,0.1458,0.1524,0.1472,0.1349,0.1206,0.0942,-0.0157,-0.0154,-0.0126,-0.0063,0.0003,0.0036,0.0033,0.0022,0.0041,-0.0038,-0.0129,-0.0209,-0.0255,-0.0277,-0.0283,-0.0272,-0.0242,-0.0211,-0.0165,-0.0115,-0.008,-0.0055,-0.0005,0.0074,0.0118,0.0107,0.0088,0.0071,0.0049,0.0016,-0.0027,-0.0052,-0.0022,0.0049,0.0085,0.0277,0.0725,0.1154,0.1404,0.1502,0.1577,0.1568,0.1461,0.1351,0.1167,0.0937,0.0654,-0.008,-0.0058,0.0008,0.0096,0.0118,0.008,-0.0025,0.0027,0.0115,-0.003,-0.0126,-0.0195,-0.0217,-0.0239,-0.0269,-0.0294,-0.0283,-0.0247,-0.0184,-0.0107,-0.006,-0.0033,0.0025,0.0102,0.0146,0.0143,0.014,0.0129,0.011,0.008,0.0049,0.0025,0.0044,0.0113,0.0291,0.0665,0.1096,0.1302,0.1379,0.145,0.1464,0.1354,0.122,0.106,0.0893,0.0711,0.0456,-0.0044,0.0041,0.0247,0.039,0.0398,0.0327,0.0195,0.0225,0.0231,-0.0003,-0.0069,-0.0154,-0.0217,-0.0222,-0.0266,-0.0327,-0.0349,-0.0319,-0.0228,-0.011,-0.0041,0.0005,0.006,0.0118,0.014,0.0154,0.0173,0.0173,0.0168,0.0143,0.0115,0.0088,0.0121,0.0343,0.0604,0.0838,0.103,0.1159,0.1272,0.1335,0.1285,0.111,0.0945,0.0835,0.0728,0.0585,0.0332,0.0022,0.0264,0.0533,0.058,0.0514,0.0431,0.0368,0.0343,0.0242,-0.0014,-0.0179,-0.0077,-0.0135,-0.0242,-0.0294,-0.0365,-0.0415,-0.0409,-0.0313,-0.0154,-0.0036,0.0047,0.0099,0.011,0.0102,0.0135,0.0173,0.0195,0.0209,0.0198,0.0181,0.0165,0.0308,0.0536,0.0651,0.0747,0.0934,0.1165,0.134,0.1321,0.1159,0.0931,0.0772,0.0703,0.0621,0.047,0.0217,0.0113,0.0475,0.0593,0.0516,0.045,0.0417,0.0357,0.0327,0.0228,0.0096,-0.0305,-0.0431,-0.0247,-0.0247,-0.0338,-0.0401,-0.0448,-0.0467,-0.0404,-0.0239,-0.006,0.0063,0.0118,0.0088,0.0041,0.0077,0.0137,0.0187,0.0222,0.0244,0.0244,0.0277,0.042,0.0478,0.0522,0.075,0.1044,0.1318,0.1472,0.1376,0.1121,0.0865,0.0709,0.0618,0.0497,0.0316,0.0085,0.0294,0.0689,0.0648,0.0527,0.0475,0.0434,0.0354,0.0291,0.0181,0.0146,-0.0211,-0.0772,-0.0623,-0.0327,-0.0379,-0.0426,-0.045,-0.0461,-0.0428,-0.0302,-0.0096,0.0047,0.0093,0.0055,-0.0025,-0.0016,0.0058,0.0157,0.0253,0.0302,0.0338,0.0393,0.042,0.0445,0.0602,0.089,0.1228,0.1489,0.1579,0.1434,0.1143,0.0882,0.0709,0.0577,0.0401,0.0198,-0.0022,0.0678,0.092,0.0846,0.067,0.0582,0.0445,0.031,0.019,0.0052,-0.0047,-0.022,-0.064,-0.0788,-0.0549,-0.0456,-0.0461,-0.0453,-0.0437,-0.0407,-0.031,-0.0115,0.0016,0.0044,0.0008,-0.0088,-0.0135,-0.0113,0.0201,0.0439,0.0445,0.0494,0.053,0.0552,0.0607,0.0813,0.1096,0.1409,0.1623,0.1651,0.1447,0.1143,0.0893,0.075,0.061,0.0439,0.0247,0.0038,0.0901,0.1079,0.0981,0.0769,0.064,0.0461,0.028,0.0137,0.0025,-0.0132,-0.0277,-0.0503,-0.0769,-0.0761,-0.0588,-0.0516,-0.0464,-0.042,-0.0385,-0.0286,-0.0102,0.0008,0.0027,-0.0005,-0.0069,-0.0047,0.0093,0.0607,0.0893,0.0829,0.0775,0.0747,0.0788,0.0865,0.1101,0.1401,0.1651,0.1777,0.1695,0.1412,0.1088,0.0873,0.0772,0.0659,0.0527,0.0382,0.0206]}],[{"header":{"parameterUnit":"m.s-1","parameterCategory":2,"la1":30.8641,"la2":29.7642,"lo1":-88.4676,"lo2":-86.9344,"dy":0.0333,"dx":0.0333,"nx":47,"ny":34,"refTime":"2024-12-21T00:00:00:Z","depth":"8","parameterNumber":2,"parameterNumberName":"U-component_of_CURRENTS"},"data":[0,0,0,0,0,0,0,0,0,0,0,0,0,0,0,0,0,0,0,0,0,0,0,0,0,0,0,0,0,0,0,0,0,0,0,0,0,0,0,0,0,0,0,0,0,0,0,0,0,0,0,0,0,0,0,0,0,0,0,0,0,0,0,0,0,0,0,0,0,0,0,0,0,0,0,0,0,0,0,0,0,0,0,0,0,0,0,0,0,0,0,0,0,0,0,0,0,0,0,0,0,0,0,0,0,0,0,0,0,0,0,0,0,0,0,0,0,0,0,0,0,0,0,0,0,0,0,0,0,0,0,0,0,0,0,0,0,0,0,0,0,0,0,0,0,0,0,0,0,0,0,0,0,0,0,0,0,0,0,0,0,0,0,0,0,0,0,0,0,0,0,0,0,0,0,0,0,0,0,0,0,0,0,0,0,0,0,0,0,0,0,0,0,0,0,0,0,0,0,0,0,0,0,0,0,0,0,0,0,0,0,0,0,0,0,0,0,0,0,0,0,0,0,0,0,0,0,0,0,0,0,0,0,0,0,0,0,0,0,0,0,0,0,0,0,0,0,0,0,0,0,0,0,0,0,0,0,0,0,0,0,0,0,0,0,0,0,0,0,0,0,0,0,0,0,0,0,0,0,0,0,0,0,0,0,0,0,0,0,0,0,0,0,0,0,0,-0.0179,-0.036,0,0,0,0,0,0,0,0,0,0,0,0,0,0,0,0,0,0,0,0,0,0,0,0,0,0,0,0,0,0,0,0,0,0,0,0,0,0,0,0,0,0,0,0,-0.0058,-0.0459,-0.0566,-0.0327,0,0,0,0,0,0,0,0,0,0,0,0,0,0,0,0,0,0,0,0,0,0,0,0,0,0,0,0,0,0,0,0,0,0,0,0,0,0,0,0,0,0,0,0.0066,-0.0052,-0.0305,-0.0371,0,0,0,0,0,0,0,0,0,0,0,0,0,0,0,0,0,0,0,0,0,0,0,0,0,0,0,0,0,0,0,0,0,0,0,0,0,0,0,0,0,0,0.0217,0.0371,0.0206,0.0033,-0.0038,0,0,0,0,0,0,0,0,0,0,0,0,0,0,0,0,0,0,0,0,0,0,0,0,0,0,0,0,0,0,0,0,0,0,0,0,0,0,0,0,0,0,0.0121,0.0354,0.0368,0.008,-0.0096,0,0,0,0,0,0,0,0,0,0,0,0,0,0,0,0,0,0,0,0,0,0,0,0,0,0,0,0,0,0,0,0,0,0,0,0,0,0,0,0,0,0,0.0121,0.0266,0.0236,0.0036,-0.0085,0,0,0,0,0,0,0,0,0,0,0,0,0,0,0,0,0,0,0,0,0,0,0,0,0,0,0,0,0,0,0,0,0,0,0,0,0,0,0,0,0,0,0.0475,0.0343,0.0157,0.0063,0.0016,0,0,0,0,0,0,0,0,0,0,0,0,0,0,0,0,0,0,0,0,0,0,0,0,0,0,0.006,0.0121,0,0,0,0,0,0,0,0,0,0,0,0,0,0.0206,0.0621,0.0623,0.0283,0.0121,0.0088,0,0,0,0,0,0,0,0,0,0,0,0,0,0,0,0,0,0,0,0,0,0,-0.003,-0.0118,0.0217,0.0558,0.045,0.0404,0,0,0,0,0,0,0,0,0,0,0,0,0,0.0338,0.0783,0.078,0.0596,0.0335,-0.0121,-0.0396,0,0,0,0,0,0,0,0,0,0,0,0,0,0,0,0,0,0,0,0,0.0206,0.0497,0.0332,0.008,0,0,0,0,0,0,0,0,0.0132,-0.0038,-0.0349,0,0,0,0,0,0.036,0.0904,0.0827,0.0747,0.0829,0.0346,-0.0036,0.0118,0,0,0,0,0,0,0,0,0,0,0,0,0,0,0,0,0,0,0.0093,0.0244,0,0,0,0,0,0,0,0.0085,0,0.0456,0.0904,0.0481,-0.0041,-0.0168,0,0,0,0,0,0.0159,0.0799,0.0961,0.0673,0.056,0.0354,0.0374,0.0379,0.0313,0,0,0,0,0,0,0,0,0,0,0,0,0,0,0,0,0.0192,0.0055,0,0,-0.0146,-0.0184,-0.0143,-0.006,0.0052,0.0181,0.0244,0.0393,0.0602,0.045,0.0316,0.0415,0.0645,0.0651,0.0478,0.0305,0.0146,0.0277,0.0725,0.1022,0.0901,0.0602,0.058,0.0689,0.0739,0.0659,0.0522,0.0456,0,0,0,0,0,0,0,0,0,0,0,0,0.0077,0.0379,0.0497,0.0376,0.0294,0.0437,0.0275,0.0201,0.019,0.0198,0.0206,0.0211,0.0214,0.0211,-0.0346,-0.0203,0.0393,0.0637,0.0574,0.0684,0.0882,0.1126,0.1132,0,0,0,0.0332,0.0387,0.0192,0.0415,0.0555,0.0492,0.0489,0.0569,0.0604,0,0,0,0,0,0,0,-0.0099,-0.0255,-0.0374,-0.0483,-0.0486,-0.0239,0.0118,0.0305,0.0291,0.0187,0.0102,0.0063,0.0118,0.0165,0.0195,0.0206,0.0203,0.0187,0.0168,-0.011,-0.0247,0.0143,0.0552,0.0538,0,0,0.0308,0.081,0.0687,0.0233,0.0091,0.0396,0.0711,0,0,0,0,0,0,0,0,-0.0019,-0.0041,-0.0049,-0.0082,-0.0146,-0.0244,-0.0297,-0.0305,-0.0341,-0.0363,-0.0316,-0.0187,0.0003,0.014,0.0129,0.0041,-0.0036,-0.0036,0.0033,0.0088,0.0102,0.0093,0.0063,0.0041,0.0066,0,0,-0.011,-0.0135,0.0008,-0.0025,0.0071,0.0797,0.1,0.072,0.0604,0.056,0,0.0192,0.0374,0.0244,0.0088,0.0014,-0.0044,-0.0096,-0.0129,-0.0146,-0.0126,-0.0099,-0.0102,-0.0113,-0.0132,-0.0173,-0.0209,-0.0222,-0.0222,-0.0209,-0.0222,-0.0233,-0.014,-0.0041,-0.0036,-0.0088,-0.0129,-0.0118,-0.0104,-0.011,-0.0096,-0.006,0.0,0.0096,0.0247,-0.0851,-0.0849,-0.0742,-0.0651,-0.0772,-0.0788,-0.075,-0.0596,-0.0181,0.0357,0.0577,0.0211,0.0173,0.0283,0.0179,0.0016,-0.0033,-0.0085,-0.0124,-0.0157,-0.0179,-0.019,-0.0187,-0.0181,-0.0184,-0.0187,-0.0176,-0.0146,-0.0096,-0.0066,-0.0118,-0.0179,-0.0135,-0.0082,-0.0063,-0.006,-0.011,-0.0162,-0.0176,-0.0176,-0.0176,-0.0154,-0.0113,-0.0033,0.0115,0.0371,0.0706,-0.0755,-0.0731,-0.0618,-0.0467,-0.0365,-0.0324,-0.053,-0.0912,-0.1025,-0.0898,-0.0673,-0.0324,-0.0173,-0.0157,-0.0129,-0.0148,-0.0151,-0.0165,-0.0181,-0.0192,-0.0203,-0.0214,-0.0225,-0.0231,-0.0228,-0.0214,-0.0176,-0.0121,-0.006,-0.003,-0.0104,-0.0176,-0.0113,-0.0055,-0.0069,-0.0088,-0.0121,-0.0143,-0.0154,-0.0165,-0.0157,-0.0107,-0.0008,0.0192,0.0547,0.0986,0.1412,-0.0585,-0.0645,-0.07,-0.0725,-0.0615,-0.0192,0.0321,0.0242,-0.0467,-0.0923,-0.0981,-0.0904,-0.0676,-0.0387,-0.0228,-0.0214,-0.0225,-0.0228,-0.0228,-0.0222,-0.0217,-0.0217,-0.0209,-0.0184,-0.0135,-0.0071,-0.0008,0.0041,0.006,0.0047,-0.0058,-0.0211,-0.0305,-0.033,-0.0258,-0.0121,-0.0058,-0.0025,0.0019,0.0027,0.0052,0.0154,0.0404,0.0808,0.1269,0.1733,0.212,-0.0536,-0.0602,-0.0722,-0.0931,-0.1099,-0.1033,-0.0747,-0.0261,0.0107,0.017,0.0071,-0.0077,-0.0181,-0.0239,-0.0266,-0.0283,-0.0286,-0.0286,-0.0277,-0.0264,-0.0244,-0.0222,-0.019,-0.0132,-0.0055,0.0019,0.0077,0.0113,0.0148,0.0198,0.0253,0.017,-0.0168,-0.0437,-0.0368,-0.0129,0.0121,0.0288,0.0335,0.0371,0.0582,0.0992,0.1437,0.1829,0.2186,0.2403,0.2467,-0.0404,-0.0363,-0.0343,-0.042,-0.0667,-0.0961,-0.1107,-0.1068,-0.0868,-0.0577,-0.0363,-0.0294,-0.028,-0.0291,-0.0305,-0.031,-0.0319,-0.0327,-0.033,-0.0316,-0.0297,-0.0272,-0.0244,-0.0198,-0.0129,-0.0058,0.0008,0.0071,0.0146,0.0236,0.0354,0.0492,0.0618,0.0662,0.0613,0.0596,0.072,0.0961,0.1346,0.1805,0.2178,0.2409,0.2568,0.262,0.2557,0.251,0.245,-0.0148,-0.0058,0.0036,0.0124,0.0154,0.0069,-0.0154,-0.0368,-0.0426,-0.0376,-0.0341,-0.0324,-0.0305,-0.0286,-0.0277,-0.0286,-0.031,-0.0335,-0.0352,-0.0354,-0.0341,-0.0321,-0.0294,-0.0244,-0.0173,-0.0096,-0.0019,0.006,0.0137,0.022,0.0313,0.0415,0.0508,0.0577,0.0659,0.0846,0.1195,0.1645,0.2101,0.2428,0.2582,0.2615,0.2585,0.2552,0.2488,0.2354,0.2192,0.0143,0.0143,0.0168,0.0211,0.0269,0.0371,0.0558,0.0464,0.0121,-0.0055,-0.0124,-0.0168,-0.0187,-0.0179,-0.0173,-0.0198,-0.0244,-0.0294,-0.033,-0.0335,-0.0316,-0.028,-0.0233,-0.0181,-0.0132,-0.0082,-0.0027,0.0036,0.0104,0.0179,0.0255,0.0335,0.0412,0.0497,0.0645,0.0915,0.1291,0.1659,0.1925,0.2131,0.2269,0.2365,0.2425,0.2373,0.2258,0.2118,0.1978,0.0082,0.0071,0.0118,0.0247,0.042,0.0582,0.0775,0.0975,0.0937,0.0555,0.0179,0.0063,0.0038,0.0014,-0.0003,-0.0036,-0.0107,-0.0192,-0.0261,-0.0283,-0.0255,-0.0203,-0.0143,-0.0102,-0.0085,-0.0077,-0.0049,-0.0003,0.006,0.0129,0.0198,0.0269,0.0341,0.0478,0.0678,0.0934,0.1165,0.1382,0.161,0.1835,0.2057,0.2181,0.2203,0.2134,0.2049,0.1972,0.1901,-0.0008,0.0003,0.0137,0.033,0.0505,0.0684,0.089,0.1132,0.1373,0.1618,0.1324,0.053,0.017,0.0168,0.0148,0.0118,0.0063,-0.0025,-0.0129,-0.0192,-0.0192,-0.0146,-0.0088,-0.0055,-0.0063,-0.008,-0.0069,-0.0036,0.0011,0.0066,0.0126,0.0195,0.0308,0.0494,0.0665,0.0764,0.0865,0.1082,0.1338,0.1571,0.1799,0.1917,0.1939,0.1931,0.1917,0.1892,0.1868,-0.0225,-0.0102,0.011,0.0258,0.036,0.0461,0.061,0.0775,0.0975,0.1299,0.1582,0.1439,0.0794,0.0313,0.025,0.0228,0.0201,0.0159,0.0085,0.0003,-0.0044,-0.0047,-0.0033,-0.0027,-0.0041,-0.0074,-0.0102,-0.0099,-0.0063,0.0,0.008,0.0181,0.0379,0.0514,0.0478,0.0544,0.0733,0.0972,0.1258,0.1511,0.17,0.1794,0.1821,0.1857,0.1903,0.1923,0.1914,-0.0272,0.0038,0.0255,0.0368,0.0516,0.0626,0.072,0.0821,0.0904,0.1003,0.1225,0.1354,0.1107,0.064,0.036,0.0313,0.0299,0.0297,0.028,0.0228,0.0165,0.011,0.0052,0.0005,-0.0025,-0.0069,-0.014,-0.0173,-0.0121,-0.0008,0.0129,0.0305,0.0439,0.0514,0.0571,0.072,0.0978,0.122,0.1439,0.1634,0.1758,0.1802,0.181,0.1835,0.1884,0.1934,0.1975,-0.0104,0.0269,0.0516,0.0626,0.0689,0.0744,0.0764,0.0797,0.0873,0.0912,0.1003,0.1154,0.1167,0.0926,0.0577,0.0396,0.0357,0.0352,0.0349,0.0327,0.0288,0.0247,0.0203,0.0146,0.0069,-0.006,-0.0261,-0.0319,-0.014,0.0104,0.0316,0.0533,0.0706,0.0821,0.0975,0.1187,0.1415,0.1612,0.1739,0.1799,0.1807,0.1791,0.1769,0.1774,0.1821,0.1898,0.198,0.0173,0.0401,0.053,0.0623,0.0629,0.0632,0.0648,0.0662,0.0695,0.0706,0.072,0.0835,0.0986,0.0967,0.0706,0.0461,0.0387,0.0365,0.0346,0.0319,0.0299,0.0294,0.0297,0.031,0.0332,0.0371,0.0335,0.0291,0.0385,0.0541,0.0703,0.0882,0.1052,0.1222,0.1437,0.1656,0.1859,0.1991,0.2011,0.1925,0.1807,0.1733,0.1684,0.1662,0.1706,0.1807,0.1939]},{"header":{"parameterUnit":"m.s-1","parameterCategory":2,"la1":30.8641,"la2":29.7642,"lo1":-88.4676,"lo2":-86.9344,"dy":0.0333,"dx":0.0333,"nx":47,"ny":34,"refTime":"2024-12-21T00:00:00:Z","depth":"8","parameterNumber":3,"parameterNumberName":"V-component_of_CURRENTS"},"data":[0,0,0,0,0,0,0,0,0,0,0,0,0,0,0,0,0,0,0,0,0,0,0,0,0,0,0,0,0,0,0,0,0,0,0,0,0,0,0,0,0,0,0,0,0,0,0,0,0,0,0,0,0,0,0,0,0,0,0,0,0,0,0,0,0,0,0,0,0,0,0,0,0,0,0,0,0,0,0,0,0,0,0,0,0,0,0,0,0,0,0,0,0,0,0,0,0,0,0,0,0,0,0,0,0,0,0,0,0,0,0,0,0,0,0,0,0,0,0,0,0,0,0,0,0,0,0,0,0,0,0,0,0,0,0,0,0,0,0,0,0,0,0,0,0,0,0,0,0,0,0,0,0,0,0,0,0,0,0,0,0,0,0,0,0,0,0,0,0,0,0,0,0,0,0,0,0,0,0,0,0,0,0,0,0,0,0,0,0,0,0,0,0,0,0,0,0,0,0,0,0,0,0,0,0,0,0,0,0,0,0,0,0,0,0,0,0,0,0,0,0,0,0,0,0,0,0,0,0,0,0,0,0,0,0,0,0,0,0,0,0,0,0,0,0,0,0,0,0,0,0,0,0,0,0,0,0,0,0,0,0,0,0,0,0,0,0,0,0,0,0,0,0,0,0,0,0,0,0,0,0,0,0,0,0,0,0,0,0,0,0,0,0,0,0,0,-0.025,0.039,0,0,0,0,0,0,0,0,0,0,0,0,0,0,0,0,0,0,0,0,0,0,0,0,0,0,0,0,0,0,0,0,0,0,0,0,0,0,0,0,0,0,0,0,0.0115,0.0412,0.0407,0.0305,0,0,0,0,0,0,0,0,0,0,0,0,0,0,0,0,0,0,0,0,0,0,0,0,0,0,0,0,0,0,0,0,0,0,0,0,0,0,0,0,0,0,0,0.0277,0.0917,0.0547,0.0379,0,0,0,0,0,0,0,0,0,0,0,0,0,0,0,0,0,0,0,0,0,0,0,0,0,0,0,0,0,0,0,0,0,0,0,0,0,0,0,0,0,0,0.0525,0.0461,0.0821,0.0667,0.0434,0,0,0,0,0,0,0,0,0,0,0,0,0,0,0,0,0,0,0,0,0,0,0,0,0,0,0,0,0,0,0,0,0,0,0,0,0,0,0,0,0,0,0.0549,0.0621,0.0904,0.0684,0.047,0,0,0,0,0,0,0,0,0,0,0,0,0,0,0,0,0,0,0,0,0,0,0,0,0,0,0,0,0,0,0,0,0,0,0,0,0,0,0,0,0,0,0.0656,0.0788,0.0827,0.0662,0.0522,0,0,0,0,0,0,0,0,0,0,0,0,0,0,0,0,0,0,0,0,0,0,0,0,0,0,0,0,0,0,0,0,0,0,0,0,0,0,0,0,0,0,0.0753,0.0742,0.075,0.0637,0.0475,0,0,0,0,0,0,0,0,0,0,0,0,0,0,0,0,0,0,0,0,0,0,0,0,0,0,0.025,-0.0126,0,0,0,0,0,0,0,0,0,0,0,0,0,0.0689,0.0813,0.0656,0.0706,0.058,0.0404,0,0,0,0,0,0,0,0,0,0,0,0,0,0,0,0,0,0,0,0,0,0,0.0363,0.0313,0.0516,0.0,0.0124,-0.0063,0,0,0,0,0,0,0,0,0,0,0,0,0,0.1027,0.081,0.0582,0.0522,0.0437,0.0368,-0.0099,0,0,0,0,0,0,0,0,0,0,0,0,0,0,0,0,0,0,0,0,0.0519,0.0181,0.0157,0.0258,0,0,0,0,0,0,0,0,-0.0478,-0.0483,-0.0687,0,0,0,0,0,0.1365,0.0917,0.039,0.0302,0.0283,0.0266,-0.0118,-0.0571,0,0,0,0,0,0,0,0,0,0,0,0,0,0,0,0,0,0,0.0412,0.0258,0,0,0,0,0,0,0,0.0168,0,-0.0802,-0.0766,-0.0481,-0.0505,-0.0731,0,0,0,0,0,0.1115,0.0805,0.0211,0.014,0.0179,-0.0019,-0.025,-0.0341,-0.0302,0,0,0,0,0,0,0,0,0,0,0,0,0,0,0,0,0.0497,0.0478,0,0,-0.0132,-0.0027,0.003,0.0077,0.0121,0.0115,0.0146,-0.0096,-0.0464,-0.0475,-0.0319,-0.0214,-0.0385,0.0217,0.0077,0.0102,0.0,0.0,0.036,0.0121,-0.0077,0.0036,0.0157,-0.0036,-0.0135,-0.0003,-0.0099,0.0049,0,0,0,0,0,0,0,0,0,0,0,0,-0.0124,0.0569,0.0577,0.0607,0.0607,0.0088,-0.0201,-0.0132,-0.003,0.0033,0.0077,0.0115,0.0113,0.0107,-0.0019,0.0077,0.0217,0.0003,0.0203,0.0003,0.0107,-0.0305,-0.0569,0,0,0,-0.0283,-0.0277,-0.0003,0.0082,0.0063,0.0047,0.0055,0.0011,0.0025,0,0,0,0,0,0,0,-0.0148,-0.0107,-0.0173,-0.0126,-0.006,-0.0107,0.0269,0.025,0.0214,0.0019,-0.0011,-0.0192,-0.0099,-0.0014,0.0033,0.0069,0.0096,0.0091,0.0082,0.003,0.014,0.036,0.0124,-0.0187,0,0,-0.0231,-0.0695,-0.0049,-0.0124,-0.0052,-0.014,-0.0577,0,0,0,0,0,0,0,0,-0.0091,-0.0036,-0.0027,-0.0077,-0.0107,-0.0162,-0.0261,-0.0217,-0.0209,-0.0143,-0.003,0.0044,0.0129,0.0069,-0.0038,-0.0044,-0.0088,-0.0124,-0.0033,0.0005,0.0025,0.0047,0.0063,0.0066,0.0099,0,0,-0.0181,0.011,-0.0151,0.0398,0.0332,0.0338,-0.0291,-0.0124,-0.0187,-0.0291,0,-0.0442,0.0003,-0.0187,-0.0113,-0.008,-0.0077,-0.0063,-0.0038,-0.0025,-0.0069,-0.0044,-0.0049,-0.0104,-0.0146,-0.0201,-0.0255,-0.0247,-0.0231,-0.0148,-0.0027,0.0126,0.0269,0.0049,-0.0132,-0.0162,-0.0157,-0.0066,0.0014,0.0016,0.0041,0.006,0.0088,0.0126,0.0225,-0.0132,-0.008,-0.0407,-0.0066,0.0074,0.0168,0.0272,0.0439,0.0341,-0.0044,-0.0678,-0.0783,-0.006,-0.0129,-0.0176,-0.0228,-0.0159,-0.0118,-0.011,-0.0096,-0.0066,-0.0044,-0.0055,-0.0069,-0.0093,-0.0137,-0.0181,-0.0217,-0.0231,-0.0231,-0.0231,-0.0121,-0.0008,0.0154,0.0253,-0.0071,-0.0233,-0.0231,-0.0157,-0.0027,0.0011,0.0027,0.0071,0.0132,0.0236,0.0346,0.0483,-0.0151,-0.0129,-0.0209,-0.0104,-0.0063,-0.0113,-0.0085,0.0401,0.039,0.0176,-0.0038,-0.036,-0.0332,-0.0555,-0.039,-0.0253,-0.022,-0.0168,-0.0157,-0.0137,-0.0107,-0.0077,-0.0077,-0.0093,-0.0124,-0.0151,-0.0168,-0.0168,-0.0168,-0.0203,-0.0255,-0.0085,0.0102,0.0121,0.0063,-0.0228,-0.0294,-0.0239,-0.0132,-0.0047,0.0,0.006,0.0157,0.0327,0.0549,0.0755,0.0846,-0.0201,-0.0173,-0.0126,0.0041,0.0099,-0.0058,-0.0247,-0.0085,0.0154,0.0082,-0.0027,-0.022,-0.0396,-0.0437,-0.0291,-0.0261,-0.0228,-0.0187,-0.0173,-0.0151,-0.0126,-0.0102,-0.0093,-0.0096,-0.011,-0.0115,-0.0115,-0.0113,-0.0129,-0.0203,-0.0305,-0.0159,0.0143,0.008,-0.0118,-0.0327,-0.031,-0.0184,-0.0102,-0.0069,0.0027,0.0179,0.042,0.0744,0.0975,0.1052,0.0997,-0.0261,-0.025,-0.019,0.0014,0.0203,0.0173,-0.003,-0.0239,-0.0052,-0.0066,-0.011,-0.017,-0.0231,-0.0272,-0.0266,-0.0269,-0.0222,-0.0195,-0.017,-0.0146,-0.0124,-0.0102,-0.0077,-0.0049,-0.0033,-0.0036,-0.0044,-0.0058,-0.0091,-0.017,-0.028,-0.0272,-0.0038,0.0052,-0.0107,-0.0291,-0.0272,-0.0099,0.0019,0.0236,0.0483,0.0761,0.1049,0.1225,0.1277,0.1206,0.1025,-0.025,-0.0255,-0.022,-0.0088,0.0091,0.0176,0.0121,-0.0033,-0.0126,-0.0179,-0.0187,-0.0239,-0.0275,-0.0288,-0.0283,-0.0266,-0.0225,-0.0198,-0.0165,-0.0129,-0.0104,-0.008,-0.0038,0.0016,0.0055,0.0044,0.0022,0.0003,-0.0022,-0.0074,-0.0151,-0.0195,-0.0132,0.0016,-0.0008,-0.0063,0.008,0.0412,0.0698,0.0972,0.1236,0.1447,0.1516,0.1467,0.1346,0.1206,0.0942,-0.0157,-0.0154,-0.0129,-0.0066,0.0,0.0033,0.0036,0.0027,0.0047,-0.0033,-0.0124,-0.0206,-0.0253,-0.0275,-0.028,-0.0269,-0.0242,-0.0211,-0.0165,-0.0115,-0.0082,-0.0058,-0.0008,0.0069,0.0115,0.0104,0.0082,0.0066,0.0047,0.0014,-0.003,-0.0058,-0.0027,0.0041,0.008,0.0272,0.0714,0.1123,0.1373,0.1483,0.1566,0.156,0.1456,0.1351,0.117,0.0939,0.0656,-0.0085,-0.0063,0.0,0.0088,0.011,0.0071,-0.003,0.0019,0.011,-0.0033,-0.0126,-0.0195,-0.0217,-0.0239,-0.0269,-0.0291,-0.028,-0.0244,-0.0184,-0.0107,-0.0063,-0.0033,0.0022,0.0102,0.0143,0.014,0.0137,0.0126,0.0107,0.008,0.0047,0.0022,0.0041,0.011,0.0286,0.0656,0.1085,0.1288,0.1368,0.1445,0.1461,0.1354,0.1222,0.1066,0.0898,0.0717,0.0459,-0.0052,0.0033,0.0236,0.0379,0.0387,0.0316,0.0181,0.0192,0.0159,-0.0074,-0.008,-0.0154,-0.0217,-0.0225,-0.0266,-0.0327,-0.0349,-0.0316,-0.0225,-0.0113,-0.0041,0.0005,0.006,0.0118,0.014,0.0154,0.017,0.017,0.0165,0.014,0.0115,0.0085,0.0118,0.0338,0.0596,0.0829,0.1025,0.1156,0.1272,0.1335,0.1285,0.1115,0.095,0.084,0.0733,0.0591,0.0335,0.0014,0.0253,0.0519,0.0566,0.0503,0.042,0.0354,0.031,0.0165,-0.0162,-0.0302,-0.0143,-0.014,-0.0242,-0.0294,-0.0365,-0.0415,-0.0409,-0.031,-0.0151,-0.0033,0.0047,0.0099,0.0113,0.0102,0.0135,0.0173,0.0195,0.0206,0.0195,0.0179,0.0162,0.0302,0.053,0.0645,0.0744,0.0934,0.1165,0.134,0.1321,0.1165,0.0937,0.0777,0.0709,0.0626,0.0472,0.022,0.0099,0.0461,0.0582,0.0505,0.0442,0.0409,0.0352,0.0316,0.0203,0.0005,-0.0431,-0.05,-0.0255,-0.025,-0.0338,-0.0401,-0.045,-0.0467,-0.0401,-0.0233,-0.0055,0.0069,0.0121,0.0091,0.0044,0.0077,0.0137,0.019,0.0222,0.0242,0.0244,0.0275,0.042,0.0478,0.0522,0.075,0.1044,0.1318,0.1472,0.1379,0.1123,0.0868,0.0711,0.0621,0.05,0.0319,0.0085,0.0272,0.0659,0.0634,0.0519,0.047,0.0426,0.0352,0.0286,0.0176,0.0126,-0.025,-0.0797,-0.0629,-0.0332,-0.0382,-0.0428,-0.0453,-0.0464,-0.0428,-0.0299,-0.0093,0.0049,0.0096,0.0058,-0.0019,-0.0014,0.006,0.0162,0.0255,0.0305,0.0338,0.0393,0.042,0.0445,0.0602,0.0893,0.1231,0.1491,0.1579,0.1437,0.1145,0.0882,0.0709,0.0577,0.0401,0.0198,-0.0019,0.0602,0.0854,0.0824,0.0662,0.0577,0.0439,0.0308,0.0187,0.0049,-0.0049,-0.0222,-0.0645,-0.0791,-0.0555,-0.0461,-0.0464,-0.0456,-0.0439,-0.0409,-0.0313,-0.0118,0.0014,0.0044,0.0011,-0.0082,-0.0129,-0.0107,0.0203,0.0442,0.045,0.0497,0.0533,0.0555,0.0607,0.0816,0.1099,0.1409,0.1623,0.1651,0.145,0.1145,0.0893,0.075,0.061,0.0437,0.0247,0.0038,0.0758,0.0992,0.0961,0.0766,0.0637,0.0459,0.028,0.0137,0.0025,-0.0132,-0.028,-0.0505,-0.0772,-0.0764,-0.0591,-0.0519,-0.0467,-0.0423,-0.0387,-0.0288,-0.0107,0.0003,0.0025,-0.0008,-0.0071,-0.0049,0.0093,0.0602,0.089,0.0827,0.0775,0.0747,0.0788,0.0865,0.1101,0.1401,0.1651,0.1777,0.1695,0.1412,0.109,0.0873,0.0772,0.0659,0.0527,0.0382,0.0206]}],[{"header":{"parameterUnit":"m.s-1","parameterCategory":2,"la1":30.8641,"la2":29.7642,"lo1":-88.4676,"lo2":-86.9344,"dy":0.0333,"dx":0.0333,"nx":47,"ny":34,"refTime":"2024-12-21T00:00:00:Z","depth":"10","parameterNumber":2,"parameterNumberName":"U-component_of_CURRENTS"},"data":[0,0,0,0,0,0,0,0,0,0,0,0,0,0,0,0,0,0,0,0,0,0,0,0,0,0,0,0,0,0,0,0,0,0,0,0,0,0,0,0,0,0,0,0,0,0,0,0,0,0,0,0,0,0,0,0,0,0,0,0,0,0,0,0,0,0,0,0,0,0,0,0,0,0,0,0,0,0,0,0,0,0,0,0,0,0,0,0,0,0,0,0,0,0,0,0,0,0,0,0,0,0,0,0,0,0,0,0,0,0,0,0,0,0,0,0,0,0,0,0,0,0,0,0,0,0,0,0,0,0,0,0,0,0,0,0,0,0,0,0,0,0,0,0,0,0,0,0,0,0,0,0,0,0,0,0,0,0,0,0,0,0,0,0,0,0,0,0,0,0,0,0,0,0,0,0,0,0,0,0,0,0,0,0,0,0,0,0,0,0,0,0,0,0,0,0,0,0,0,0,0,0,0,0,0,0,0,0,0,0,0,0,0,0,0,0,0,0,0,0,0,0,0,0,0,0,0,0,0,0,0,0,0,0,0,0,0,0,0,0,0,0,0,0,0,0,0,0,0,0,0,0,0,0,0,0,0,0,0,0,0,0,0,0,0,0,0,0,0,0,0,0,0,0,0,0,0,0,0,0,0,0,0,0,0,0,0,0,0,0,0,0,0,0,0,0,-0.0173,-0.0346,0,0,0,0,0,0,0,0,0,0,0,0,0,0,0,0,0,0,0,0,0,0,0,0,0,0,0,0,0,0,0,0,0,0,0,0,0,0,0,0,0,0,0,0,-0.0082,-0.0349,-0.039,-0.0247,0,0,0,0,0,0,0,0,0,0,0,0,0,0,0,0,0,0,0,0,0,0,0,0,0,0,0,0,0,0,0,0,0,0,0,0,0,0,0,0,0,0,0,-0.0118,-0.022,-0.017,-0.0137,0,0,0,0,0,0,0,0,0,0,0,0,0,0,0,0,0,0,0,0,0,0,0,0,0,0,0,0,0,0,0,0,0,0,0,0,0,0,0,0,0,0,-0.0077,-0.0203,-0.022,-0.0124,-0.0058,0,0,0,0,0,0,0,0,0,0,0,0,0,0,0,0,0,0,0,0,0,0,0,0,0,0,0,0,0,0,0,0,0,0,0,0,0,0,0,0,0,0,-0.0063,-0.0168,-0.0168,-0.0113,-0.0096,0,0,0,0,0,0,0,0,0,0,0,0,0,0,0,0,0,0,0,0,0,0,0,0,0,0,0,0,0,0,0,0,0,0,0,0,0,0,0,0,0,0,-0.0066,-0.0148,-0.0126,-0.008,-0.0074,0,0,0,0,0,0,0,0,0,0,0,0,0,0,0,0,0,0,0,0,0,0,0,0,0,0,0,0,0,0,0,0,0,0,0,0,0,0,0,0,0,0,0.0014,-0.008,-0.006,-0.0008,-0.0014,0,0,0,0,0,0,0,0,0,0,0,0,0,0,0,0,0,0,0,0,0,0,0,0,0,0,0.0066,0.0132,0,0,0,0,0,0,0,0,0,0,0,0,0,0.008,0.0055,-0.0082,-0.0063,0.0027,0.0063,0,0,0,0,0,0,0,0,0,0,0,0,0,0,0,0,0,0,0,0,0,0,-0.0027,-0.0093,0.0115,0.0277,0.025,0.0313,0,0,0,0,0,0,0,0,0,0,0,0,0,0.0126,0.0195,0.0049,-0.0011,0.0049,-0.0008,-0.0096,0,0,0,0,0,0,0,0,0,0,0,0,0,0,0,0,0,0,0,0,0.0192,0.0253,0.0085,0.0049,0,0,0,0,0,0,0,0,-0.0071,-0.0203,-0.0264,0,0,0,0,0,0.0088,0.0195,0.0135,0.0099,0.0146,0.0159,0.0176,0.0206,0,0,0,0,0,0,0,0,0,0,0,0,0,0,0,0,0,0,0.0041,0.0148,0,0,0,0,0,0,0,0.0088,0,0.0239,0.0401,0.0231,0.0129,0.0118,0,0,0,0,0,0.003,0.017,0.0187,0.0115,0.017,0.0198,0.0261,0.0277,0.0225,0,0,0,0,0,0,0,0,0,0,0,0,0,0,0,0,0.0014,0.0036,0,0,-0.0132,-0.0179,-0.0137,-0.0058,0.0055,0.0184,0.0247,0.0354,0.0319,0.0294,0.0266,0.033,0.0442,0.0407,0.022,0.0003,-0.0088,0.0102,0.0327,0.0354,0.0255,0.014,0.0118,0.0198,0.0316,0.0415,0.0448,0.0437,0,0,0,0,0,0,0,0,0,0,0,0,0.0137,0.036,0.0376,0.0288,0.0071,0.0168,0.0272,0.0206,0.0195,0.0201,0.0209,0.0214,0.0217,0.0214,0.0184,0.008,0.0264,0.0308,0.031,0.0428,0.0492,0.0434,0.0327,0,0,0,0.0121,0.0091,-0.0027,0.0063,0.0192,0.0316,0.0431,0.0538,0.0574,0,0,0,0,0,0,0,-0.0096,-0.0242,-0.0346,-0.0434,-0.0365,-0.0082,0.0179,0.0349,0.0327,0.036,0.0148,0.0066,0.0121,0.017,0.0198,0.0209,0.0206,0.019,0.0173,0.0107,-0.0195,0.0121,0.0363,0.0283,0,0,0.0157,0.0357,0.0319,0.0148,0.0036,0.019,0.0371,0,0,0,0,0,0,0,0,-0.0016,-0.0036,-0.0044,-0.008,-0.014,-0.0231,-0.0277,-0.0291,-0.0327,-0.0346,-0.0308,-0.017,0.0022,0.0146,0.0129,0.0044,-0.0033,-0.0036,0.0036,0.0093,0.0107,0.0099,0.0071,0.0049,0.0074,0,0,-0.0093,-0.0102,0.0033,0.033,0.0711,0.0481,0.0464,0.0467,0.0376,0.031,0,0.0165,0.0332,0.0244,0.0099,0.0022,-0.0033,-0.0085,-0.0115,-0.0132,-0.0118,-0.0093,-0.0096,-0.0107,-0.0126,-0.0165,-0.0201,-0.0214,-0.0209,-0.0195,-0.0206,-0.022,-0.0132,-0.0036,-0.0036,-0.0088,-0.0129,-0.0115,-0.0096,-0.0102,-0.0088,-0.0055,0.0005,0.0104,0.0255,-0.0552,-0.0692,-0.0618,-0.0368,-0.0354,-0.0505,-0.0467,-0.0082,0.0621,0.0769,0.0448,0.0299,0.0264,0.017,0.017,0.0063,-0.0022,-0.0074,-0.0113,-0.0143,-0.0162,-0.0173,-0.0176,-0.0173,-0.0179,-0.0181,-0.017,-0.014,-0.0091,-0.0058,-0.0102,-0.0159,-0.0115,-0.0069,-0.0052,-0.0058,-0.0113,-0.0162,-0.017,-0.0168,-0.0168,-0.0148,-0.0104,-0.0027,0.0121,0.0376,0.0714,-0.07,-0.0656,-0.0522,-0.0338,-0.0242,-0.028,-0.047,-0.0676,-0.0613,-0.0341,0.0085,0.0354,0.0184,-0.0044,-0.0088,-0.0132,-0.0143,-0.0154,-0.017,-0.0181,-0.019,-0.0201,-0.0211,-0.022,-0.022,-0.0206,-0.0173,-0.0115,-0.0052,-0.0022,-0.0085,-0.0151,-0.0085,-0.003,-0.0055,-0.0085,-0.0121,-0.0143,-0.0146,-0.0151,-0.0146,-0.0099,0.0,0.0201,0.0555,0.0994,0.142,-0.0571,-0.0626,-0.0645,-0.0588,-0.0409,0.0005,0.0275,0.0033,-0.0456,-0.0744,-0.0777,-0.0667,-0.0494,-0.0321,-0.0222,-0.0209,-0.0217,-0.0217,-0.0217,-0.0211,-0.0206,-0.0206,-0.0201,-0.0176,-0.0126,-0.0063,0.0,0.0047,0.0069,0.0055,-0.0041,-0.0187,-0.0272,-0.0288,-0.0231,-0.0113,-0.0058,-0.0022,0.0025,0.0038,0.006,0.0162,0.0412,0.0816,0.1277,0.1744,0.2126,-0.0522,-0.0585,-0.0687,-0.0832,-0.0909,-0.078,-0.0461,0.0011,0.0338,0.0294,0.0088,-0.0074,-0.0181,-0.0233,-0.0261,-0.0275,-0.0275,-0.0275,-0.0269,-0.0255,-0.0233,-0.0211,-0.0181,-0.0126,-0.0047,0.0027,0.0085,0.0121,0.0154,0.0203,0.0261,0.0181,-0.0146,-0.0412,-0.0346,-0.0115,0.0126,0.0291,0.0343,0.0387,0.0604,0.1011,0.145,0.184,0.2195,0.2412,0.2472,-0.0393,-0.0352,-0.0332,-0.0401,-0.0607,-0.0827,-0.0931,-0.0865,-0.0667,-0.0464,-0.0338,-0.0286,-0.0275,-0.0283,-0.0294,-0.0302,-0.031,-0.0319,-0.0319,-0.0308,-0.0288,-0.0264,-0.0236,-0.019,-0.0121,-0.0049,0.0016,0.008,0.0151,0.0242,0.0357,0.0494,0.0621,0.0665,0.0621,0.0604,0.0728,0.0986,0.1384,0.1838,0.2203,0.2423,0.2579,0.2626,0.2565,0.2519,0.2456,-0.0137,-0.0049,0.0044,0.0132,0.0162,0.0074,-0.0146,-0.0357,-0.0415,-0.0368,-0.0332,-0.0316,-0.0299,-0.0277,-0.0269,-0.0277,-0.0299,-0.0324,-0.0343,-0.0343,-0.033,-0.031,-0.0283,-0.0233,-0.0162,-0.0088,-0.0011,0.0069,0.0146,0.0225,0.0316,0.0417,0.0511,0.0582,0.0662,0.0851,0.1209,0.1659,0.2098,0.2439,0.2596,0.2626,0.2593,0.2557,0.2494,0.2357,0.2195,0.0157,0.0154,0.0176,0.0222,0.0277,0.0376,0.056,0.047,0.0132,-0.0049,-0.0118,-0.0162,-0.0179,-0.017,-0.0168,-0.0187,-0.0233,-0.0283,-0.0316,-0.0324,-0.0305,-0.0269,-0.0222,-0.017,-0.0121,-0.0074,-0.0019,0.0044,0.0113,0.0187,0.0264,0.0341,0.0417,0.0503,0.0651,0.0926,0.1302,0.1678,0.1945,0.2142,0.2277,0.2373,0.2431,0.2379,0.2261,0.212,0.198,0.0099,0.0082,0.0132,0.0264,0.0434,0.0596,0.0797,0.1003,0.097,0.0591,0.0198,0.0069,0.0044,0.0019,0.0003,-0.003,-0.0096,-0.0181,-0.0247,-0.0269,-0.0244,-0.0192,-0.0132,-0.0091,-0.0074,-0.0066,-0.0038,0.0005,0.0066,0.0135,0.0206,0.0275,0.0346,0.0486,0.0689,0.0945,0.117,0.139,0.1615,0.1843,0.2063,0.2186,0.2206,0.2137,0.2052,0.1978,0.1909,0.0008,0.0022,0.0157,0.0349,0.0525,0.0703,0.0909,0.1126,0.1285,0.1483,0.1285,0.0574,0.0198,0.0176,0.0154,0.0121,0.0071,-0.0014,-0.0113,-0.0179,-0.0181,-0.0135,-0.0074,-0.0044,-0.0052,-0.0069,-0.0058,-0.0027,0.0016,0.0071,0.0135,0.0203,0.0316,0.0503,0.0676,0.0772,0.0873,0.109,0.1346,0.1577,0.1805,0.1923,0.1942,0.1936,0.1923,0.1901,0.1876,-0.0203,-0.0085,0.0124,0.0275,0.0374,0.0472,0.0623,0.0808,0.1044,0.1288,0.1409,0.1274,0.0753,0.0319,0.0255,0.0231,0.0206,0.0168,0.0099,0.0016,-0.003,-0.0033,-0.0019,-0.0011,-0.0027,-0.0063,-0.0088,-0.0088,-0.0055,0.0005,0.0085,0.019,0.0387,0.0522,0.0486,0.0552,0.0742,0.0981,0.1263,0.1516,0.1703,0.1796,0.1827,0.1859,0.1909,0.1928,0.1923,-0.0233,0.0082,0.0288,0.0387,0.053,0.064,0.0731,0.0832,0.0917,0.1046,0.1296,0.1387,0.111,0.0643,0.0363,0.0316,0.0302,0.0302,0.0286,0.0239,0.0179,0.0124,0.0066,0.0022,-0.0008,-0.0055,-0.0126,-0.0162,-0.011,0.0003,0.0137,0.0313,0.0448,0.0522,0.058,0.0728,0.0986,0.1228,0.1447,0.1637,0.1761,0.1802,0.1813,0.184,0.189,0.1939,0.198,-0.0022,0.036,0.0571,0.0651,0.0706,0.0755,0.0775,0.0808,0.0879,0.0917,0.1008,0.1156,0.1167,0.0926,0.0577,0.0398,0.036,0.0354,0.0354,0.0335,0.0299,0.0261,0.0217,0.0157,0.0082,-0.0047,-0.0244,-0.0305,-0.0126,0.0115,0.0324,0.0541,0.0714,0.0829,0.0983,0.1192,0.1423,0.1618,0.1744,0.1802,0.181,0.1794,0.1774,0.178,0.1827,0.1903,0.1986,0.0277,0.0497,0.0582,0.064,0.0643,0.0643,0.0659,0.0673,0.0703,0.0714,0.0728,0.084,0.0989,0.0967,0.0706,0.0464,0.0393,0.0371,0.0349,0.0324,0.031,0.0305,0.0308,0.0319,0.0343,0.0379,0.0343,0.0305,0.0396,0.0549,0.0711,0.089,0.106,0.1231,0.1445,0.1664,0.1868,0.2,0.2016,0.1931,0.181,0.1733,0.1686,0.1664,0.1711,0.1813,0.1945]},{"header":{"parameterUnit":"m.s-1","parameterCategory":2,"la1":30.8641,"la2":29.7642,"lo1":-88.4676,"lo2":-86.9344,"dy":0.0333,"dx":0.0333,"nx":47,"ny":34,"refTime":"2024-12-21T00:00:00:Z","depth":"10","parameterNumber":3,"parameterNumberName":"V-component_of_CURRENTS"},"data":[0,0,0,0,0,0,0,0,0,0,0,0,0,0,0,0,0,0,0,0,0,0,0,0,0,0,0,0,0,0,0,0,0,0,0,0,0,0,0,0,0,0,0,0,0,0,0,0,0,0,0,0,0,0,0,0,0,0,0,0,0,0,0,0,0,0,0,0,0,0,0,0,0,0,0,0,0,0,0,0,0,0,0,0,0,0,0,0,0,0,0,0,0,0,0,0,0,0,0,0,0,0,0,0,0,0,0,0,0,0,0,0,0,0,0,0,0,0,0,0,0,0,0,0,0,0,0,0,0,0,0,0,0,0,0,0,0,0,0,0,0,0,0,0,0,0,0,0,0,0,0,0,0,0,0,0,0,0,0,0,0,0,0,0,0,0,0,0,0,0,0,0,0,0,0,0,0,0,0,0,0,0,0,0,0,0,0,0,0,0,0,0,0,0,0,0,0,0,0,0,0,0,0,0,0,0,0,0,0,0,0,0,0,0,0,0,0,0,0,0,0,0,0,0,0,0,0,0,0,0,0,0,0,0,0,0,0,0,0,0,0,0,0,0,0,0,0,0,0,0,0,0,0,0,0,0,0,0,0,0,0,0,0,0,0,0,0,0,0,0,0,0,0,0,0,0,0,0,0,0,0,0,0,0,0,0,0,0,0,0,0,0,0,0,0,0,-0.0239,0.0253,0,0,0,0,0,0,0,0,0,0,0,0,0,0,0,0,0,0,0,0,0,0,0,0,0,0,0,0,0,0,0,0,0,0,0,0,0,0,0,0,0,0,0,0,0.0203,0.0074,0.0247,0.0255,0,0,0,0,0,0,0,0,0,0,0,0,0,0,0,0,0,0,0,0,0,0,0,0,0,0,0,0,0,0,0,0,0,0,0,0,0,0,0,0,0,0,0,0.0203,0.0297,0.022,0.0239,0,0,0,0,0,0,0,0,0,0,0,0,0,0,0,0,0,0,0,0,0,0,0,0,0,0,0,0,0,0,0,0,0,0,0,0,0,0,0,0,0,0,0.022,0.022,0.0222,0.0222,0.025,0,0,0,0,0,0,0,0,0,0,0,0,0,0,0,0,0,0,0,0,0,0,0,0,0,0,0,0,0,0,0,0,0,0,0,0,0,0,0,0,0,0,0.0206,0.0244,0.0239,0.0236,0.0261,0,0,0,0,0,0,0,0,0,0,0,0,0,0,0,0,0,0,0,0,0,0,0,0,0,0,0,0,0,0,0,0,0,0,0,0,0,0,0,0,0,0,0.0233,0.0269,0.0266,0.0255,0.0261,0,0,0,0,0,0,0,0,0,0,0,0,0,0,0,0,0,0,0,0,0,0,0,0,0,0,0,0,0,0,0,0,0,0,0,0,0,0,0,0,0,0,0.0283,0.0299,0.031,0.0308,0.0305,0,0,0,0,0,0,0,0,0,0,0,0,0,0,0,0,0,0,0,0,0,0,0,0,0,0,0.0206,-0.011,0,0,0,0,0,0,0,0,0,0,0,0,0,0.0393,0.033,0.0319,0.0299,0.0286,0.0305,0,0,0,0,0,0,0,0,0,0,0,0,0,0,0,0,0,0,0,0,0,0,0.028,0.0222,0.0159,0.0,0.0102,-0.0055,0,0,0,0,0,0,0,0,0,0,0,0,0,0.0423,0.0352,0.0313,0.0269,0.0209,0.0231,-0.0096,0,0,0,0,0,0,0,0,0,0,0,0,0,0,0,0,0,0,0,0,0.0475,0.014,0.011,0.008,0,0,0,0,0,0,0,0,-0.0005,-0.0165,-0.0464,0,0,0,0,0,0.0332,0.0338,0.0269,0.0264,0.0206,0.0173,0.0019,-0.0146,0,0,0,0,0,0,0,0,0,0,0,0,0,0,0,0,0,0,0.0382,0.0239,0,0,0,0,0,0,0,0.0176,0,-0.0321,-0.0179,-0.003,-0.0146,-0.0407,0,0,0,0,0,0.0365,0.0305,0.0222,0.0228,0.0239,0.022,0.0148,-0.0025,-0.0244,0,0,0,0,0,0,0,0,0,0,0,0,0,0,0,0,0.0387,0.0437,0,0,-0.0121,-0.0014,0.0038,0.0088,0.0132,0.0126,0.0154,-0.0217,-0.0231,-0.0102,-0.0025,0.0027,-0.0132,0.0217,0.0143,0.0049,0.0,0.0,0.0222,0.0082,0.0044,0.0146,0.0209,0.0217,0.0135,0.0096,-0.0049,0.0049,0,0,0,0,0,0,0,0,0,0,0,0,0.0206,0.033,0.0483,0.0492,0.0486,0.0253,-0.0192,-0.0132,-0.0027,0.0036,0.0082,0.0121,0.0118,0.0115,-0.0099,0.0071,0.0195,0.008,0.0148,0.0041,0.011,-0.0014,-0.0121,0,0,0,-0.0165,-0.019,0.0047,0.0085,0.008,0.0049,0.0049,0.0014,0.0025,0,0,0,0,0,0,0,-0.0137,-0.0093,-0.0154,-0.0104,-0.0022,0.0047,0.0239,0.0244,0.0269,0.0286,0.0027,-0.019,-0.0093,-0.0008,0.0038,0.0074,0.0102,0.0093,0.0082,0.0011,0.0143,0.0231,0.0115,-0.0118,0,0,-0.0003,-0.0135,0.0011,-0.0066,-0.0132,-0.0113,-0.0478,0,0,0,0,0,0,0,0,-0.0085,-0.003,-0.0022,-0.0066,-0.0091,-0.0143,-0.0236,-0.0201,-0.0195,-0.0129,-0.0016,0.0077,0.0146,0.0071,-0.0033,-0.0041,-0.0082,-0.0113,-0.0022,0.0011,0.003,0.0049,0.0063,0.0066,0.0096,0,0,-0.0176,0.011,-0.006,0.0489,0.0354,0.0132,-0.0052,-0.003,-0.0022,-0.0137,0,-0.0319,0.0074,-0.0159,-0.0093,-0.0063,-0.006,-0.0047,-0.0019,-0.0008,-0.0055,-0.0033,-0.0036,-0.0088,-0.0135,-0.019,-0.0242,-0.0233,-0.0217,-0.0137,-0.0019,0.0132,0.0277,0.006,-0.0121,-0.0151,-0.0146,-0.0058,0.0016,0.0019,0.0038,0.0058,0.0085,0.0124,0.0222,-0.0022,-0.0005,-0.0321,-0.0003,0.014,0.0269,0.0352,0.0461,0.017,-0.0412,-0.0277,-0.0113,0.0302,0.0049,-0.0088,-0.0201,-0.0146,-0.0102,-0.0093,-0.008,-0.0049,-0.0027,-0.0038,-0.0052,-0.008,-0.0126,-0.0173,-0.0209,-0.022,-0.022,-0.0222,-0.0115,-0.0003,0.0157,0.0261,-0.006,-0.0222,-0.0222,-0.0151,-0.0027,0.0008,0.0027,0.0071,0.0129,0.0233,0.0343,0.0481,-0.0118,-0.0074,-0.0151,-0.0049,-0.0036,-0.0099,-0.0137,0.0382,0.0412,0.014,-0.0132,-0.0409,-0.0041,-0.0308,-0.0294,-0.0239,-0.0206,-0.0157,-0.0146,-0.0126,-0.0093,-0.0063,-0.0063,-0.008,-0.011,-0.0137,-0.0157,-0.0159,-0.0159,-0.0195,-0.025,-0.008,0.011,0.0129,0.0071,-0.0217,-0.0286,-0.0233,-0.0129,-0.0047,0.0,0.006,0.0157,0.0324,0.0547,0.0753,0.084,-0.0179,-0.0151,-0.0091,0.0099,0.0143,-0.0008,-0.0327,-0.0151,0.0,0.0063,0.0033,-0.0118,-0.0239,-0.0349,-0.0288,-0.0255,-0.022,-0.0181,-0.0165,-0.0143,-0.0118,-0.0093,-0.0082,-0.0085,-0.0099,-0.0107,-0.011,-0.0107,-0.0124,-0.0201,-0.0299,-0.0148,0.0154,0.0096,-0.0104,-0.0316,-0.0302,-0.0181,-0.0102,-0.0066,0.0027,0.0179,0.0417,0.0742,0.097,0.1046,0.0994,-0.0244,-0.0236,-0.0168,0.0049,0.0247,0.0244,0.0036,-0.0203,-0.0132,-0.0027,-0.0091,-0.0165,-0.0222,-0.0264,-0.0264,-0.0264,-0.0217,-0.019,-0.0165,-0.014,-0.0118,-0.0096,-0.0071,-0.0047,-0.0033,-0.0036,-0.0047,-0.006,-0.0093,-0.0173,-0.028,-0.0266,-0.003,0.0063,-0.0093,-0.028,-0.0261,-0.0096,0.0016,0.0222,0.0456,0.0736,0.1035,0.1217,0.1269,0.12,0.1025,-0.0242,-0.0247,-0.0211,-0.008,0.0104,0.0203,0.0162,0.0044,-0.0019,-0.0049,-0.0165,-0.0233,-0.0272,-0.0286,-0.028,-0.0261,-0.022,-0.0195,-0.0162,-0.0126,-0.0102,-0.008,-0.0041,0.0014,0.0049,0.0038,0.0014,-0.0005,-0.0027,-0.008,-0.0157,-0.0201,-0.0135,0.0014,-0.0005,-0.006,0.0077,0.0371,0.0615,0.0871,0.1156,0.1417,0.1502,0.1458,0.1343,0.1203,0.0942,-0.0154,-0.0154,-0.0129,-0.0069,-0.0003,0.003,0.0036,0.0036,0.0055,-0.0027,-0.0118,-0.0201,-0.025,-0.0275,-0.0277,-0.0266,-0.0239,-0.0209,-0.0165,-0.0115,-0.0085,-0.0063,-0.0014,0.0063,0.011,0.0099,0.0077,0.0063,0.0044,0.0008,-0.0036,-0.0063,-0.0033,0.0036,0.0071,0.0264,0.0678,0.1027,0.1261,0.1404,0.1541,0.1552,0.145,0.1349,0.117,0.0942,0.0656,-0.0091,-0.0069,-0.0005,0.0077,0.0102,0.0063,-0.0041,0.0008,0.0096,-0.0033,-0.0126,-0.0195,-0.0217,-0.0239,-0.0269,-0.0288,-0.0277,-0.0244,-0.0184,-0.011,-0.0066,-0.0038,0.0019,0.0099,0.014,0.0137,0.0135,0.0124,0.0104,0.0077,0.0044,0.0019,0.0038,0.0104,0.028,0.0645,0.1063,0.1252,0.1346,0.1434,0.1458,0.1351,0.1222,0.1068,0.0901,0.072,0.0461,-0.006,0.0025,0.0222,0.0363,0.0365,0.0297,0.0135,0.0082,0.0041,-0.0148,-0.0104,-0.0157,-0.022,-0.0225,-0.0269,-0.0327,-0.0346,-0.0316,-0.0225,-0.0113,-0.0041,0.0005,0.006,0.0115,0.0137,0.0151,0.0168,0.0168,0.0162,0.0137,0.0113,0.0082,0.0115,0.0332,0.0588,0.0821,0.1019,0.1154,0.1269,0.1335,0.1288,0.1118,0.0956,0.0846,0.0736,0.0593,0.0338,0.0,0.0236,0.05,0.0544,0.0481,0.0398,0.0319,0.019,-0.0033,-0.0341,-0.0404,-0.0231,-0.0159,-0.0244,-0.0297,-0.0368,-0.0415,-0.0407,-0.0308,-0.0151,-0.003,0.0049,0.0102,0.0113,0.0102,0.0132,0.017,0.0192,0.0203,0.0192,0.0176,0.0159,0.0299,0.0525,0.0643,0.0742,0.0934,0.1165,0.134,0.1321,0.1167,0.0939,0.0783,0.0711,0.0629,0.0475,0.0222,0.008,0.0439,0.0563,0.0489,0.0431,0.0398,0.0338,0.0269,0.0113,-0.0159,-0.0621,-0.0681,-0.0291,-0.0253,-0.0341,-0.0404,-0.045,-0.0467,-0.0398,-0.0231,-0.0049,0.0071,0.0124,0.0093,0.0047,0.008,0.014,0.019,0.0222,0.0242,0.0242,0.0272,0.0417,0.0478,0.0522,0.0753,0.1046,0.1318,0.1472,0.1379,0.1126,0.0871,0.0714,0.0623,0.05,0.0319,0.0088,0.0222,0.0593,0.0607,0.0505,0.0461,0.042,0.0346,0.028,0.017,0.0085,-0.0335,-0.0884,-0.0654,-0.0335,-0.0385,-0.0431,-0.0456,-0.0467,-0.0431,-0.0297,-0.0091,0.0049,0.0099,0.006,-0.0016,-0.0008,0.0063,0.0165,0.0258,0.0305,0.0341,0.0396,0.0423,0.0448,0.0604,0.0895,0.1231,0.1491,0.1579,0.1437,0.1145,0.0884,0.0711,0.0577,0.0401,0.0198,-0.0019,0.047,0.0728,0.0764,0.0651,0.0566,0.0434,0.0305,0.0184,0.0047,-0.0052,-0.0228,-0.0651,-0.0799,-0.056,-0.0464,-0.0467,-0.0459,-0.0442,-0.0412,-0.0316,-0.0121,0.0014,0.0044,0.0011,-0.008,-0.0124,-0.0102,0.0209,0.0445,0.0453,0.05,0.0536,0.0555,0.061,0.0816,0.1099,0.1412,0.1623,0.1651,0.145,0.1145,0.0893,0.0747,0.061,0.0437,0.0247,0.0038,0.0547,0.0835,0.0904,0.0758,0.0632,0.0456,0.028,0.0137,0.0025,-0.0132,-0.028,-0.0508,-0.0775,-0.0766,-0.0593,-0.0522,-0.047,-0.0428,-0.0393,-0.0294,-0.0113,0.0,0.0022,-0.0011,-0.0074,-0.0049,0.0091,0.0593,0.0884,0.0824,0.0772,0.0747,0.0788,0.0865,0.1099,0.1401,0.1648,0.1777,0.1695,0.1415,0.109,0.0873,0.0772,0.0659,0.0525,0.0382,0.0206]}],[{"header":{"parameterUnit":"m.s-1","parameterCategory":2,"la1":30.8641,"la2":29.7642,"lo1":-88.4676,"lo2":-86.9344,"dy":0.0333,"dx":0.0333,"nx":47,"ny":34,"refTime":"2024-12-21T00:00:00:Z","depth":"12","parameterNumber":2,"parameterNumberName":"U-component_of_CURRENTS"},"data":[0,0,0,0,0,0,0,0,0,0,0,0,0,0,0,0,0,0,0,0,0,0,0,0,0,0,0,0,0,0,0,0,0,0,0,0,0,0,0,0,0,0,0,0,0,0,0,0,0,0,0,0,0,0,0,0,0,0,0,0,0,0,0,0,0,0,0,0,0,0,0,0,0,0,0,0,0,0,0,0,0,0,0,0,0,0,0,0,0,0,0,0,0,0,0,0,0,0,0,0,0,0,0,0,0,0,0,0,0,0,0,0,0,0,0,0,0,0,0,0,0,0,0,0,0,0,0,0,0,0,0,0,0,0,0,0,0,0,0,0,0,0,0,0,0,0,0,0,0,0,0,0,0,0,0,0,0,0,0,0,0,0,0,0,0,0,0,0,0,0,0,0,0,0,0,0,0,0,0,0,0,0,0,0,0,0,0,0,0,0,0,0,0,0,0,0,0,0,0,0,0,0,0,0,0,0,0,0,0,0,0,0,0,0,0,0,0,0,0,0,0,0,0,0,0,0,0,0,0,0,0,0,0,0,0,0,0,0,0,0,0,0,0,0,0,0,0,0,0,0,0,0,0,0,0,0,0,0,0,0,0,0,0,0,0,0,0,0,0,0,0,0,0,0,0,0,0,0,0,0,0,0,0,0,0,0,0,0,0,0,0,0,0,0,0,0,0,0,0,0,0,0,0,0,0,0,0,0,0,0,0,0,0,0,0,0,0,0,0,0,0,0,0,0,0,0,0,0,0,0,0,0,0,0,0,0,0,0,0,0,0,0,0,0,0,0,0,0,0,0,0,0,0,0,0,0,0,0,0,0,0,0,0,0,0,0,0,0,0,0,0,0,0,0,0,0,0,0,0,0,0,0,0,0,0,0,0,0,0,0,0,0,0,0,0,0,0,0,0,0,0,0,0,0,0,0,0,0,0,0,0,0,0,0,0,0,0,0,0,0,0,0,0,0,0,0,0,0,0,0,0,0,0,0,0,0,0,0,0,0,0,0,0,0,0,0,0,0,0,0,0,0,0,0,0,0,0,0,0,0,0,0,0,0,0,0,0,0,0,0,0,0,0,0,0,0,0,0,0,0,0,0,0,0,0,0,0,0,0,0,0,0,0,0,0,0,0,0,0,0,0,0,0,0,0,0,0,0,0,0,0,0,0,0,0,0,0,0,0,0,0,0,0,0,0,0,0,0,0,0,0,0,0,0,0,0,0,0,0,0,0,0,0,0,0,0,0,0,0,0,0,0,0,0,0,0,0,0,0,0,0,0,0,0,0,0,0,0,0,0,0,0,0,0,0,0,0,0,0,0,0,0,0,0,0,0,0,0,0,0,0,0,0,0,0,0,0,0,0,0,0,0,0,0,0,0,0,0,0,0,0,0,0,0,0,0,0,0,0,0,0,0,0,0,0,0,0,0,0,0,0,0,0,0,0,0,0,0,0,0,0,0,0,0,0,0,0,0,0,0,0,0,0,0,0,0,0,0,0,0,0,0,0,0,0,0,0,0,0,0,0,0,0,0,0,0,0,0,0,0,0,0,0,0,0,0,0,0,0,0,0,0,0,0,0,0,0,0,0,0,0,0,0,0,0,0,0,0,0,0,0,0,0,0,0,0,0,0,0,0,0,0,0,0,0,0,0,0,0,0,0,0,0,0,0,0,0,0,0,0,0,0,0,0,0,0,0,0,0,0,0,0.0091,0,0,0,0,0,0,0,0,0,0,0,0,0,0,0,0,0,0,0,0,0,0,0,0,0,0,0,0,0,0,0,0,0,0,0,0,0,0,0,0,0,-0.0168,-0.0132,-0.0052,0.0058,0.0187,0.0247,0,0,0,0,0,0,0,0,0,0,0,0,0,0,0,0,0,0,0,0,0,0,0,0,0,0,0,0,0,0,0,0,0,0,0,0,0,0,0.0088,0.0255,0.0209,0.0198,0.0206,0.0214,0.0214,0.022,0.0217,0,0,0,0,0,0,0,0,0,0,0,0,0,0,0,0,0,0,0,0,0,0,0,0,0,0,0,0,0,0,0,0,0,0,0,0,0.0302,0.022,0.0154,0.0069,0.0124,0.0173,0.0201,0.0211,0.0209,0.0192,0.0176,0,0,0,0,0,0,0,0,0,0,0,0,0,0,0,0,0,0,0,0,0,0,0,0,0,0,0,0,0,-0.0277,-0.0299,-0.0321,-0.0288,-0.0165,0.0025,0.0148,0.0129,0.0044,-0.0036,-0.0036,0.0038,0.0096,0.011,0.0102,0.0074,0.0055,0.008,0,0,0,0,0,0.017,0.0423,0,0,0,0,0,0,0,0,0,0,0,0,0,0,0,0,0,0,0,-0.0124,-0.0157,-0.0192,-0.0203,-0.0195,-0.0179,-0.0192,-0.0206,-0.0124,-0.0033,-0.0036,-0.0091,-0.0132,-0.0113,-0.0091,-0.0096,-0.0082,-0.0047,0.0014,0.011,0.0261,-0.0266,-0.053,-0.0555,-0.0244,0.0036,-0.0236,-0.0124,0.0472,0.0722,0.0434,0.0349,0,0.0181,0,0.0146,0.0091,-0.0011,-0.0066,-0.0104,-0.0135,-0.0148,-0.0159,-0.0165,-0.0165,-0.017,-0.0173,-0.0165,-0.0135,-0.0088,-0.0049,-0.0085,-0.0135,-0.0096,-0.0049,-0.0041,-0.0058,-0.0115,-0.0165,-0.0168,-0.0159,-0.0159,-0.014,-0.0099,-0.0019,0.0129,0.0385,0.072,-0.0489,-0.0511,-0.0417,-0.0192,0.0003,-0.0206,-0.047,-0.0437,-0.0143,0.0288,0.0519,0.0467,0.0201,-0.0038,-0.0071,-0.0102,-0.0129,-0.014,-0.0157,-0.0165,-0.0173,-0.0184,-0.0198,-0.0209,-0.0211,-0.0201,-0.0168,-0.011,-0.0047,-0.0014,-0.0066,-0.0115,-0.0036,0.0014,-0.0036,-0.0085,-0.0126,-0.0146,-0.014,-0.014,-0.0137,-0.0091,0.0008,0.0206,0.056,0.1,0.1426,-0.0552,-0.0602,-0.0574,-0.0426,-0.0126,0.0308,0.0242,-0.0288,-0.0511,-0.0536,-0.0481,-0.0363,-0.0346,-0.0299,-0.0214,-0.0198,-0.0206,-0.0206,-0.0209,-0.0201,-0.0195,-0.0192,-0.019,-0.0168,-0.0121,-0.0058,0.0005,0.0055,0.0077,0.0063,-0.0022,-0.0157,-0.0217,-0.0203,-0.0176,-0.0107,-0.0058,-0.0022,0.003,0.0044,0.0069,0.0168,0.0417,0.0821,0.1285,0.175,0.2131,-0.0505,-0.0566,-0.0643,-0.0706,-0.0698,-0.0519,-0.0121,0.0203,0.033,0.0291,0.0091,-0.0074,-0.0179,-0.0231,-0.0253,-0.0264,-0.0266,-0.0266,-0.0261,-0.0244,-0.0225,-0.0203,-0.0173,-0.0118,-0.0041,0.0036,0.0091,0.0126,0.0159,0.0209,0.0266,0.0195,-0.0118,-0.0371,-0.0316,-0.0104,0.0129,0.0294,0.0352,0.0423,0.0648,0.1046,0.1469,0.1849,0.2203,0.2417,0.2475,-0.0385,-0.0343,-0.0321,-0.0379,-0.0533,-0.067,-0.0711,-0.0632,-0.0494,-0.039,-0.0324,-0.0283,-0.0269,-0.0275,-0.0286,-0.0291,-0.0299,-0.031,-0.031,-0.0299,-0.028,-0.0255,-0.0225,-0.0179,-0.0113,-0.0041,0.0025,0.0085,0.0157,0.0244,0.036,0.0497,0.0623,0.067,0.0626,0.0615,0.0742,0.1014,0.1412,0.184,0.2197,0.2425,0.259,0.2634,0.2571,0.2524,0.2458,-0.0129,-0.0041,0.0052,0.0137,0.0165,0.0077,-0.0137,-0.0346,-0.0404,-0.0363,-0.0327,-0.031,-0.0291,-0.0269,-0.0261,-0.0269,-0.0291,-0.0316,-0.0332,-0.0335,-0.0321,-0.0302,-0.0272,-0.0222,-0.0154,-0.008,-0.0005,0.0074,0.0151,0.0231,0.0321,0.042,0.0514,0.0585,0.0665,0.0854,0.1211,0.164,0.2046,0.2381,0.2585,0.2631,0.2598,0.2563,0.2499,0.2362,0.2197,0.0168,0.0162,0.0184,0.0228,0.0283,0.0385,0.0563,0.0481,0.0148,-0.0041,-0.0115,-0.0157,-0.0173,-0.0165,-0.0159,-0.0181,-0.0225,-0.0272,-0.0308,-0.0313,-0.0294,-0.0258,-0.0211,-0.0159,-0.0113,-0.0066,-0.0011,0.0049,0.0118,0.0192,0.0266,0.0346,0.0423,0.0508,0.0656,0.0934,0.1313,0.1697,0.1972,0.2162,0.2282,0.2379,0.2436,0.2381,0.2263,0.2123,0.1986,0.0113,0.0096,0.0151,0.0286,0.0456,0.0615,0.0802,0.0978,0.0928,0.0591,0.0217,0.0074,0.0049,0.0025,0.0008,-0.0025,-0.0088,-0.017,-0.0236,-0.0258,-0.0233,-0.0181,-0.0124,-0.008,-0.0066,-0.0058,-0.003,0.0014,0.0071,0.014,0.0209,0.028,0.0352,0.0492,0.0698,0.0953,0.1178,0.1395,0.1621,0.1849,0.2068,0.2189,0.2208,0.214,0.2057,0.1983,0.1914,0.003,0.0047,0.0187,0.0376,0.0547,0.072,0.0882,0.1022,0.1123,0.1233,0.1112,0.0569,0.0211,0.0181,0.0159,0.0126,0.0077,-0.0003,-0.0099,-0.0165,-0.0168,-0.0124,-0.0066,-0.0033,-0.0041,-0.0058,-0.0049,-0.0019,0.0022,0.0077,0.0137,0.0209,0.0324,0.0514,0.0684,0.078,0.0879,0.1096,0.1351,0.1582,0.1807,0.1923,0.1945,0.1939,0.1928,0.1906,0.1881,-0.017,-0.0055,0.0146,0.0294,0.039,0.0497,0.0662,0.086,0.1057,0.1145,0.1178,0.1143,0.072,0.0324,0.0261,0.0233,0.0209,0.0173,0.011,0.003,-0.0019,-0.0022,-0.0005,0.0,-0.0016,-0.0052,-0.008,-0.008,-0.0047,0.0011,0.0091,0.0195,0.0393,0.0527,0.0494,0.0558,0.0747,0.0989,0.1272,0.1522,0.1706,0.1799,0.1827,0.1865,0.1912,0.1934,0.1928,-0.0187,0.014,0.0338,0.0415,0.0544,0.0651,0.0742,0.0846,0.0948,0.1099,0.1299,0.1354,0.1096,0.0643,0.0365,0.0319,0.0305,0.0305,0.0294,0.025,0.019,0.0135,0.008,0.0036,0.0005,-0.0041,-0.0115,-0.0151,-0.0099,0.0011,0.0143,0.0319,0.0453,0.053,0.0585,0.0736,0.0992,0.1233,0.1453,0.1643,0.1763,0.1805,0.1816,0.1843,0.1892,0.1942,0.1983,0.0044,0.0423,0.0632,0.0684,0.0722,0.0769,0.0783,0.0816,0.0887,0.0923,0.1014,0.1156,0.1162,0.0923,0.0577,0.0401,0.0363,0.0357,0.0357,0.0343,0.031,0.0272,0.0228,0.0168,0.0093,-0.003,-0.0228,-0.0291,-0.0115,0.0126,0.0332,0.0549,0.0722,0.0835,0.0992,0.12,0.1428,0.1626,0.175,0.1807,0.1813,0.1794,0.1777,0.1783,0.1829,0.1906,0.1991,0.0321,0.0563,0.0643,0.0662,0.0659,0.0656,0.0667,0.0681,0.0711,0.0722,0.0733,0.0843,0.0986,0.0964,0.0703,0.0464,0.0396,0.0374,0.0354,0.0332,0.0319,0.0313,0.0316,0.0327,0.0349,0.0385,0.0354,0.0319,0.0409,0.056,0.072,0.0898,0.1066,0.1239,0.1453,0.167,0.1873,0.2005,0.2022,0.1936,0.1813,0.1736,0.1689,0.167,0.1717,0.1818,0.1947]},{"header":{"parameterUnit":"m.s-1","parameterCategory":2,"la1":30.8641,"la2":29.7642,"lo1":-88.4676,"lo2":-86.9344,"dy":0.0333,"dx":0.0333,"nx":47,"ny":34,"refTime":"2024-12-21T00:00:00:Z","depth":"12","parameterNumber":3,"parameterNumberName":"V-component_of_CURRENTS"},"data":[0,0,0,0,0,0,0,0,0,0,0,0,0,0,0,0,0,0,0,0,0,0,0,0,0,0,0,0,0,0,0,0,0,0,0,0,0,0,0,0,0,0,0,0,0,0,0,0,0,0,0,0,0,0,0,0,0,0,0,0,0,0,0,0,0,0,0,0,0,0,0,0,0,0,0,0,0,0,0,0,0,0,0,0,0,0,0,0,0,0,0,0,0,0,0,0,0,0,0,0,0,0,0,0,0,0,0,0,0,0,0,0,0,0,0,0,0,0,0,0,0,0,0,0,0,0,0,0,0,0,0,0,0,0,0,0,0,0,0,0,0,0,0,0,0,0,0,0,0,0,0,0,0,0,0,0,0,0,0,0,0,0,0,0,0,0,0,0,0,0,0,0,0,0,0,0,0,0,0,0,0,0,0,0,0,0,0,0,0,0,0,0,0,0,0,0,0,0,0,0,0,0,0,0,0,0,0,0,0,0,0,0,0,0,0,0,0,0,0,0,0,0,0,0,0,0,0,0,0,0,0,0,0,0,0,0,0,0,0,0,0,0,0,0,0,0,0,0,0,0,0,0,0,0,0,0,0,0,0,0,0,0,0,0,0,0,0,0,0,0,0,0,0,0,0,0,0,0,0,0,0,0,0,0,0,0,0,0,0,0,0,0,0,0,0,0,0,0,0,0,0,0,0,0,0,0,0,0,0,0,0,0,0,0,0,0,0,0,0,0,0,0,0,0,0,0,0,0,0,0,0,0,0,0,0,0,0,0,0,0,0,0,0,0,0,0,0,0,0,0,0,0,0,0,0,0,0,0,0,0,0,0,0,0,0,0,0,0,0,0,0,0,0,0,0,0,0,0,0,0,0,0,0,0,0,0,0,0,0,0,0,0,0,0,0,0,0,0,0,0,0,0,0,0,0,0,0,0,0,0,0,0,0,0,0,0,0,0,0,0,0,0,0,0,0,0,0,0,0,0,0,0,0,0,0,0,0,0,0,0,0,0,0,0,0,0,0,0,0,0,0,0,0,0,0,0,0,0,0,0,0,0,0,0,0,0,0,0,0,0,0,0,0,0,0,0,0,0,0,0,0,0,0,0,0,0,0,0,0,0,0,0,0,0,0,0,0,0,0,0,0,0,0,0,0,0,0,0,0,0,0,0,0,0,0,0,0,0,0,0,0,0,0,0,0,0,0,0,0,0,0,0,0,0,0,0,0,0,0,0,0,0,0,0,0,0,0,0,0,0,0,0,0,0,0,0,0,0,0,0,0,0,0,0,0,0,0,0,0,0,0,0,0,0,0,0,0,0,0,0,0,0,0,0,0,0,0,0,0,0,0,0,0,0,0,0,0,0,0,0,0,0,0,0,0,0,0,0,0,0,0,0,0,0,0,0,0,0,0,0,0,0,0,0,0,0,0,0,0,0,0,0,0,0,0,0,0,0,0,0,0,0,0,0,0,0,0,0,0,0,0,0,0,0,0,0,0,0,0,0,0,0,0,0,0,0,0,0,0,0,0,0,0,0,0,0,0,0,0,0,0,0,0,0,0,0,0,0,0,0,0,0,0,0,0,0,0,0,0,0,0,0,0,0,0,0,0,0,0,0,0,0,0,0,0,0,0,0,0,0,0,0,0,0,0,0,0,0,0,0,0,0,0,0,0,0,0,0,0,0,0,0,0,0,0,0,0,0,0,0,0,0.0184,0,0,0,0,0,0,0,0,0,0,0,0,0,0,0,0,0,0,0,0,0,0,0,0,0,0,0,0,0,0,0,0,0,0,0,0,0,0,0,0,0,-0.0003,0.0049,0.0096,0.014,0.0137,0.0165,0,0,0,0,0,0,0,0,0,0,0,0,0,0,0,0,0,0,0,0,0,0,0,0,0,0,0,0,0,0,0,0,0,0,0,0,0,0,0.0214,-0.0184,-0.0129,-0.0022,0.0041,0.0088,0.0129,0.0126,0.0121,0,0,0,0,0,0,0,0,0,0,0,0,0,0,0,0,0,0,0,0,0,0,0,0,0,0,0,0,0,0,0,0,0,0,0,0,0.0244,0.0288,0.0107,-0.0187,-0.0088,-0.0003,0.0044,0.008,0.0104,0.0096,0.0082,0,0,0,0,0,0,0,0,0,0,0,0,0,0,0,0,0,0,0,0,0,0,0,0,0,0,0,0,0,-0.0184,-0.0168,-0.0104,0.0019,0.0088,0.0151,0.0074,-0.003,-0.0036,-0.0077,-0.0104,-0.0014,0.0019,0.0036,0.0052,0.0066,0.0063,0.0093,0,0,0,0,0,0.0036,0.0179,0,0,0,0,0,0,0,0,0,0,0,0,0,0,0,0,0,0,0,-0.0121,-0.017,-0.0222,-0.022,-0.0201,-0.0124,-0.0011,0.014,0.0283,0.0077,-0.011,-0.0143,-0.0137,-0.0052,0.0019,0.0019,0.0038,0.0055,0.008,0.0118,0.022,0.0074,0.0044,-0.0269,0.0014,0.0033,0.0291,0.0503,0.0165,-0.0225,-0.0154,-0.0085,0,0.0283,0,-0.0027,-0.0173,-0.0129,-0.0091,-0.0085,-0.0071,-0.0036,-0.0014,-0.0027,-0.0041,-0.0066,-0.011,-0.0159,-0.0198,-0.0211,-0.0211,-0.0211,-0.0107,0.0,0.0157,0.0266,-0.0047,-0.0209,-0.0211,-0.0146,-0.0027,0.0005,0.0025,0.0069,0.0126,0.0228,0.0338,0.0475,-0.0019,-0.0016,-0.0096,0.0003,-0.0014,-0.0157,-0.0157,0.033,0.0321,-0.0088,-0.0146,0.0,0.0168,-0.0165,-0.0255,-0.022,-0.0192,-0.014,-0.0132,-0.0113,-0.008,-0.0047,-0.0047,-0.0063,-0.0093,-0.0124,-0.0146,-0.0148,-0.0151,-0.019,-0.0244,-0.0074,0.0118,0.0143,0.0085,-0.0203,-0.0277,-0.0228,-0.0126,-0.0047,0.0,0.006,0.0157,0.0321,0.0541,0.0747,0.0838,-0.0148,-0.0124,-0.0041,0.0159,0.019,-0.0016,-0.0407,-0.0135,-0.0115,0.0058,0.0069,-0.0025,-0.0124,-0.0313,-0.028,-0.0247,-0.0211,-0.017,-0.0157,-0.0135,-0.0107,-0.008,-0.0069,-0.0071,-0.0085,-0.0099,-0.0102,-0.0102,-0.0121,-0.0195,-0.0291,-0.0137,0.017,0.0118,-0.0082,-0.0305,-0.0297,-0.0181,-0.0099,-0.0063,0.0027,0.0176,0.0412,0.0733,0.0964,0.1041,0.0992,-0.0225,-0.0217,-0.0143,0.0091,0.0288,0.0302,0.0088,-0.0132,-0.0247,-0.0019,-0.0085,-0.0162,-0.0217,-0.0258,-0.0258,-0.0258,-0.0211,-0.0184,-0.0159,-0.0135,-0.0113,-0.0091,-0.0066,-0.0041,-0.003,-0.0038,-0.0049,-0.0063,-0.0096,-0.0176,-0.028,-0.0261,-0.0022,0.0077,-0.0074,-0.0269,-0.0253,-0.0093,0.0008,0.017,0.0387,0.0678,0.0986,0.1203,0.1263,0.1198,0.1022,-0.0231,-0.0239,-0.0203,-0.0069,0.0121,0.0225,0.0206,0.0137,0.0058,0.0,-0.0154,-0.0225,-0.0266,-0.0283,-0.0275,-0.0255,-0.0217,-0.0192,-0.0159,-0.0126,-0.0102,-0.008,-0.0044,0.0008,0.0041,0.003,0.0008,-0.0011,-0.0033,-0.0088,-0.0162,-0.0206,-0.0137,0.0014,-0.0003,-0.0058,0.0066,0.0299,0.05,0.0725,0.1014,0.1318,0.148,0.145,0.134,0.1203,0.0945,-0.0151,-0.0154,-0.0132,-0.0071,-0.0005,0.0027,0.0033,0.0041,0.006,-0.0022,-0.0113,-0.0195,-0.0247,-0.0272,-0.0275,-0.0264,-0.0236,-0.0209,-0.0165,-0.0118,-0.0088,-0.0066,-0.0016,0.0058,0.0104,0.0093,0.0074,0.0058,0.0038,0.0003,-0.0041,-0.0069,-0.0038,0.003,0.0066,0.0253,0.0588,0.0854,0.1077,0.1239,0.1439,0.153,0.1442,0.1346,0.117,0.0945,0.0659,-0.0096,-0.0074,-0.0016,0.0069,0.0091,0.0052,-0.0055,-0.0038,0.0041,-0.0038,-0.0126,-0.0195,-0.0217,-0.0239,-0.0269,-0.0288,-0.0277,-0.0244,-0.0184,-0.0113,-0.0069,-0.0041,0.0016,0.0096,0.014,0.0135,0.0132,0.0121,0.0102,0.0074,0.0041,0.0016,0.0033,0.0099,0.0272,0.0632,0.0986,0.1167,0.1285,0.1404,0.145,0.1349,0.1225,0.1071,0.0906,0.0722,0.0464,-0.0069,0.0014,0.0198,0.0324,0.0313,0.0236,0.0036,-0.0063,-0.0099,-0.0258,-0.0151,-0.0162,-0.0222,-0.0228,-0.0272,-0.0327,-0.0346,-0.0313,-0.0225,-0.0113,-0.0044,0.0003,0.0058,0.0115,0.0137,0.0148,0.0165,0.0165,0.0159,0.0135,0.011,0.0082,0.011,0.0324,0.0577,0.0813,0.1011,0.1145,0.1266,0.1332,0.1288,0.1121,0.0961,0.0851,0.0742,0.0596,0.0341,-0.0016,0.0206,0.0456,0.0494,0.0426,0.033,0.0159,-0.0025,-0.0242,-0.0514,-0.05,-0.0291,-0.0173,-0.0247,-0.0299,-0.0371,-0.0415,-0.0407,-0.0308,-0.0148,-0.003,0.0052,0.0102,0.0113,0.0102,0.0132,0.017,0.019,0.0201,0.019,0.0173,0.0154,0.0294,0.0519,0.0637,0.0739,0.0934,0.1162,0.134,0.1321,0.117,0.0945,0.0788,0.0717,0.0632,0.0478,0.0225,0.0036,0.0387,0.0519,0.0453,0.0407,0.0368,0.0275,0.0176,-0.0033,-0.0365,-0.0753,-0.0772,-0.0316,-0.0258,-0.0343,-0.0404,-0.0453,-0.0467,-0.0396,-0.0225,-0.0047,0.0074,0.0126,0.0093,0.0047,0.008,0.014,0.019,0.0222,0.0239,0.0239,0.0269,0.0415,0.0475,0.0522,0.0753,0.1046,0.1318,0.1472,0.1382,0.1126,0.0873,0.0717,0.0623,0.05,0.0319,0.0088,0.0126,0.0475,0.0547,0.0472,0.0445,0.0409,0.0338,0.0266,0.0137,-0.0016,-0.0412,-0.0931,-0.0678,-0.0343,-0.0387,-0.0431,-0.0459,-0.0467,-0.0431,-0.0297,-0.0091,0.0052,0.0102,0.0063,-0.0011,-0.0005,0.0069,0.017,0.0264,0.0308,0.0341,0.0396,0.0423,0.0448,0.0604,0.0895,0.1233,0.1491,0.1579,0.1439,0.1145,0.0884,0.0711,0.0574,0.0398,0.0195,-0.0019,0.0286,0.0536,0.0654,0.0623,0.0552,0.0426,0.0299,0.0179,0.0044,-0.0055,-0.0236,-0.0662,-0.0816,-0.0569,-0.0467,-0.047,-0.0461,-0.0445,-0.0415,-0.0319,-0.0124,0.0011,0.0044,0.0011,-0.0077,-0.0121,-0.0096,0.0211,0.0445,0.0453,0.0503,0.0538,0.0558,0.061,0.0816,0.1099,0.1412,0.1623,0.1651,0.145,0.1145,0.0893,0.0747,0.0607,0.0434,0.0244,0.0036,0.0272,0.0615,0.0788,0.0747,0.0626,0.0453,0.0277,0.0137,0.0025,-0.0135,-0.0283,-0.0511,-0.078,-0.0772,-0.0599,-0.0525,-0.0472,-0.0431,-0.0396,-0.0299,-0.0118,-0.0005,0.0019,-0.0014,-0.0077,-0.0052,0.0085,0.058,0.0876,0.0821,0.0772,0.0747,0.0788,0.0862,0.1099,0.1398,0.1648,0.1774,0.1695,0.1415,0.1093,0.0876,0.0772,0.0656,0.0525,0.0382,0.0206]}],[{"header":{"parameterUnit":"m.s-1","parameterCategory":2,"la1":30.8641,"la2":29.7642,"lo1":-88.4676,"lo2":-86.9344,"dy":0.0333,"dx":0.0333,"nx":47,"ny":34,"refTime":"2024-12-21T00:00:00:Z","depth":"15","parameterNumber":2,"parameterNumberName":"U-component_of_CURRENTS"},"data":[0,0,0,0,0,0,0,0,0,0,0,0,0,0,0,0,0,0,0,0,0,0,0,0,0,0,0,0,0,0,0,0,0,0,0,0,0,0,0,0,0,0,0,0,0,0,0,0,0,0,0,0,0,0,0,0,0,0,0,0,0,0,0,0,0,0,0,0,0,0,0,0,0,0,0,0,0,0,0,0,0,0,0,0,0,0,0,0,0,0,0,0,0,0,0,0,0,0,0,0,0,0,0,0,0,0,0,0,0,0,0,0,0,0,0,0,0,0,0,0,0,0,0,0,0,0,0,0,0,0,0,0,0,0,0,0,0,0,0,0,0,0,0,0,0,0,0,0,0,0,0,0,0,0,0,0,0,0,0,0,0,0,0,0,0,0,0,0,0,0,0,0,0,0,0,0,0,0,0,0,0,0,0,0,0,0,0,0,0,0,0,0,0,0,0,0,0,0,0,0,0,0,0,0,0,0,0,0,0,0,0,0,0,0,0,0,0,0,0,0,0,0,0,0,0,0,0,0,0,0,0,0,0,0,0,0,0,0,0,0,0,0,0,0,0,0,0,0,0,0,0,0,0,0,0,0,0,0,0,0,0,0,0,0,0,0,0,0,0,0,0,0,0,0,0,0,0,0,0,0,0,0,0,0,0,0,0,0,0,0,0,0,0,0,0,0,0,0,0,0,0,0,0,0,0,0,0,0,0,0,0,0,0,0,0,0,0,0,0,0,0,0,0,0,0,0,0,0,0,0,0,0,0,0,0,0,0,0,0,0,0,0,0,0,0,0,0,0,0,0,0,0,0,0,0,0,0,0,0,0,0,0,0,0,0,0,0,0,0,0,0,0,0,0,0,0,0,0,0,0,0,0,0,0,0,0,0,0,0,0,0,0,0,0,0,0,0,0,0,0,0,0,0,0,0,0,0,0,0,0,0,0,0,0,0,0,0,0,0,0,0,0,0,0,0,0,0,0,0,0,0,0,0,0,0,0,0,0,0,0,0,0,0,0,0,0,0,0,0,0,0,0,0,0,0,0,0,0,0,0,0,0,0,0,0,0,0,0,0,0,0,0,0,0,0,0,0,0,0,0,0,0,0,0,0,0,0,0,0,0,0,0,0,0,0,0,0,0,0,0,0,0,0,0,0,0,0,0,0,0,0,0,0,0,0,0,0,0,0,0,0,0,0,0,0,0,0,0,0,0,0,0,0,0,0,0,0,0,0,0,0,0,0,0,0,0,0,0,0,0,0,0,0,0,0,0,0,0,0,0,0,0,0,0,0,0,0,0,0,0,0,0,0,0,0,0,0,0,0,0,0,0,0,0,0,0,0,0,0,0,0,0,0,0,0,0,0,0,0,0,0,0,0,0,0,0,0,0,0,0,0,0,0,0,0,0,0,0,0,0,0,0,0,0,0,0,0,0,0,0,0,0,0,0,0,0,0,0,0,0,0,0,0,0,0,0,0,0,0,0,0,0,0,0,0,0,0,0,0,0,0,0,0,0,0,0,0,0,0,0,0,0,0,0,0,0,0,0,0,0,0,0,0,0,0,0,0,0,0,0,0,0,0,0,0,0,0,0,0,0,0,0,0,0,0,0,0,0,0,0,0,0,0,0,0,0,0,0,0,0,0,0,0,0,0,0,0,0,0,0,0,0,0,0,0,0,0,0,0,0,0,0,0,0,0,0,0,0,0,0,0,0.0093,0,0,0,0,0,0,0,0,0,0,0,0,0,0,0,0,0,0,0,0,0,0,0,0,0,0,0,0,0,0,0,0,0,0,0,0,0,0,0,0,0,0,-0.0126,-0.0047,0.0063,0.0187,0.025,0,0,0,0,0,0,0,0,0,0,0,0,0,0,0,0,0,0,0,0,0,0,0,0,0,0,0,0,0,0,0,0,0,0,0,0,0,0,0,0,0,0.0201,0.0209,0.0217,0.0217,0.022,0.022,0,0,0,0,0,0,0,0,0,0,0,0,0,0,0,0,0,0,0,0,0,0,0,0,0,0,0,0,0,0,0,0,0,0,0,0,0,0,0.0082,0.0074,0.0129,0.0176,0.0203,0.0211,0.0209,0.0195,0.0179,0,0,0,0,0,0,0,0,0,0,0,0,0,0,0,0,0,0,0,0,0,0,0,0,0,0,0,0,0,0,0,0,0,0,0,0.0148,0.0129,0.0041,-0.0036,-0.0038,0.0041,0.0102,0.0115,0.0107,0.0082,0.0063,0.0091,0,0,0,0,0,0,0,0,0,0,0,0,0,0,0,0,0,0,0,0,0,0,0,0,0,0,0,0,-0.0179,-0.0176,-0.0146,-0.0118,-0.014,-0.014,-0.0066,-0.0025,-0.0041,-0.0096,-0.0137,-0.011,-0.0082,-0.0085,-0.0074,-0.0038,0.0022,0.0118,0.0269,0,0,0,0,0,0,-0.0016,0.0244,0,0,0,0,0,0,0,0,0,0,0,0,0,0,0,0,0,0,-0.0159,-0.0126,-0.008,-0.0036,-0.0041,-0.0077,-0.0038,0.0052,0.0036,-0.0069,-0.0129,-0.017,-0.0165,-0.0148,-0.0146,-0.0132,-0.0091,-0.0011,0.0137,0.039,0.0725,0,0,-0.0305,0.0113,0.0343,0.0036,-0.0324,-0.0137,0.022,0.0341,0.0393,0,0,0,0,0,0,0,0,0,0,0,0,0,-0.0203,-0.019,-0.0159,-0.0104,-0.0041,0.0,-0.0027,-0.0027,0.0096,0.0165,0.0049,-0.0085,-0.0137,-0.0148,-0.0132,-0.0126,-0.0124,-0.0082,0.0016,0.0217,0.0571,0.1008,0.1434,-0.0483,-0.0508,-0.0409,-0.0096,0.0335,0.0626,0.0151,-0.0439,-0.0387,-0.0233,-0.0198,-0.0176,-0.0255,-0.0266,-0.0192,-0.0176,-0.0187,-0.019,-0.019,-0.0181,-0.0173,-0.017,-0.017,-0.0154,-0.0113,-0.0049,0.0014,0.0063,0.0085,0.0077,0.0014,-0.0085,-0.0082,0.0011,-0.0022,-0.0082,-0.006,-0.0025,0.0036,0.0055,0.008,0.0181,0.0431,0.0835,0.1299,0.1763,0.214,-0.0475,-0.0527,-0.0555,-0.0486,-0.0294,0.0022,0.0489,0.0492,0.0319,0.0288,0.0091,-0.0074,-0.0179,-0.0222,-0.0236,-0.0244,-0.0244,-0.0247,-0.0244,-0.0231,-0.0211,-0.0192,-0.0162,-0.011,-0.0033,0.0044,0.0102,0.0137,0.0168,0.0214,0.0275,0.022,-0.0038,-0.0236,-0.0214,-0.0074,0.0137,0.0297,0.0376,0.0481,0.0711,0.1088,0.1502,0.187,0.2214,0.2425,0.248,-0.0371,-0.033,-0.0305,-0.0335,-0.039,-0.0409,-0.0374,-0.0305,-0.0266,-0.0291,-0.0308,-0.0275,-0.0264,-0.0264,-0.0269,-0.0277,-0.0286,-0.0297,-0.0299,-0.0288,-0.0266,-0.0244,-0.0214,-0.0165,-0.0099,-0.0027,0.0033,0.0093,0.0165,0.025,0.036,0.0497,0.0623,0.0673,0.0634,0.0629,0.0761,0.1033,0.1393,0.1744,0.2071,0.2337,0.2568,0.264,0.2579,0.253,0.2464,-0.0118,-0.003,0.0063,0.0146,0.017,0.0082,-0.0118,-0.0313,-0.0379,-0.0352,-0.0316,-0.0299,-0.0283,-0.0261,-0.0247,-0.0255,-0.028,-0.0305,-0.0321,-0.0321,-0.0308,-0.0288,-0.0255,-0.0206,-0.014,-0.0069,0.0005,0.0082,0.0157,0.0236,0.0324,0.0423,0.0516,0.0588,0.0665,0.0851,0.1173,0.1533,0.1876,0.2219,0.2467,0.2609,0.2607,0.2571,0.2505,0.2365,0.22,0.0181,0.0176,0.0195,0.0242,0.0299,0.0396,0.053,0.0453,0.0181,-0.0016,-0.0107,-0.0148,-0.0165,-0.0157,-0.0151,-0.017,-0.0211,-0.0261,-0.0291,-0.0299,-0.028,-0.0244,-0.0198,-0.0146,-0.0099,-0.0055,-0.0003,0.0058,0.0126,0.0198,0.0272,0.0349,0.0426,0.0511,0.0662,0.0939,0.1288,0.1648,0.1967,0.22,0.2304,0.2387,0.2442,0.2387,0.2269,0.2129,0.1989,0.0137,0.0126,0.0195,0.0335,0.0486,0.0615,0.0722,0.0742,0.0667,0.0492,0.0239,0.0099,0.0058,0.003,0.0014,-0.0016,-0.0077,-0.0157,-0.022,-0.0239,-0.022,-0.017,-0.011,-0.0066,-0.0052,-0.0044,-0.0019,0.0022,0.008,0.0146,0.0214,0.0286,0.036,0.05,0.0711,0.0967,0.1195,0.1406,0.1626,0.1854,0.2076,0.2195,0.2211,0.2145,0.206,0.1989,0.192,0.0082,0.0115,0.0247,0.039,0.0516,0.0621,0.0706,0.0742,0.0703,0.0733,0.0733,0.045,0.0225,0.019,0.0162,0.0129,0.0082,0.0011,-0.008,-0.0146,-0.0154,-0.011,-0.0052,-0.0019,-0.0027,-0.0041,-0.0038,-0.0011,0.003,0.0082,0.0143,0.0214,0.0335,0.0527,0.0695,0.0788,0.0887,0.1104,0.136,0.159,0.181,0.1925,0.1947,0.1942,0.1934,0.1912,0.189,-0.0085,0.0008,0.0187,0.0324,0.0426,0.0541,0.0692,0.0827,0.0829,0.0722,0.0689,0.075,0.0563,0.0327,0.0264,0.0233,0.0211,0.0181,0.0126,0.0049,-0.0003,-0.0005,0.0011,0.0019,0.0,-0.0036,-0.0063,-0.0066,-0.0038,0.0019,0.0096,0.0203,0.0404,0.0538,0.0505,0.0566,0.0755,0.0997,0.1277,0.1524,0.1706,0.1799,0.1829,0.1868,0.1917,0.1939,0.1936,-0.0121,0.0184,0.0398,0.0478,0.0582,0.0678,0.0764,0.0873,0.0981,0.1022,0.0972,0.0992,0.0923,0.061,0.0368,0.0321,0.0305,0.0308,0.0302,0.0264,0.0206,0.0151,0.0099,0.0055,0.0025,-0.0025,-0.0099,-0.0135,-0.0085,0.0019,0.0151,0.0327,0.0464,0.0538,0.0596,0.0744,0.1,0.1244,0.1464,0.1645,0.1763,0.1805,0.1818,0.1849,0.1898,0.1947,0.1989,0.0044,0.0313,0.0618,0.0775,0.0791,0.0797,0.0797,0.0829,0.0904,0.0945,0.1,0.1038,0.1049,0.0879,0.0571,0.0401,0.0365,0.0357,0.0363,0.0352,0.0321,0.0286,0.0242,0.0181,0.011,-0.0011,-0.0206,-0.0272,-0.0099,0.014,0.0341,0.0558,0.0731,0.0846,0.1,0.1209,0.1437,0.1634,0.1758,0.181,0.1813,0.1794,0.1777,0.1785,0.1835,0.1912,0.1994,0.0143,0.0459,0.0654,0.0739,0.0731,0.0678,0.0684,0.0695,0.0722,0.0731,0.0742,0.084,0.0959,0.0937,0.0692,0.0464,0.0398,0.0374,0.0357,0.0341,0.033,0.0327,0.0327,0.0338,0.0357,0.0396,0.0379,0.036,0.0439,0.0574,0.0731,0.0909,0.1074,0.1247,0.1461,0.1678,0.1881,0.2013,0.203,0.1942,0.1816,0.1736,0.1692,0.1673,0.1722,0.1824,0.1953]},{"header":{"parameterUnit":"m.s-1","parameterCategory":2,"la1":30.8641,"la2":29.7642,"lo1":-88.4676,"lo2":-86.9344,"dy":0.0333,"dx":0.0333,"nx":47,"ny":34,"refTime":"2024-12-21T00:00:00:Z","depth":"15","parameterNumber":3,"parameterNumberName":"V-component_of_CURRENTS"},"data":[0,0,0,0,0,0,0,0,0,0,0,0,0,0,0,0,0,0,0,0,0,0,0,0,0,0,0,0,0,0,0,0,0,0,0,0,0,0,0,0,0,0,0,0,0,0,0,0,0,0,0,0,0,0,0,0,0,0,0,0,0,0,0,0,0,0,0,0,0,0,0,0,0,0,0,0,0,0,0,0,0,0,0,0,0,0,0,0,0,0,0,0,0,0,0,0,0,0,0,0,0,0,0,0,0,0,0,0,0,0,0,0,0,0,0,0,0,0,0,0,0,0,0,0,0,0,0,0,0,0,0,0,0,0,0,0,0,0,0,0,0,0,0,0,0,0,0,0,0,0,0,0,0,0,0,0,0,0,0,0,0,0,0,0,0,0,0,0,0,0,0,0,0,0,0,0,0,0,0,0,0,0,0,0,0,0,0,0,0,0,0,0,0,0,0,0,0,0,0,0,0,0,0,0,0,0,0,0,0,0,0,0,0,0,0,0,0,0,0,0,0,0,0,0,0,0,0,0,0,0,0,0,0,0,0,0,0,0,0,0,0,0,0,0,0,0,0,0,0,0,0,0,0,0,0,0,0,0,0,0,0,0,0,0,0,0,0,0,0,0,0,0,0,0,0,0,0,0,0,0,0,0,0,0,0,0,0,0,0,0,0,0,0,0,0,0,0,0,0,0,0,0,0,0,0,0,0,0,0,0,0,0,0,0,0,0,0,0,0,0,0,0,0,0,0,0,0,0,0,0,0,0,0,0,0,0,0,0,0,0,0,0,0,0,0,0,0,0,0,0,0,0,0,0,0,0,0,0,0,0,0,0,0,0,0,0,0,0,0,0,0,0,0,0,0,0,0,0,0,0,0,0,0,0,0,0,0,0,0,0,0,0,0,0,0,0,0,0,0,0,0,0,0,0,0,0,0,0,0,0,0,0,0,0,0,0,0,0,0,0,0,0,0,0,0,0,0,0,0,0,0,0,0,0,0,0,0,0,0,0,0,0,0,0,0,0,0,0,0,0,0,0,0,0,0,0,0,0,0,0,0,0,0,0,0,0,0,0,0,0,0,0,0,0,0,0,0,0,0,0,0,0,0,0,0,0,0,0,0,0,0,0,0,0,0,0,0,0,0,0,0,0,0,0,0,0,0,0,0,0,0,0,0,0,0,0,0,0,0,0,0,0,0,0,0,0,0,0,0,0,0,0,0,0,0,0,0,0,0,0,0,0,0,0,0,0,0,0,0,0,0,0,0,0,0,0,0,0,0,0,0,0,0,0,0,0,0,0,0,0,0,0,0,0,0,0,0,0,0,0,0,0,0,0,0,0,0,0,0,0,0,0,0,0,0,0,0,0,0,0,0,0,0,0,0,0,0,0,0,0,0,0,0,0,0,0,0,0,0,0,0,0,0,0,0,0,0,0,0,0,0,0,0,0,0,0,0,0,0,0,0,0,0,0,0,0,0,0,0,0,0,0,0,0,0,0,0,0,0,0,0,0,0,0,0,0,0,0,0,0,0,0,0,0,0,0,0,0,0,0,0,0,0,0,0,0,0,0,0,0,0,0,0,0,0,0,0,0,0,0,0,0,0,0,0,0,0,0,0,0,0,0,0,0,0,0,0,0,0,0,0,0,0,0,0,0,0,0,0,0,0,0,0,0,0,0,0,0,0,0,0,0,0,0,0,0,0,0,0,0,0,0.0198,0,0,0,0,0,0,0,0,0,0,0,0,0,0,0,0,0,0,0,0,0,0,0,0,0,0,0,0,0,0,0,0,0,0,0,0,0,0,0,0,0,0,0.006,0.0115,0.0157,0.0157,0.0181,0,0,0,0,0,0,0,0,0,0,0,0,0,0,0,0,0,0,0,0,0,0,0,0,0,0,0,0,0,0,0,0,0,0,0,0,0,0,0,0,0,-0.0016,0.0047,0.0096,0.0137,0.0137,0.0132,0,0,0,0,0,0,0,0,0,0,0,0,0,0,0,0,0,0,0,0,0,0,0,0,0,0,0,0,0,0,0,0,0,0,0,0,0,0,0.0096,-0.0181,-0.008,0.0005,0.0052,0.0088,0.011,0.0099,0.0082,0,0,0,0,0,0,0,0,0,0,0,0,0,0,0,0,0,0,0,0,0,0,0,0,0,0,0,0,0,0,0,0,0,0,0,0.008,-0.0022,-0.0027,-0.0066,-0.0093,0.0,0.003,0.0044,0.0058,0.0066,0.006,0.0088,0,0,0,0,0,0,0,0,0,0,0,0,0,0,0,0,0,0,0,0,0,0,0,0,0,0,0,0,-0.0201,-0.0184,-0.0143,-0.0088,0.0011,0.0135,0.0283,0.0157,-0.0069,-0.0129,-0.0124,-0.0041,0.0022,0.0019,0.0036,0.0049,0.0074,0.0113,0.0211,0,0,0,0,0,0,0.0055,0.0022,0,0,0,0,0,0,0,0,0,0,0,0,0,0,0,0,0,0,-0.0146,-0.0176,-0.0192,-0.0195,-0.019,-0.0093,0.0005,0.0137,0.0261,0.0082,-0.0176,-0.0198,-0.0137,-0.0027,0.0003,0.0019,0.0063,0.0121,0.0222,0.033,0.0467,0,0,-0.0044,0.0019,-0.0159,-0.0206,-0.003,-0.0011,0.011,-0.0019,-0.003,0,0,0,0,0,0,0,0,0,0,0,0,0,-0.0074,-0.0096,-0.0121,-0.0132,-0.0137,-0.0179,-0.0231,-0.0063,0.0124,0.0146,0.0104,-0.0135,-0.0258,-0.0222,-0.0124,-0.0047,0.0,0.0058,0.0154,0.0319,0.0533,0.0733,0.0827,-0.0066,-0.0063,0.0041,0.0201,0.0203,-0.0126,-0.0368,-0.0036,-0.0093,0.0003,0.0071,0.0036,-0.0041,-0.025,-0.0253,-0.0222,-0.0192,-0.0157,-0.014,-0.0118,-0.0088,-0.0058,-0.0041,-0.0044,-0.0063,-0.0082,-0.0091,-0.0093,-0.0113,-0.0187,-0.0283,-0.0115,0.0203,0.0157,-0.003,-0.0272,-0.0286,-0.0179,-0.0099,-0.0063,0.0027,0.0173,0.0401,0.0717,0.0942,0.1022,0.0983,-0.0184,-0.0181,-0.0091,0.0157,0.0335,0.0352,0.0085,0.0044,-0.0217,-0.0011,-0.008,-0.0151,-0.0203,-0.0244,-0.0247,-0.0242,-0.0198,-0.017,-0.0151,-0.0126,-0.0104,-0.008,-0.0055,-0.0036,-0.003,-0.0038,-0.0052,-0.0069,-0.0102,-0.0179,-0.028,-0.0247,0.0,0.0107,-0.0025,-0.0244,-0.0236,-0.0088,-0.0027,0.0066,0.0258,0.0544,0.0868,0.1156,0.1244,0.1187,0.1019,-0.0211,-0.0222,-0.019,-0.0047,0.0146,0.025,0.0261,0.0253,0.0137,0.0036,-0.014,-0.0214,-0.0258,-0.0275,-0.0266,-0.025,-0.0211,-0.0187,-0.0157,-0.0124,-0.0102,-0.0082,-0.0047,0.0,0.0033,0.0019,-0.0003,-0.0022,-0.0044,-0.0096,-0.0173,-0.0214,-0.0146,0.0011,0.0003,-0.0058,0.0019,0.0154,0.0272,0.0439,0.0733,0.1044,0.1327,0.1428,0.1329,0.12,0.0945,-0.0148,-0.0154,-0.0135,-0.0077,-0.0011,0.0016,0.0022,0.0063,0.0077,-0.0014,-0.0104,-0.019,-0.0242,-0.0269,-0.0272,-0.0261,-0.0233,-0.0206,-0.0165,-0.0121,-0.0091,-0.0071,-0.0025,0.0049,0.0096,0.0085,0.0066,0.0049,0.003,-0.0003,-0.0049,-0.0077,-0.0049,0.0016,0.0052,0.0198,0.039,0.0536,0.0711,0.0895,0.1192,0.1404,0.1426,0.134,0.117,0.0945,0.0662,-0.0104,-0.0088,-0.003,0.0041,0.006,0.0011,-0.0124,-0.0151,-0.0066,-0.0071,-0.0129,-0.0195,-0.0217,-0.0239,-0.0269,-0.0286,-0.0275,-0.0242,-0.0187,-0.0115,-0.0074,-0.0047,0.0011,0.0091,0.0135,0.0132,0.0126,0.0115,0.0096,0.0069,0.0038,0.0011,0.0027,0.0091,0.0258,0.0549,0.0764,0.0928,0.1121,0.1305,0.1406,0.1343,0.1225,0.1077,0.0912,0.0728,0.0464,-0.0091,-0.0019,0.0113,0.0195,0.0176,0.0093,-0.0143,-0.0305,-0.0352,-0.0387,-0.0261,-0.0203,-0.0228,-0.0231,-0.0275,-0.0327,-0.0343,-0.031,-0.0225,-0.0115,-0.0047,0.0,0.0055,0.0113,0.0135,0.0146,0.0159,0.0159,0.0154,0.0132,0.0104,0.0077,0.0104,0.031,0.0558,0.0788,0.0964,0.1129,0.1261,0.1329,0.1288,0.1126,0.0967,0.086,0.0747,0.0602,0.0343,-0.0071,0.0096,0.0275,0.0277,0.019,0.0096,-0.0085,-0.0321,-0.0541,-0.064,-0.0602,-0.0431,-0.0225,-0.0253,-0.0302,-0.0374,-0.0417,-0.0404,-0.0305,-0.0146,-0.0027,0.0052,0.0104,0.0113,0.0102,0.0129,0.0168,0.0187,0.0198,0.0184,0.0168,0.0148,0.0283,0.0508,0.0626,0.0733,0.0931,0.1162,0.1338,0.1324,0.1173,0.095,0.0794,0.0722,0.0634,0.0481,0.0228,-0.0099,0.0195,0.0319,0.0272,0.0253,0.0228,0.0135,-0.011,-0.0368,-0.0552,-0.0821,-0.0865,-0.0415,-0.0272,-0.0346,-0.0407,-0.0456,-0.0467,-0.0393,-0.022,-0.0041,0.008,0.0132,0.0096,0.0049,0.0082,0.0143,0.019,0.0222,0.0236,0.0233,0.0266,0.0409,0.0472,0.0522,0.0753,0.1046,0.1318,0.1472,0.1382,0.1132,0.0876,0.072,0.0626,0.05,0.0319,0.0091,-0.0121,0.0159,0.0264,0.0291,0.0349,0.0357,0.031,0.0162,-0.0052,-0.0244,-0.0571,-0.1014,-0.0799,-0.0379,-0.039,-0.0434,-0.0461,-0.0472,-0.0431,-0.0294,-0.0085,0.0055,0.0104,0.0069,-0.0005,0.0,0.0071,0.0173,0.0266,0.031,0.0341,0.0396,0.0423,0.045,0.0607,0.0898,0.1233,0.1491,0.1579,0.1439,0.1148,0.0884,0.0711,0.0574,0.0398,0.0195,-0.0022,-0.0115,0.0049,0.0217,0.0379,0.0445,0.0398,0.0288,0.0165,0.0025,-0.0082,-0.0308,-0.0777,-0.0912,-0.0604,-0.0472,-0.0472,-0.0464,-0.045,-0.042,-0.0321,-0.0126,0.0008,0.0041,0.0014,-0.0071,-0.0113,-0.0085,0.0214,0.0448,0.0456,0.0505,0.0541,0.0558,0.0613,0.0816,0.1101,0.1412,0.1623,0.1651,0.1453,0.1148,0.0893,0.0747,0.0604,0.0434,0.0242,0.0036,-0.0258,0.0107,0.0363,0.0541,0.0571,0.0442,0.0275,0.0135,0.0022,-0.0137,-0.0288,-0.053,-0.0808,-0.0786,-0.0604,-0.0527,-0.0478,-0.0437,-0.0404,-0.0308,-0.0126,-0.0011,0.0014,-0.0016,-0.008,-0.0058,0.0052,0.0508,0.0835,0.081,0.0769,0.0744,0.0788,0.0862,0.1096,0.1395,0.1645,0.1772,0.1695,0.1415,0.1093,0.0876,0.0772,0.0656,0.0525,0.0379,0.0203]}],[{"header":{"parameterUnit":"m.s-1","parameterCategory":2,"la1":30.8641,"la2":29.7642,"lo1":-88.4676,"lo2":-86.9344,"dy":0.0333,"dx":0.0333,"nx":47,"ny":34,"refTime":"2024-12-21T00:00:00:Z","depth":"20","parameterNumber":2,"parameterNumberName":"U-component_of_CURRENTS"},"data":[0,0,0,0,0,0,0,0,0,0,0,0,0,0,0,0,0,0,0,0,0,0,0,0,0,0,0,0,0,0,0,0,0,0,0,0,0,0,0,0,0,0,0,0,0,0,0,0,0,0,0,0,0,0,0,0,0,0,0,0,0,0,0,0,0,0,0,0,0,0,0,0,0,0,0,0,0,0,0,0,0,0,0,0,0,0,0,0,0,0,0,0,0,0,0,0,0,0,0,0,0,0,0,0,0,0,0,0,0,0,0,0,0,0,0,0,0,0,0,0,0,0,0,0,0,0,0,0,0,0,0,0,0,0,0,0,0,0,0,0,0,0,0,0,0,0,0,0,0,0,0,0,0,0,0,0,0,0,0,0,0,0,0,0,0,0,0,0,0,0,0,0,0,0,0,0,0,0,0,0,0,0,0,0,0,0,0,0,0,0,0,0,0,0,0,0,0,0,0,0,0,0,0,0,0,0,0,0,0,0,0,0,0,0,0,0,0,0,0,0,0,0,0,0,0,0,0,0,0,0,0,0,0,0,0,0,0,0,0,0,0,0,0,0,0,0,0,0,0,0,0,0,0,0,0,0,0,0,0,0,0,0,0,0,0,0,0,0,0,0,0,0,0,0,0,0,0,0,0,0,0,0,0,0,0,0,0,0,0,0,0,0,0,0,0,0,0,0,0,0,0,0,0,0,0,0,0,0,0,0,0,0,0,0,0,0,0,0,0,0,0,0,0,0,0,0,0,0,0,0,0,0,0,0,0,0,0,0,0,0,0,0,0,0,0,0,0,0,0,0,0,0,0,0,0,0,0,0,0,0,0,0,0,0,0,0,0,0,0,0,0,0,0,0,0,0,0,0,0,0,0,0,0,0,0,0,0,0,0,0,0,0,0,0,0,0,0,0,0,0,0,0,0,0,0,0,0,0,0,0,0,0,0,0,0,0,0,0,0,0,0,0,0,0,0,0,0,0,0,0,0,0,0,0,0,0,0,0,0,0,0,0,0,0,0,0,0,0,0,0,0,0,0,0,0,0,0,0,0,0,0,0,0,0,0,0,0,0,0,0,0,0,0,0,0,0,0,0,0,0,0,0,0,0,0,0,0,0,0,0,0,0,0,0,0,0,0,0,0,0,0,0,0,0,0,0,0,0,0,0,0,0,0,0,0,0,0,0,0,0,0,0,0,0,0,0,0,0,0,0,0,0,0,0,0,0,0,0,0,0,0,0,0,0,0,0,0,0,0,0,0,0,0,0,0,0,0,0,0,0,0,0,0,0,0,0,0,0,0,0,0,0,0,0,0,0,0,0,0,0,0,0,0,0,0,0,0,0,0,0,0,0,0,0,0,0,0,0,0,0,0,0,0,0,0,0,0,0,0,0,0,0,0,0,0,0,0,0,0,0,0,0,0,0,0,0,0,0,0,0,0,0,0,0,0,0,0,0,0,0,0,0,0,0,0,0,0,0,0,0,0,0,0,0,0,0,0,0,0,0,0,0,0,0,0,0,0,0,0,0,0,0,0,0,0,0,0,0,0,0,0,0,0,0,0,0,0,0,0,0,0,0,0,0,0,0,0,0,0,0,0,0,0,0,0,0,0,0,0,0,0,0,0,0,0,0,0,0,0,0,0,0,0,0,0,0,0,0,0,0,0,0,0,0,0,0,0,0,0,0,0,0,0,0,0,0,0,0,0,0,0,0,0,0,0,0,0,0,0,0,0,0,0,0,0,0,0,0,0,0,0,0,0,0,0,0,0,0,0,0,0,0,0,0,0,0,0,0,0,0,0,0,0,0,0,0,0,0.0187,0.0247,0,0,0,0,0,0,0,0,0,0,0,0,0,0,0,0,0,0,0,0,0,0,0,0,0,0,0,0,0,0,0,0,0,0,0,0,0,0,0,0,0,0,0,0,0.0214,0.0217,0.022,0,0,0,0,0,0,0,0,0,0,0,0,0,0,0,0,0,0,0,0,0,0,0,0,0,0,0,0,0,0,0,0,0,0,0,0,0,0,0,0,0,0.0179,0.0201,0.0206,0.0203,0.0195,0.0184,0,0,0,0,0,0,0,0,0,0,0,0,0,0,0,0,0,0,0,0,0,0,0,0,0,0,0,0,0,0,0,0,0,0,0,0,0,0,-0.0044,-0.0052,0.0038,0.0107,0.0121,0.0113,0.0091,0.0077,0.0102,0,0,0,0,0,0,0,0,0,0,0,0,0,0,0,0,0,0,0,0,0,0,0,0,0,0,0,0,0,0,0,0,0,0,0,0,0,-0.0115,-0.0151,-0.011,-0.0071,-0.0071,-0.006,-0.0027,0.0036,0.0132,0.0283,0,0,0,0,0,0,0,0,0,0,0,0,0,0,0,0,0,0,0,0,0,0,0,0,0,0,0,0,0,-0.0008,0.0198,0.0404,0.0396,0.0327,0.0055,-0.0201,-0.0192,-0.0184,-0.0162,-0.0132,-0.0126,-0.0115,-0.0074,0.0003,0.0148,0.0401,0.0733,0,0,0,0,0,0,0,0,0,0,0,0,0,0,0,0,0,0,0,0,0,0,0,0,0,0,0,0,-0.0027,0.0038,0.0209,0.0379,0.0464,0.056,0.0313,-0.0099,-0.0198,-0.0159,-0.0118,-0.0102,-0.0104,-0.0069,0.003,0.0231,0.0591,0.1033,0.1456,0,0,0,0,0,0,0,0,0,0,0,0,0,0,0,0,0,0,0,0,0,0,0,0,0,0,0.0025,0.0077,0.0102,0.0107,0.0154,0.0288,0.0514,0.0698,0.0656,0.0242,-0.0071,-0.003,0.0047,0.0074,0.011,0.022,0.047,0.0879,0.1329,0.1755,0.2142,0,0,0,0,0.0184,0.042,0.0426,0,0,0,0,0,0,0,0,0,0,0,0,0,0,0,0,0,-0.0016,0.0063,0.0118,0.0151,0.0179,0.0222,0.0286,0.0346,0.0291,0.0181,0.0198,0.0154,0.0168,0.0297,0.0409,0.0569,0.0753,0.1049,0.1467,0.184,0.2195,0.2434,0.2488,-0.033,-0.0294,-0.0261,-0.0228,-0.0107,0.0085,0.0239,0.0283,0.0261,0.0036,-0.0228,-0.0261,0,0,0,0,0,-0.0275,-0.0275,-0.0264,-0.0244,-0.022,-0.0187,-0.0135,-0.0071,-0.0008,0.0049,0.0107,0.0173,0.0253,0.036,0.0492,0.0621,0.0673,0.0659,0.0667,0.0764,0.0926,0.1154,0.1379,0.1656,0.1972,0.2321,0.2574,0.2593,0.2541,0.2467,-0.0096,-0.0014,0.0077,0.0157,0.0179,0.0093,-0.006,-0.0146,-0.0176,-0.0236,-0.0275,-0.0272,-0.0261,-0.0236,-0.022,-0.0228,-0.025,-0.0275,-0.0291,-0.0291,-0.028,-0.0258,-0.0225,-0.0179,-0.0118,-0.0052,0.0019,0.0096,0.0168,0.0242,0.0327,0.0423,0.0514,0.0585,0.0659,0.0777,0.0972,0.1184,0.1395,0.1722,0.2085,0.2381,0.2571,0.2582,0.2513,0.2368,0.2203,0.0206,0.0198,0.0225,0.0283,0.0341,0.0382,0.0277,0.0179,0.0143,0.0011,-0.0093,-0.0137,-0.0151,-0.0146,-0.0137,-0.0151,-0.019,-0.0236,-0.0266,-0.0272,-0.0255,-0.022,-0.0173,-0.0124,-0.008,-0.0038,0.0011,0.0071,0.0135,0.0206,0.0277,0.0354,0.0431,0.0516,0.0656,0.0868,0.1093,0.1371,0.1686,0.2024,0.2293,0.2406,0.2453,0.2392,0.2271,0.2134,0.1994,0.0214,0.0214,0.028,0.0354,0.0368,0.0299,0.0159,0.0066,0.0063,0.011,0.0146,0.0124,0.0074,0.0038,0.0019,-0.0008,-0.006,-0.0129,-0.0187,-0.0211,-0.0195,-0.0148,-0.0088,-0.0044,-0.0033,-0.0027,-0.0003,0.0033,0.0088,0.0151,0.0222,0.0291,0.0368,0.0519,0.0725,0.0959,0.1195,0.1439,0.1659,0.1868,0.2085,0.22,0.2214,0.2148,0.2065,0.1997,0.1928,0.0231,0.0228,0.025,0.0225,0.0148,0.0077,-0.0027,-0.0162,-0.0129,-0.0022,0.0082,0.0179,0.0214,0.0201,0.0165,0.0129,0.0091,0.0033,-0.0047,-0.0113,-0.0129,-0.0088,-0.0027,0.0005,-0.0003,-0.0019,-0.0019,0.0003,0.0038,0.0088,0.0151,0.0225,0.0352,0.0549,0.0717,0.0808,0.0898,0.1115,0.1373,0.1599,0.1816,0.1925,0.1947,0.1947,0.1942,0.1923,0.1903,0.0074,0.0047,0.0107,0.0148,0.0192,0.0253,0.0206,0.0118,-0.0014,-0.0113,-0.0022,0.0118,0.0214,0.0286,0.0269,0.0233,0.0211,0.0192,0.0151,0.008,0.0025,0.0022,0.0038,0.0047,0.0027,-0.0011,-0.0041,-0.0049,-0.0025,0.0027,0.0104,0.0214,0.0417,0.0555,0.0522,0.0582,0.0769,0.1011,0.1291,0.153,0.1706,0.1796,0.1832,0.1873,0.1925,0.1947,0.1947,-0.0071,0.0019,0.014,0.0272,0.0437,0.0604,0.0643,0.0486,0.0316,0.0228,0.0192,0.0211,0.031,0.0382,0.036,0.0321,0.0305,0.0308,0.0313,0.0283,0.0231,0.0179,0.0126,0.0085,0.0058,0.0005,-0.0071,-0.011,-0.0066,0.0036,0.0162,0.0338,0.0475,0.0555,0.0613,0.0758,0.1016,0.1261,0.1478,0.1651,0.1763,0.1802,0.1818,0.1854,0.1903,0.1956,0.1997,-0.0049,-0.0154,-0.0165,0.0137,0.0505,0.072,0.0816,0.0854,0.0739,0.058,0.0374,0.0297,0.0426,0.0527,0.0478,0.0398,0.0363,0.0357,0.0365,0.0363,0.0343,0.031,0.0264,0.0203,0.0137,0.0027,-0.0159,-0.0231,-0.0066,0.0159,0.0357,0.0571,0.0742,0.0857,0.1014,0.1222,0.145,0.1648,0.1772,0.1816,0.1813,0.1791,0.178,0.1791,0.1843,0.1917,0.2,-0.0168,-0.0206,0.0,0.0211,0.0621,0.0753,0.0753,0.0769,0.0808,0.0808,0.0717,0.058,0.0555,0.0615,0.0569,0.0456,0.0398,0.0376,0.036,0.0349,0.0346,0.0343,0.0343,0.0352,0.0371,0.0415,0.0442,0.0472,0.0533,0.0613,0.0747,0.092,0.1085,0.1258,0.1472,0.1689,0.1892,0.2027,0.2041,0.1947,0.1816,0.1736,0.1692,0.1678,0.173,0.1829,0.1958]},{"header":{"parameterUnit":"m.s-1","parameterCategory":2,"la1":30.8641,"la2":29.7642,"lo1":-88.4676,"lo2":-86.9344,"dy":0.0333,"dx":0.0333,"nx":47,"ny":34,"refTime":"2024-12-21T00:00:00:Z","depth":"20","parameterNumber":3,"parameterNumberName":"V-component_of_CURRENTS"},"data":[0,0,0,0,0,0,0,0,0,0,0,0,0,0,0,0,0,0,0,0,0,0,0,0,0,0,0,0,0,0,0,0,0,0,0,0,0,0,0,0,0,0,0,0,0,0,0,0,0,0,0,0,0,0,0,0,0,0,0,0,0,0,0,0,0,0,0,0,0,0,0,0,0,0,0,0,0,0,0,0,0,0,0,0,0,0,0,0,0,0,0,0,0,0,0,0,0,0,0,0,0,0,0,0,0,0,0,0,0,0,0,0,0,0,0,0,0,0,0,0,0,0,0,0,0,0,0,0,0,0,0,0,0,0,0,0,0,0,0,0,0,0,0,0,0,0,0,0,0,0,0,0,0,0,0,0,0,0,0,0,0,0,0,0,0,0,0,0,0,0,0,0,0,0,0,0,0,0,0,0,0,0,0,0,0,0,0,0,0,0,0,0,0,0,0,0,0,0,0,0,0,0,0,0,0,0,0,0,0,0,0,0,0,0,0,0,0,0,0,0,0,0,0,0,0,0,0,0,0,0,0,0,0,0,0,0,0,0,0,0,0,0,0,0,0,0,0,0,0,0,0,0,0,0,0,0,0,0,0,0,0,0,0,0,0,0,0,0,0,0,0,0,0,0,0,0,0,0,0,0,0,0,0,0,0,0,0,0,0,0,0,0,0,0,0,0,0,0,0,0,0,0,0,0,0,0,0,0,0,0,0,0,0,0,0,0,0,0,0,0,0,0,0,0,0,0,0,0,0,0,0,0,0,0,0,0,0,0,0,0,0,0,0,0,0,0,0,0,0,0,0,0,0,0,0,0,0,0,0,0,0,0,0,0,0,0,0,0,0,0,0,0,0,0,0,0,0,0,0,0,0,0,0,0,0,0,0,0,0,0,0,0,0,0,0,0,0,0,0,0,0,0,0,0,0,0,0,0,0,0,0,0,0,0,0,0,0,0,0,0,0,0,0,0,0,0,0,0,0,0,0,0,0,0,0,0,0,0,0,0,0,0,0,0,0,0,0,0,0,0,0,0,0,0,0,0,0,0,0,0,0,0,0,0,0,0,0,0,0,0,0,0,0,0,0,0,0,0,0,0,0,0,0,0,0,0,0,0,0,0,0,0,0,0,0,0,0,0,0,0,0,0,0,0,0,0,0,0,0,0,0,0,0,0,0,0,0,0,0,0,0,0,0,0,0,0,0,0,0,0,0,0,0,0,0,0,0,0,0,0,0,0,0,0,0,0,0,0,0,0,0,0,0,0,0,0,0,0,0,0,0,0,0,0,0,0,0,0,0,0,0,0,0,0,0,0,0,0,0,0,0,0,0,0,0,0,0,0,0,0,0,0,0,0,0,0,0,0,0,0,0,0,0,0,0,0,0,0,0,0,0,0,0,0,0,0,0,0,0,0,0,0,0,0,0,0,0,0,0,0,0,0,0,0,0,0,0,0,0,0,0,0,0,0,0,0,0,0,0,0,0,0,0,0,0,0,0,0,0,0,0,0,0,0,0,0,0,0,0,0,0,0,0,0,0,0,0,0,0,0,0,0,0,0,0,0,0,0,0,0,0,0,0,0,0,0,0,0,0,0,0,0,0,0,0,0,0,0,0,0,0,0,0,0,0,0,0,0,0,0,0,0,0,0,0,0,0,0,0,0,0,0,0,0,0,0,0,0,0,0,0,0,0,0,0,0,0,0,0,0,0,0,0,0,0,0,0,0,0,0,0,0,0,0,0,0,0,0,0,0,0,0,0,0,0,0,0,0,0,0,0,0,0,0,0,0,0,0,0,0,0,0,0,0,0,0,0,0.0184,0.0201,0,0,0,0,0,0,0,0,0,0,0,0,0,0,0,0,0,0,0,0,0,0,0,0,0,0,0,0,0,0,0,0,0,0,0,0,0,0,0,0,0,0,0,0,0.0154,0.0159,0.0151,0,0,0,0,0,0,0,0,0,0,0,0,0,0,0,0,0,0,0,0,0,0,0,0,0,0,0,0,0,0,0,0,0,0,0,0,0,0,0,0,0,0.0016,0.0066,0.0104,0.0124,0.0104,0.0082,0,0,0,0,0,0,0,0,0,0,0,0,0,0,0,0,0,0,0,0,0,0,0,0,0,0,0,0,0,0,0,0,0,0,0,0,0,0,-0.0027,-0.0052,0.0033,0.0052,0.006,0.0066,0.0066,0.0052,0.0074,0,0,0,0,0,0,0,0,0,0,0,0,0,0,0,0,0,0,0,0,0,0,0,0,0,0,0,0,0,0,0,0,0,0,0,0,0,-0.0091,-0.0085,-0.0022,0.0027,0.0016,0.003,0.0041,0.0058,0.0096,0.019,0,0,0,0,0,0,0,0,0,0,0,0,0,0,0,0,0,0,0,0,0,0,0,0,0,0,0,0,0,-0.0162,-0.0091,-0.011,-0.0124,-0.0058,0.0146,0.0316,0.0022,-0.0176,-0.0118,-0.003,-0.0008,0.0011,0.0052,0.011,0.0203,0.031,0.0428,0,0,0,0,0,0,0,0,0,0,0,0,0,0,0,0,0,0,0,0,0,0,0,0,0,0,0,0,-0.0107,-0.0146,-0.0162,-0.0126,-0.0022,-0.0008,-0.011,0.0327,-0.0074,-0.0214,-0.0121,-0.0049,0.0,0.0055,0.0148,0.0305,0.05,0.0651,0.0761,0,0,0,0,0,0,0,0,0,0,0,0,0,0,0,0,0,0,0,0,0,0,0,0,0,0,-0.0069,-0.0071,-0.0099,-0.0173,-0.0242,-0.0041,0.0157,0.0096,-0.022,0.0063,-0.0201,-0.0173,-0.0099,-0.006,0.0027,0.0157,0.0365,0.0613,0.0777,0.0865,0.0937,0,0,0,0,0.0206,0.0099,0.0019,0,0,0,0,0,0,0,0,0,0,0,0,0,0,0,0,0,-0.0027,-0.0044,-0.0063,-0.0082,-0.0115,-0.0187,-0.0277,-0.0176,0.0041,0.0129,0.0055,-0.0044,-0.0168,-0.0058,-0.0091,-0.0115,0.0025,0.0264,0.0591,0.089,0.1068,0.111,0.1008,-0.0159,-0.0179,-0.0146,0.0003,0.0137,0.0168,0.0195,0.0173,0.0209,0.0228,-0.0069,-0.019,0,0,0,0,0,-0.0176,-0.0148,-0.0118,-0.0099,-0.0085,-0.0058,-0.0022,0.0005,-0.0005,-0.0027,-0.0044,-0.0066,-0.0115,-0.019,-0.0231,-0.0162,0.0008,0.0027,-0.0044,-0.0104,-0.0118,-0.0132,-0.0033,0.0255,0.0591,0.0923,0.1233,0.1272,0.1192,0.0942,-0.014,-0.0154,-0.0146,-0.0091,-0.0027,-0.0025,-0.0019,0.0107,0.0135,0.0071,-0.0069,-0.017,-0.0228,-0.0255,-0.0258,-0.0247,-0.0222,-0.0201,-0.0165,-0.0124,-0.0102,-0.0088,-0.0044,0.0027,0.0077,0.0069,0.0049,0.0036,0.0016,-0.0019,-0.0063,-0.0093,-0.0069,-0.0005,0.0019,0.0008,-0.0016,-0.0011,0.0135,0.036,0.0687,0.1035,0.125,0.1324,0.117,0.095,0.0665,-0.0126,-0.0115,-0.0085,-0.0069,-0.0091,-0.0173,-0.0236,-0.0299,-0.0244,-0.0115,-0.0132,-0.0192,-0.0217,-0.0242,-0.0266,-0.028,-0.0269,-0.0242,-0.019,-0.0124,-0.0085,-0.0058,0.0,0.0082,0.0126,0.0124,0.0115,0.0104,0.0088,0.006,0.003,0.0003,0.0016,0.0071,0.0165,0.0201,0.0275,0.0445,0.072,0.0992,0.1214,0.1313,0.1228,0.1082,0.092,0.0736,0.047,-0.0162,-0.0137,-0.0126,-0.0151,-0.0206,-0.0319,-0.0426,-0.0544,-0.0574,-0.0453,-0.0354,-0.0283,-0.0239,-0.0236,-0.0277,-0.033,-0.0341,-0.0308,-0.0225,-0.0121,-0.0052,-0.0005,0.0052,0.0107,0.0129,0.0137,0.0151,0.0151,0.0146,0.0124,0.0099,0.0069,0.0091,0.0236,0.0376,0.0544,0.0761,0.0992,0.12,0.1318,0.1288,0.1134,0.0981,0.0871,0.0755,0.061,0.0346,-0.0272,-0.0242,-0.0187,-0.0209,-0.0277,-0.0319,-0.0404,-0.0448,-0.0483,-0.0544,-0.061,-0.0574,-0.033,-0.0264,-0.0308,-0.0376,-0.0415,-0.0398,-0.0299,-0.0143,-0.0022,0.0055,0.0104,0.0113,0.0099,0.0124,0.0162,0.0181,0.019,0.0176,0.0157,0.0137,0.0261,0.0467,0.0574,0.0714,0.0926,0.1156,0.1332,0.1324,0.1181,0.0961,0.0805,0.0731,0.064,0.0483,0.0231,-0.045,-0.028,-0.017,-0.0192,-0.0203,-0.0206,-0.028,-0.0376,-0.0385,-0.0341,-0.0519,-0.072,-0.0527,-0.0338,-0.0352,-0.0412,-0.0459,-0.0467,-0.0387,-0.0211,-0.003,0.0088,0.0137,0.0102,0.0049,0.0082,0.0143,0.019,0.022,0.0231,0.0228,0.0255,0.0401,0.0467,0.0516,0.0753,0.1046,0.1316,0.1469,0.1384,0.1137,0.0884,0.0725,0.0626,0.0503,0.0319,0.0093,-0.0503,-0.0277,-0.0231,-0.0277,-0.022,-0.0162,-0.0217,-0.0417,-0.0459,-0.0396,-0.0341,-0.0736,-0.0799,-0.0516,-0.0404,-0.0439,-0.0467,-0.0478,-0.0431,-0.0288,-0.008,0.006,0.011,0.0077,0.0003,0.0008,0.008,0.0181,0.0275,0.0313,0.0341,0.0398,0.0426,0.0453,0.0607,0.0898,0.1233,0.1489,0.1577,0.1439,0.1151,0.0887,0.0709,0.0571,0.0396,0.0192,-0.0022,-0.0494,-0.0253,-0.0096,-0.0148,-0.0137,-0.0019,0.0008,-0.017,-0.0283,-0.0363,-0.045,-0.0835,-0.092,-0.0711,-0.0511,-0.0478,-0.0472,-0.0459,-0.0428,-0.0327,-0.0132,0.0003,0.0038,0.0014,-0.0063,-0.0099,-0.0063,0.022,0.0445,0.0461,0.0508,0.0547,0.056,0.0613,0.0819,0.1101,0.1409,0.1618,0.1648,0.1453,0.1148,0.0893,0.0744,0.0602,0.0428,0.0239,0.0033,-0.0486,0.0058,0.017,0.0143,0.0077,0.0211,0.0214,0.0096,-0.0008,-0.0211,-0.0393,-0.0643,-0.0819,-0.0802,-0.0651,-0.0536,-0.0486,-0.0448,-0.0415,-0.0324,-0.0148,-0.0027,0.0003,-0.0027,-0.0091,-0.0091,-0.0085,0.031,0.0648,0.0739,0.0761,0.0744,0.0788,0.086,0.109,0.139,0.1637,0.1766,0.1692,0.1417,0.1096,0.0876,0.0769,0.0654,0.0522,0.0376,0.0201]}],[{"header":{"parameterUnit":"m.s-1","parameterCategory":2,"la1":30.8641,"la2":29.7642,"lo1":-88.4676,"lo2":-86.9344,"dy":0.0333,"dx":0.0333,"nx":47,"ny":34,"refTime":"2024-12-21T00:00:00:Z","depth":"25","parameterNumber":2,"parameterNumberName":"U-component_of_CURRENTS"},"data":[0,0,0,0,0,0,0,0,0,0,0,0,0,0,0,0,0,0,0,0,0,0,0,0,0,0,0,0,0,0,0,0,0,0,0,0,0,0,0,0,0,0,0,0,0,0,0,0,0,0,0,0,0,0,0,0,0,0,0,0,0,0,0,0,0,0,0,0,0,0,0,0,0,0,0,0,0,0,0,0,0,0,0,0,0,0,0,0,0,0,0,0,0,0,0,0,0,0,0,0,0,0,0,0,0,0,0,0,0,0,0,0,0,0,0,0,0,0,0,0,0,0,0,0,0,0,0,0,0,0,0,0,0,0,0,0,0,0,0,0,0,0,0,0,0,0,0,0,0,0,0,0,0,0,0,0,0,0,0,0,0,0,0,0,0,0,0,0,0,0,0,0,0,0,0,0,0,0,0,0,0,0,0,0,0,0,0,0,0,0,0,0,0,0,0,0,0,0,0,0,0,0,0,0,0,0,0,0,0,0,0,0,0,0,0,0,0,0,0,0,0,0,0,0,0,0,0,0,0,0,0,0,0,0,0,0,0,0,0,0,0,0,0,0,0,0,0,0,0,0,0,0,0,0,0,0,0,0,0,0,0,0,0,0,0,0,0,0,0,0,0,0,0,0,0,0,0,0,0,0,0,0,0,0,0,0,0,0,0,0,0,0,0,0,0,0,0,0,0,0,0,0,0,0,0,0,0,0,0,0,0,0,0,0,0,0,0,0,0,0,0,0,0,0,0,0,0,0,0,0,0,0,0,0,0,0,0,0,0,0,0,0,0,0,0,0,0,0,0,0,0,0,0,0,0,0,0,0,0,0,0,0,0,0,0,0,0,0,0,0,0,0,0,0,0,0,0,0,0,0,0,0,0,0,0,0,0,0,0,0,0,0,0,0,0,0,0,0,0,0,0,0,0,0,0,0,0,0,0,0,0,0,0,0,0,0,0,0,0,0,0,0,0,0,0,0,0,0,0,0,0,0,0,0,0,0,0,0,0,0,0,0,0,0,0,0,0,0,0,0,0,0,0,0,0,0,0,0,0,0,0,0,0,0,0,0,0,0,0,0,0,0,0,0,0,0,0,0,0,0,0,0,0,0,0,0,0,0,0,0,0,0,0,0,0,0,0,0,0,0,0,0,0,0,0,0,0,0,0,0,0,0,0,0,0,0,0,0,0,0,0,0,0,0,0,0,0,0,0,0,0,0,0,0,0,0,0,0,0,0,0,0,0,0,0,0,0,0,0,0,0,0,0,0,0,0,0,0,0,0,0,0,0,0,0,0,0,0,0,0,0,0,0,0,0,0,0,0,0,0,0,0,0,0,0,0,0,0,0,0,0,0,0,0,0,0,0,0,0,0,0,0,0,0,0,0,0,0,0,0,0,0,0,0,0,0,0,0,0,0,0,0,0,0,0,0,0,0,0,0,0,0,0,0,0,0,0,0,0,0,0,0,0,0,0,0,0,0,0,0,0,0,0,0,0,0,0,0,0,0,0,0,0,0,0,0,0,0,0,0,0,0,0,0,0,0,0,0,0,0,0,0,0,0,0,0,0,0,0,0,0,0,0,0,0,0,0,0,0,0,0,0,0,0,0,0,0,0,0,0,0,0,0,0,0,0,0,0,0,0,0,0,0,0,0,0,0,0,0,0,0,0,0,0,0,0,0,0,0,0,0,0,0,0,0,0,0,0,0,0,0,0,0,0,0,0,0,0,0,0,0,0,0,0,0,0,0,0,0,0,0,0,0,0,0,0,0,0,0,0,0,0,0,0,0,0,0,0,0,0,0,0,0,0,0,0,0,0,0,0,0,0,0,0,0,0,0,0,0,0,0,0,0,0,0,0,0,0,0,0,0,0,0,0,0,0,0,0,0,0,0,0,0,0,0,0,0,0,0,0,0,0,0,0,0,0,0,0,0,0,0,0,0,0,0,0,0,0,0,0,0,0,0,0,0,0,0,0,0,0,0,0,0,0,0,0,0,0,0,0,0,0,0,0,0,0,0,0,0,0,0,0,0,0,0,0,0,0,0,0,0,0,0,0,0,0,0,0,0,0,0,0,0,0,0,0,0,0,0,0,0,0,0,0,0,0,0,0,0,0,0,0,0,0,0,0,0,0.0099,0.0088,0.0113,0,0,0,0,0,0,0,0,0,0,0,0,0,0,0,0,0,0,0,0,0,0,0,0,0,0,0,0,0,0,0,0,0,0,0,0,0,0,0,-0.0113,-0.006,-0.0055,-0.0049,-0.0014,0.0049,0.0151,0.0255,0,0,0,0,0,0,0,0,0,0,0,0,0,0,0,0,0,0,0,0,0,0,0,0,0,0,0,0,0,0,0,0,0,0,0,0,0,0,-0.0159,-0.011,-0.0099,-0.0096,-0.0058,0.0022,0.0159,0.0368,0.0665,0,0,0,0,0,0,0,0,0,0,0,0,0,0,0,0,0,0,0,0,0,0,0,0,0,0,0,0,0,0,0,0,0,0,0,0,0,-0.0173,-0.0099,-0.0066,-0.0077,-0.0047,0.0049,0.0228,0.0574,0.0939,0.1351,0,0,0,0,0,0,0,0,0,0,0,0,0,0,0,0,0,0,0,0,0,0,0,0,0,0,0,0,0,0,0,0,0,0.0508,0.0437,0.0148,-0.0085,-0.0044,0.0058,0.0102,0.0137,0.0247,0.0481,0.0868,0.122,0.1519,0.1873,0,0,0,0,0,0,0,0,0,0,0,0,0,0,0,0,0,0,0,0,0,0,0,0,0,0,0,0,0,0.0225,0.0297,0.042,0.0525,0.0538,0.0505,0.0472,0.0335,0.0291,0.0409,0.0569,0.0711,0.0876,0.122,0.1555,0.184,0.2192,0.2445,0,0,0,0,0,0,0,0,0,0,0,0,0,0,0,0,0,0,0,0,0,0,0,0,0,0,0.0066,0.0124,0.0181,0.0253,0.0349,0.0472,0.0569,0.0552,0.0536,0.0599,0.0651,0.0673,0.0736,0.0917,0.1156,0.1486,0.1859,0.2197,0.2439,0.2475,0.2469,-0.008,0.0,0.0088,0.0168,0.0184,0.0096,-0.0005,0,0,0,0,0,0,0,0,0,0,0,0,0,0,0,0,-0.0154,-0.0093,-0.003,0.0038,0.011,0.0179,0.0247,0.0324,0.0412,0.05,0.0569,0.0623,0.0626,0.0651,0.07,0.078,0.1082,0.1524,0.1997,0.234,0.2505,0.2497,0.237,0.2203,0.0242,0.0242,0.0261,0.0291,0.0305,0.0255,-0.0008,-0.0071,0.0093,0.0022,-0.0082,-0.0124,0,0,0,0,0,-0.0214,-0.0239,-0.0244,-0.0225,-0.019,-0.0137,-0.0088,-0.0052,-0.0019,0.0027,0.0085,0.0146,0.0211,0.0283,0.0354,0.0428,0.05,0.0563,0.0615,0.064,0.0849,0.1263,0.175,0.2159,0.242,0.2477,0.2398,0.2274,0.2137,0.1997,0.0349,0.0291,0.0283,0.022,0.0044,-0.0126,-0.0261,-0.0313,-0.0225,-0.0077,0.0069,0.0126,0.0091,0.0049,0.0025,0.0,-0.0041,-0.0096,-0.0143,-0.0168,-0.0159,-0.0118,-0.0063,-0.0022,-0.0011,-0.0005,0.0014,0.0047,0.0096,0.0157,0.0225,0.0297,0.0371,0.0494,0.0607,0.0648,0.0904,0.1329,0.167,0.1934,0.2118,0.2206,0.2217,0.2151,0.2071,0.2005,0.1936,0.0297,0.0239,0.011,-0.017,-0.0464,-0.0623,-0.0626,-0.0541,-0.0431,-0.0428,-0.036,-0.0022,0.0198,0.0206,0.0165,0.0126,0.0099,0.006,0.0003,-0.0066,-0.0096,-0.0063,-0.0005,0.0027,0.0022,0.0005,0.0003,0.0016,0.0047,0.0093,0.0157,0.0233,0.0371,0.0475,0.0544,0.0794,0.0939,0.1137,0.1401,0.1623,0.1818,0.1925,0.1947,0.195,0.1947,0.1931,0.1914,0.0173,-0.0022,-0.0283,-0.0467,-0.0483,-0.0472,-0.0489,-0.0486,-0.0519,-0.0511,-0.0332,-0.0214,-0.0027,0.0239,0.0266,0.0228,0.0206,0.0201,0.0181,0.0118,0.0058,0.0049,0.0069,0.0077,0.0058,0.0016,-0.0019,-0.003,-0.0011,0.0036,0.0113,0.0231,0.0426,0.0558,0.0566,0.0623,0.0813,0.1066,0.1332,0.153,0.17,0.1791,0.1829,0.1879,0.1931,0.1956,0.1956,-0.0058,-0.0233,-0.0283,-0.0168,-0.0135,-0.0096,-0.0113,-0.0154,-0.0198,-0.0209,-0.0162,-0.0148,-0.0135,0.0096,0.0313,0.0313,0.0297,0.0305,0.0321,0.0305,0.0258,0.0209,0.0159,0.0124,0.0093,0.0038,-0.0041,-0.0085,-0.0044,0.0049,0.0173,0.0349,0.0492,0.0577,0.0645,0.0783,0.1052,0.1316,0.1522,0.1648,0.1758,0.1796,0.1816,0.1857,0.1909,0.1958,0.2002,-0.0137,-0.022,-0.0242,-0.0168,-0.0187,-0.0148,0.0014,0.0107,0.0077,0.0049,-0.0071,-0.0261,-0.0192,0.0016,0.0269,0.0382,0.0357,0.0352,0.0365,0.0374,0.0363,0.0332,0.0286,0.0228,0.0168,0.0093,0.0005,-0.0033,0.0041,0.019,0.0368,0.0585,0.0755,0.0871,0.103,0.1244,0.1478,0.1681,0.1788,0.1818,0.1807,0.1785,0.1777,0.1794,0.1846,0.1923,0.2005,-0.0129,-0.0159,0.0027,0.0019,0.0063,0.0264,0.039,0.0363,0.0291,0.0214,0.0104,-0.0036,-0.0016,0.0113,0.0275,0.0407,0.0396,0.0374,0.0357,0.0357,0.036,0.0357,0.036,0.0363,0.0382,0.0434,0.0544,0.0604,0.0615,0.0662,0.0766,0.0934,0.1096,0.1269,0.1486,0.1706,0.1906,0.2044,0.2055,0.1953,0.1813,0.1733,0.1692,0.1681,0.1736,0.1835,0.1964]},{"header":{"parameterUnit":"m.s-1","parameterCategory":2,"la1":30.8641,"la2":29.7642,"lo1":-88.4676,"lo2":-86.9344,"dy":0.0333,"dx":0.0333,"nx":47,"ny":34,"refTime":"2024-12-21T00:00:00:Z","depth":"25","parameterNumber":3,"parameterNumberName":"V-component_of_CURRENTS"},"data":[0,0,0,0,0,0,0,0,0,0,0,0,0,0,0,0,0,0,0,0,0,0,0,0,0,0,0,0,0,0,0,0,0,0,0,0,0,0,0,0,0,0,0,0,0,0,0,0,0,0,0,0,0,0,0,0,0,0,0,0,0,0,0,0,0,0,0,0,0,0,0,0,0,0,0,0,0,0,0,0,0,0,0,0,0,0,0,0,0,0,0,0,0,0,0,0,0,0,0,0,0,0,0,0,0,0,0,0,0,0,0,0,0,0,0,0,0,0,0,0,0,0,0,0,0,0,0,0,0,0,0,0,0,0,0,0,0,0,0,0,0,0,0,0,0,0,0,0,0,0,0,0,0,0,0,0,0,0,0,0,0,0,0,0,0,0,0,0,0,0,0,0,0,0,0,0,0,0,0,0,0,0,0,0,0,0,0,0,0,0,0,0,0,0,0,0,0,0,0,0,0,0,0,0,0,0,0,0,0,0,0,0,0,0,0,0,0,0,0,0,0,0,0,0,0,0,0,0,0,0,0,0,0,0,0,0,0,0,0,0,0,0,0,0,0,0,0,0,0,0,0,0,0,0,0,0,0,0,0,0,0,0,0,0,0,0,0,0,0,0,0,0,0,0,0,0,0,0,0,0,0,0,0,0,0,0,0,0,0,0,0,0,0,0,0,0,0,0,0,0,0,0,0,0,0,0,0,0,0,0,0,0,0,0,0,0,0,0,0,0,0,0,0,0,0,0,0,0,0,0,0,0,0,0,0,0,0,0,0,0,0,0,0,0,0,0,0,0,0,0,0,0,0,0,0,0,0,0,0,0,0,0,0,0,0,0,0,0,0,0,0,0,0,0,0,0,0,0,0,0,0,0,0,0,0,0,0,0,0,0,0,0,0,0,0,0,0,0,0,0,0,0,0,0,0,0,0,0,0,0,0,0,0,0,0,0,0,0,0,0,0,0,0,0,0,0,0,0,0,0,0,0,0,0,0,0,0,0,0,0,0,0,0,0,0,0,0,0,0,0,0,0,0,0,0,0,0,0,0,0,0,0,0,0,0,0,0,0,0,0,0,0,0,0,0,0,0,0,0,0,0,0,0,0,0,0,0,0,0,0,0,0,0,0,0,0,0,0,0,0,0,0,0,0,0,0,0,0,0,0,0,0,0,0,0,0,0,0,0,0,0,0,0,0,0,0,0,0,0,0,0,0,0,0,0,0,0,0,0,0,0,0,0,0,0,0,0,0,0,0,0,0,0,0,0,0,0,0,0,0,0,0,0,0,0,0,0,0,0,0,0,0,0,0,0,0,0,0,0,0,0,0,0,0,0,0,0,0,0,0,0,0,0,0,0,0,0,0,0,0,0,0,0,0,0,0,0,0,0,0,0,0,0,0,0,0,0,0,0,0,0,0,0,0,0,0,0,0,0,0,0,0,0,0,0,0,0,0,0,0,0,0,0,0,0,0,0,0,0,0,0,0,0,0,0,0,0,0,0,0,0,0,0,0,0,0,0,0,0,0,0,0,0,0,0,0,0,0,0,0,0,0,0,0,0,0,0,0,0,0,0,0,0,0,0,0,0,0,0,0,0,0,0,0,0,0,0,0,0,0,0,0,0,0,0,0,0,0,0,0,0,0,0,0,0,0,0,0,0,0,0,0,0,0,0,0,0,0,0,0,0,0,0,0,0,0,0,0,0,0,0,0,0,0,0,0,0,0,0,0,0,0,0,0,0,0,0,0,0,0,0,0,0,0,0,0,0,0,0,0,0,0,0,0,0,0,0,0,0,0,0,0,0,0,0,0,0,0,0,0,0,0,0,0,0,0,0,0,0,0,0,0,0,0,0,0,0,0,0,0,0,0,0,0,0,0,0,0,0,0,0,0,0,0,0,0,0,0,0,0,0,0,0,0,0,0,0,0,0,0,0,0,0,0,0,0,0,0,0,0,0,0,0,0,0,0,0,0,0,0,0,0,0,0,0,0,0,0,0,0,0,0,0,0,0,0,0,0,0,0,0,0,0,0,0,0,0,0,0,0,0,0,0,0,0,0,0,0,0,0,0,0,0,0,0,0,0,0,0,0,0,0,0,0,0,0,0,0,0,0,0,0,0,0,0,0,0,0.0066,0.0044,0.0055,0,0,0,0,0,0,0,0,0,0,0,0,0,0,0,0,0,0,0,0,0,0,0,0,0,0,0,0,0,0,0,0,0,0,0,0,0,0,0,0.0,0.003,0.0014,0.0022,0.0027,0.003,0.0058,0.0066,0,0,0,0,0,0,0,0,0,0,0,0,0,0,0,0,0,0,0,0,0,0,0,0,0,0,0,0,0,0,0,0,0,0,0,0,0,0,-0.0099,-0.0036,-0.0025,-0.0005,0.0036,0.0085,0.0113,0.0222,0.0236,0,0,0,0,0,0,0,0,0,0,0,0,0,0,0,0,0,0,0,0,0,0,0,0,0,0,0,0,0,0,0,0,0,0,0,0,0,-0.0201,-0.0118,-0.0055,-0.0005,0.0049,0.0132,0.0242,0.0357,0.0472,0.0645,0,0,0,0,0,0,0,0,0,0,0,0,0,0,0,0,0,0,0,0,0,0,0,0,0,0,0,0,0,0,0,0,0,0.0044,0.0063,0.019,0.0016,-0.0168,-0.0099,-0.0058,0.0025,0.0146,0.031,0.0398,0.0626,0.072,0.0775,0,0,0,0,0,0,0,0,0,0,0,0,0,0,0,0,0,0,0,0,0,0,0,0,0,0,0,0,0,-0.0192,-0.0242,-0.0085,-0.0047,0.0014,0.0143,0.0211,0.0132,-0.0038,-0.011,-0.0239,-0.0154,0.0069,0.0302,0.0538,0.0753,0.0854,0.0939,0,0,0,0,0,0,0,0,0,0,0,0,0,0,0,0,0,0,0,0,0,0,0,0,0,0,-0.0055,-0.0077,-0.0096,-0.0143,-0.0211,-0.0244,-0.0179,-0.0008,0.0099,0.0038,-0.0055,-0.0255,-0.036,-0.0374,-0.0148,0.017,0.0494,0.0838,0.1041,0.1118,0.0942,-0.0135,-0.0157,-0.0157,-0.0107,-0.0049,-0.0055,-0.0066,0,0,0,0,0,0,0,0,0,0,0,0,0,0,0,0,0.0008,0.0052,0.0041,0.0022,0.0011,-0.0005,-0.0041,-0.0085,-0.0118,-0.0099,-0.0041,-0.003,-0.0192,-0.0346,-0.0459,-0.0324,-0.0077,0.0258,0.0621,0.0939,0.12,0.1165,0.0953,0.0667,-0.0176,-0.0187,-0.0206,-0.0239,-0.0261,-0.0283,-0.0277,-0.0255,-0.025,-0.0121,-0.0132,-0.019,0,0,0,0,0,-0.0236,-0.019,-0.0132,-0.0096,-0.0074,-0.0019,0.0066,0.0113,0.011,0.0102,0.0091,0.0074,0.0049,0.0016,-0.0011,-0.0003,0.003,-0.0014,-0.017,-0.0211,-0.0058,0.028,0.0623,0.0928,0.122,0.1239,0.1093,0.0928,0.0742,0.0472,-0.0346,-0.033,-0.0393,-0.0481,-0.0503,-0.0426,-0.0338,-0.053,-0.0574,-0.0385,-0.0335,-0.0313,-0.025,-0.0244,-0.0283,-0.0324,-0.033,-0.0297,-0.0222,-0.0129,-0.0063,-0.0014,0.0044,0.0102,0.0124,0.0129,0.014,0.0137,0.0135,0.0113,0.0088,0.0058,0.0066,0.0016,-0.006,0.0066,0.0335,0.0678,0.1008,0.1233,0.1294,0.1151,0.1,0.0887,0.0766,0.0615,0.0349,-0.0544,-0.0582,-0.0634,-0.064,-0.0467,-0.0308,-0.0206,-0.0228,-0.0255,-0.0264,-0.0486,-0.0549,-0.039,-0.0275,-0.0313,-0.0376,-0.0409,-0.0385,-0.0288,-0.0137,-0.0019,0.0058,0.0107,0.011,0.0096,0.0118,0.0154,0.0173,0.0179,0.0165,0.0146,0.0121,0.014,0.0099,0.0146,0.0505,0.0871,0.1132,0.1302,0.1324,0.1206,0.0981,0.0821,0.0739,0.0645,0.0489,0.0236,-0.0753,-0.0728,-0.0585,-0.0412,-0.0236,-0.0151,-0.0047,0.0033,-0.0011,-0.0096,-0.0277,-0.0472,-0.0511,-0.0371,-0.0354,-0.0412,-0.0456,-0.0459,-0.0376,-0.0198,-0.0016,0.0099,0.0146,0.0107,0.0052,0.0085,0.0146,0.019,0.0217,0.0222,0.0217,0.0242,0.0357,0.0363,0.0475,0.0744,0.1027,0.1285,0.1439,0.1401,0.1151,0.0893,0.0731,0.0629,0.0503,0.0319,0.0093,-0.0816,-0.056,-0.0365,-0.0192,-0.0121,-0.0066,-0.0055,-0.0088,-0.0124,-0.0118,-0.0044,-0.0269,-0.0508,-0.0558,-0.042,-0.0439,-0.047,-0.0481,-0.0431,-0.0283,-0.0074,0.0066,0.0115,0.0085,0.0014,0.0022,0.0088,0.019,0.028,0.0316,0.0341,0.0398,0.0426,0.0456,0.0607,0.0901,0.1225,0.1461,0.1535,0.1447,0.1154,0.089,0.0709,0.0569,0.0393,0.019,-0.0025,-0.0728,-0.0338,-0.0157,-0.0022,0.0058,0.0165,0.0107,0.0014,-0.0077,-0.0217,-0.0091,-0.0286,-0.0525,-0.0654,-0.0538,-0.0481,-0.0475,-0.0464,-0.0434,-0.0332,-0.014,-0.0005,0.0036,0.0016,-0.0055,-0.0077,0.0014,0.0206,0.0404,0.0459,0.0511,0.0549,0.0563,0.0615,0.0816,0.1093,0.1395,0.159,0.1634,0.1456,0.1151,0.0893,0.0742,0.0596,0.0423,0.0233,0.0027,-0.056,-0.0113,0.0066,0.0115,0.0236,0.0294,0.0269,0.0096,-0.0157,-0.0385,-0.0352,-0.0385,-0.053,-0.0629,-0.0656,-0.0547,-0.0492,-0.0459,-0.0428,-0.0346,-0.0173,-0.0049,-0.0014,-0.0044,-0.0107,-0.0168,-0.0242,-0.0014,0.0352,0.0571,0.0736,0.0739,0.0786,0.0857,0.1082,0.1368,0.1612,0.1728,0.1686,0.1417,0.1096,0.0876,0.0769,0.0651,0.0519,0.0374,0.0198]}]]